Wetterdaten: Dienstag, 23.08.2016
Datum Zeit Temp. A. Feuchte A. Luftdruck Regen Wind Richtung Richtung Sonnenschein ET UV Solar Taupunkt Windchill Windben Empfang
23.08.2016 00:00 14,1 C 86 % 1027,6 hPa 0,0 l/m 6,6 km/h (2 Bft) S 177 0 min 0,000 mm 0,0 UV-I 0 W/m 11,8 C 14,0 C 8,0 km/h (2 Bft) 100,00 %
23.08.2016 00:02 14,1 C 86 % 1027,6 hPa 0,0 l/m 5,8 km/h (2 Bft) S-SW 204 0 min 0,000 mm 0,0 UV-I 0 W/m 11,8 C 14,1 C 8,0 km/h (2 Bft) 100,00 %
23.08.2016 00:04 14,0 C 87 % 1027,6 hPa 0,0 l/m 5,3 km/h (1 Bft) S-SO 166 0 min 0,000 mm 0,0 UV-I 0 W/m 11,9 C 14,0 C 8,0 km/h (2 Bft) 100,00 %
23.08.2016 00:06 13,9 C 87 % 1027,6 hPa 0,0 l/m 6,0 km/h (2 Bft) S-SW 213 0 min 0,000 mm 0,0 UV-I 0 W/m 11,8 C 13,9 C 8,0 km/h (2 Bft) 97,56 %
23.08.2016 00:08 13,9 C 87 % 1027,6 hPa 0,0 l/m 6,9 km/h (2 Bft) S-SO 158 0 min 0,000 mm 0,0 UV-I 0 W/m 11,8 C 13,6 C 9,7 km/h (2 Bft) 100,00 %
23.08.2016 00:10 13,9 C 87 % 1027,6 hPa 0,0 l/m 6,0 km/h (2 Bft) S 191 0 min 0,000 mm 0,0 UV-I 0 W/m 11,8 C 13,9 C 8,0 km/h (2 Bft) 100,00 %
23.08.2016 00:12 13,8 C 87 % 1027,6 hPa 0,0 l/m 5,5 km/h (1 Bft) S-SO 167 0 min 0,000 mm 0,0 UV-I 0 W/m 11,7 C 13,8 C 8,0 km/h (2 Bft) 100,00 %
23.08.2016 00:14 13,8 C 87 % 1027,7 hPa 0,0 l/m 5,3 km/h (1 Bft) S-SO 163 0 min 0,000 mm 0,0 UV-I 0 W/m 11,7 C 13,8 C 6,4 km/h (2 Bft) 100,00 %
23.08.2016 00:16 13,8 C 87 % 1027,7 hPa 0,0 l/m 4,5 km/h (1 Bft) S 169 0 min 0,000 mm 0,0 UV-I 0 W/m 11,7 C 13,8 C 6,4 km/h (2 Bft) 100,00 %
23.08.2016 00:18 13,7 C 87 % 1027,7 hPa 0,0 l/m 5,1 km/h (1 Bft) S-SW 202 0 min 0,000 mm 0,0 UV-I 0 W/m 11,6 C 13,7 C 8,0 km/h (2 Bft) 100,00 %
23.08.2016 00:20 13,7 C 87 % 1027,6 hPa 0,0 l/m 4,9 km/h (1 Bft) S-SW 199 0 min 0,000 mm 0,0 UV-I 0 W/m 11,6 C 13,7 C 8,0 km/h (2 Bft) 100,00 %
23.08.2016 00:22 13,7 C 88 % 1027,6 hPa 0,0 l/m 4,5 km/h (1 Bft) S-SW 208 0 min 0,000 mm 0,0 UV-I 0 W/m 11,7 C 13,7 C 6,4 km/h (2 Bft) 97,22 %
23.08.2016 00:24 13,7 C 88 % 1027,6 hPa 0,0 l/m 4,9 km/h (1 Bft) S-SW 196 0 min 0,000 mm 0,0 UV-I 0 W/m 11,7 C 13,7 C 8,0 km/h (2 Bft) 98,21 %
23.08.2016 00:26 13,7 C 88 % 1027,6 hPa 0,0 l/m 4,5 km/h (1 Bft) S 190 0 min 0,000 mm 0,0 UV-I 0 W/m 11,7 C 13,7 C 8,0 km/h (2 Bft) 100,00 %
23.08.2016 00:28 13,6 C 88 % 1027,5 hPa 0,0 l/m 4,8 km/h (1 Bft) SW 215 0 min 0,000 mm 0,0 UV-I 0 W/m 11,6 C 13,6 C 8,0 km/h (2 Bft) 100,00 %
23.08.2016 00:30 13,6 C 88 % 1027,6 hPa 0,0 l/m 5,0 km/h (1 Bft) S 190 0 min 0,000 mm 0,0 UV-I 0 W/m 11,6 C 13,6 C 6,4 km/h (2 Bft) 100,00 %
23.08.2016 00:32 13,6 C 88 % 1027,5 hPa 0,0 l/m 6,0 km/h (2 Bft) S 181 0 min 0,000 mm 0,0 UV-I 0 W/m 11,6 C 13,6 C 8,0 km/h (2 Bft) 100,00 %
23.08.2016 00:34 13,5 C 88 % 1027,6 hPa 0,0 l/m 6,1 km/h (2 Bft) S 182 0 min 0,000 mm 0,0 UV-I 0 W/m 11,6 C 13,5 C 8,0 km/h (2 Bft) 96,00 %
23.08.2016 00:36 13,5 C 88 % 1027,5 hPa 0,0 l/m 7,1 km/h (2 Bft) S-SW 199 0 min 0,000 mm 0,0 UV-I 0 W/m 11,6 C 13,1 C 11,3 km/h (2 Bft) 97,37 %
23.08.2016 00:38 13,6 C 88 % 1027,6 hPa 0,0 l/m 5,6 km/h (1 Bft) S 189 0 min 0,000 mm 0,0 UV-I 0 W/m 11,6 C 13,6 C 8,0 km/h (2 Bft) 96,23 %
23.08.2016 00:40 13,6 C 88 % 1027,6 hPa 0,0 l/m 5,4 km/h (1 Bft) S 175 0 min 0,000 mm 0,0 UV-I 0 W/m 11,6 C 13,6 C 8,0 km/h (2 Bft) 97,87 %
23.08.2016 00:42 13,6 C 88 % 1027,6 hPa 0,0 l/m 5,9 km/h (2 Bft) SW 217 0 min 0,000 mm 0,0 UV-I 0 W/m 11,6 C 13,6 C 9,7 km/h (2 Bft) 97,56 %
23.08.2016 00:44 13,6 C 88 % 1027,6 hPa 0,0 l/m 4,2 km/h (1 Bft) S-SW 200 0 min 0,000 mm 0,0 UV-I 0 W/m 11,6 C 13,6 C 8,0 km/h (2 Bft) 97,87 %
23.08.2016 00:46 13,6 C 88 % 1027,7 hPa 0,0 l/m 4,4 km/h (1 Bft) S 188 0 min 0,000 mm 0,0 UV-I 0 W/m 11,6 C 13,6 C 6,4 km/h (2 Bft) 98,11 %
23.08.2016 00:48 13,5 C 88 % 1027,6 hPa 0,0 l/m 4,3 km/h (1 Bft) S-SW 194 0 min 0,000 mm 0,0 UV-I 0 W/m 11,6 C 13,5 C 6,4 km/h (2 Bft) 97,87 %
23.08.2016 00:50 13,4 C 89 % 1027,7 hPa 0,0 l/m 5,7 km/h (1 Bft) S-SW 199 0 min 0,000 mm 0,0 UV-I 0 W/m 11,6 C 13,4 C 8,0 km/h (2 Bft) 97,44 %
23.08.2016 00:52 13,4 C 89 % 1027,6 hPa 0,0 l/m 4,6 km/h (1 Bft) S 190 0 min 0,000 mm 0,0 UV-I 0 W/m 11,6 C 13,4 C 6,4 km/h (2 Bft) 94,55 %
23.08.2016 00:54 13,4 C 89 % 1027,6 hPa 0,0 l/m 4,7 km/h (1 Bft) S-SW 204 0 min 0,000 mm 0,0 UV-I 0 W/m 11,6 C 13,4 C 8,0 km/h (2 Bft) 98,00 %
23.08.2016 00:56 13,4 C 89 % 1027,6 hPa 0,0 l/m 5,1 km/h (1 Bft) S-SW 195 0 min 0,000 mm 0,0 UV-I 0 W/m 11,6 C 13,4 C 6,4 km/h (2 Bft) 97,62 %
23.08.2016 00:58 13,4 C 89 % 1027,6 hPa 0,0 l/m 4,8 km/h (1 Bft) S-SW 197 0 min 0,000 mm 0,0 UV-I 0 W/m 11,6 C 13,4 C 8,0 km/h (2 Bft) 97,87 %
23.08.2016 01:00 13,4 C 89 % 1027,6 hPa 0,0 l/m 5,7 km/h (1 Bft) S-SW 202 0 min 0,000 mm 0,0 UV-I 0 W/m 11,6 C 13,4 C 8,0 km/h (2 Bft) 95,74 %
23.08.2016 01:02 13,4 C 89 % 1027,6 hPa 0,0 l/m 4,5 km/h (1 Bft) S 184 0 min 0,000 mm 0,0 UV-I 0 W/m 11,6 C 13,4 C 8,0 km/h (2 Bft) 97,56 %
23.08.2016 01:04 13,4 C 89 % 1027,6 hPa 0,0 l/m 4,9 km/h (1 Bft) S-SW 200 0 min 0,000 mm 0,0 UV-I 0 W/m 11,6 C 13,4 C 6,4 km/h (2 Bft) 98,00 %
23.08.2016 01:06 13,4 C 89 % 1027,6 hPa 0,0 l/m 5,3 km/h (1 Bft) S-SW 211 0 min 0,000 mm 0,0 UV-I 0 W/m 11,6 C 13,4 C 8,0 km/h (2 Bft) 96,00 %
23.08.2016 01:08 13,5 C 89 % 1027,6 hPa 0,0 l/m 6,0 km/h (2 Bft) S-SW 198 0 min 0,000 mm 0,0 UV-I 0 W/m 11,7 C 13,5 C 8,0 km/h (2 Bft) 95,45 %
23.08.2016 01:10 13,5 C 89 % 1027,6 hPa 0,0 l/m 6,5 km/h (2 Bft) S-SW 207 0 min 0,000 mm 0,0 UV-I 0 W/m 11,7 C 13,5 C 9,7 km/h (2 Bft) 98,11 %
23.08.2016 01:12 13,5 C 89 % 1027,6 hPa 0,0 l/m 5,2 km/h (1 Bft) S-SW 204 0 min 0,000 mm 0,0 UV-I 0 W/m 11,7 C 13,5 C 8,0 km/h (2 Bft) 97,37 %
23.08.2016 01:14 13,4 C 89 % 1027,6 hPa 0,0 l/m 4,1 km/h (1 Bft) S-SW 204 0 min 0,000 mm 0,0 UV-I 0 W/m 11,6 C 13,4 C 6,4 km/h (2 Bft) 100,00 %
23.08.2016 01:16 13,4 C 89 % 1027,6 hPa 0,0 l/m 5,8 km/h (2 Bft) S-SO 167 0 min 0,000 mm 0,0 UV-I 0 W/m 11,6 C 13,4 C 9,7 km/h (2 Bft) 100,00 %
23.08.2016 01:18 13,4 C 89 % 1027,6 hPa 0,0 l/m 4,7 km/h (1 Bft) S-SW 210 0 min 0,000 mm 0,0 UV-I 0 W/m 11,6 C 13,4 C 8,0 km/h (2 Bft) 97,56 %
23.08.2016 01:20 13,4 C 89 % 1027,6 hPa 0,0 l/m 3,9 km/h (1 Bft) S-SW 209 0 min 0,000 mm 0,0 UV-I 0 W/m 11,6 C 13,4 C 6,4 km/h (2 Bft) 100,00 %
23.08.2016 01:22 13,4 C 89 % 1027,7 hPa 0,0 l/m 4,7 km/h (1 Bft) S-SW 200 0 min 0,000 mm 0,0 UV-I 0 W/m 11,6 C 13,4 C 6,4 km/h (2 Bft) 100,00 %
23.08.2016 01:24 13,4 C 89 % 1027,6 hPa 0,0 l/m 5,0 km/h (1 Bft) S-SW 207 0 min 0,000 mm 0,0 UV-I 0 W/m 11,6 C 13,4 C 6,4 km/h (2 Bft) 97,56 %
23.08.2016 01:26 13,3 C 89 % 1027,6 hPa 0,0 l/m 5,8 km/h (2 Bft) SW 217 0 min 0,000 mm 0,0 UV-I 0 W/m 11,5 C 13,3 C 8,0 km/h (2 Bft) 100,00 %
23.08.2016 01:28 13,4 C 89 % 1027,6 hPa 0,0 l/m 6,4 km/h (2 Bft) S-SW 210 0 min 0,000 mm 0,0 UV-I 0 W/m 11,6 C 13,4 C 11,3 km/h (2 Bft) 100,00 %
23.08.2016 01:30 13,4 C 89 % 1027,6 hPa 0,0 l/m 6,8 km/h (2 Bft) S-SW 211 0 min 0,000 mm 0,0 UV-I 0 W/m 11,6 C 13,2 C 9,7 km/h (2 Bft) 100,00 %
23.08.2016 01:32 13,4 C 89 % 1027,6 hPa 0,0 l/m 6,0 km/h (2 Bft) S-SW 193 0 min 0,000 mm 0,0 UV-I 0 W/m 11,6 C 13,4 C 9,7 km/h (2 Bft) 96,55 %
23.08.2016 01:34 13,5 C 89 % 1027,6 hPa 0,0 l/m 5,6 km/h (1 Bft) SW 217 0 min 0,000 mm 0,0 UV-I 0 W/m 11,7 C 13,5 C 8,0 km/h (2 Bft) 100,00 %
23.08.2016 01:36 13,4 C 89 % 1027,6 hPa 0,0 l/m 5,6 km/h (1 Bft) S-SW 204 0 min 0,000 mm 0,0 UV-I 0 W/m 11,6 C 13,4 C 8,0 km/h (2 Bft) 98,00 %
23.08.2016 01:38 13,4 C 89 % 1027,5 hPa 0,0 l/m 5,1 km/h (1 Bft) SW 214 0 min 0,000 mm 0,0 UV-I 0 W/m 11,6 C 13,4 C 8,0 km/h (2 Bft) 100,00 %
23.08.2016 01:40 13,4 C 89 % 1027,5 hPa 0,0 l/m 5,9 km/h (2 Bft) S-SW 199 0 min 0,000 mm 0,0 UV-I 0 W/m 11,6 C 13,4 C 8,0 km/h (2 Bft) 98,00 %
23.08.2016 01:42 13,4 C 89 % 1027,5 hPa 0,0 l/m 6,0 km/h (2 Bft) S-SW 198 0 min 0,000 mm 0,0 UV-I 0 W/m 11,6 C 13,4 C 8,0 km/h (2 Bft) 98,00 %
23.08.2016 01:44 13,3 C 89 % 1027,5 hPa 0,0 l/m 5,9 km/h (2 Bft) SW 231 0 min 0,000 mm 0,0 UV-I 0 W/m 11,5 C 13,3 C 8,0 km/h (2 Bft) 98,00 %
23.08.2016 01:46 13,3 C 89 % 1027,6 hPa 0,0 l/m 5,8 km/h (2 Bft) S-SW 205 0 min 0,000 mm 0,0 UV-I 0 W/m 11,5 C 13,3 C 8,0 km/h (2 Bft) 97,87 %
23.08.2016 01:48 13,3 C 89 % 1027,6 hPa 0,0 l/m 4,7 km/h (1 Bft) S-SW 202 0 min 0,000 mm 0,0 UV-I 0 W/m 11,5 C 13,3 C 8,0 km/h (2 Bft) 97,87 %
23.08.2016 01:50 13,3 C 89 % 1027,6 hPa 0,0 l/m 4,7 km/h (1 Bft) S-SW 205 0 min 0,000 mm 0,0 UV-I 0 W/m 11,5 C 13,3 C 8,0 km/h (2 Bft) 100,00 %
23.08.2016 01:52 13,3 C 89 % 1027,6 hPa 0,0 l/m 4,8 km/h (1 Bft) S-SW 195 0 min 0,000 mm 0,0 UV-I 0 W/m 11,5 C 13,3 C 6,4 km/h (2 Bft) 100,00 %
23.08.2016 01:54 13,3 C 89 % 1027,6 hPa 0,0 l/m 4,4 km/h (1 Bft) S-SW 205 0 min 0,000 mm 0,0 UV-I 0 W/m 11,5 C 13,3 C 6,4 km/h (2 Bft) 98,11 %
23.08.2016 01:56 13,3 C 89 % 1027,6 hPa 0,0 l/m 5,4 km/h (1 Bft) S-SW 208 0 min 0,000 mm 0,0 UV-I 0 W/m 11,5 C 13,3 C 8,0 km/h (2 Bft) 100,00 %
23.08.2016 01:58 13,2 C 89 % 1027,6 hPa 0,0 l/m 4,7 km/h (1 Bft) S-SW 199 0 min 0,000 mm 0,0 UV-I 0 W/m 11,4 C 13,2 C 6,4 km/h (2 Bft) 100,00 %
23.08.2016 02:00 13,2 C 89 % 1027,5 hPa 0,0 l/m 5,5 km/h (1 Bft) S 190 0 min 0,000 mm 0,0 UV-I 0 W/m 11,4 C 13,2 C 8,0 km/h (2 Bft) 100,00 %
23.08.2016 02:02 13,2 C 89 % 1027,5 hPa 0,0 l/m 5,7 km/h (1 Bft) S-SW 200 0 min 0,000 mm 0,0 UV-I 0 W/m 11,4 C 13,2 C 8,0 km/h (2 Bft) 100,00 %
23.08.2016 02:04 13,2 C 89 % 1027,5 hPa 0,0 l/m 4,8 km/h (1 Bft) S-SW 207 0 min 0,000 mm 0,0 UV-I 0 W/m 11,4 C 13,2 C 8,0 km/h (2 Bft) 98,11 %
23.08.2016 02:06 13,2 C 89 % 1027,4 hPa 0,0 l/m 5,0 km/h (1 Bft) S-SW 196 0 min 0,000 mm 0,0 UV-I 0 W/m 11,4 C 13,2 C 6,4 km/h (2 Bft) 100,00 %
23.08.2016 02:08 13,2 C 89 % 1027,4 hPa 0,0 l/m 4,9 km/h (1 Bft) S-SW 202 0 min 0,000 mm 0,0 UV-I 0 W/m 11,4 C 13,2 C 6,4 km/h (2 Bft) 98,00 %
23.08.2016 02:10 13,2 C 89 % 1027,4 hPa 0,0 l/m 6,2 km/h (2 Bft) S-SW 196 0 min 0,000 mm 0,0 UV-I 0 W/m 11,4 C 13,2 C 8,0 km/h (2 Bft) 100,00 %
23.08.2016 02:12 13,2 C 89 % 1027,4 hPa 0,0 l/m 5,3 km/h (1 Bft) S-SW 198 0 min 0,000 mm 0,0 UV-I 0 W/m 11,4 C 13,2 C 8,0 km/h (2 Bft) 100,00 %
23.08.2016 02:14 13,2 C 89 % 1027,4 hPa 0,0 l/m 5,0 km/h (1 Bft) S-SW 201 0 min 0,000 mm 0,0 UV-I 0 W/m 11,4 C 13,2 C 6,4 km/h (2 Bft) 98,11 %
23.08.2016 02:16 13,1 C 90 % 1027,4 hPa 0,0 l/m 5,0 km/h (1 Bft) S-SW 210 0 min 0,000 mm 0,0 UV-I 0 W/m 11,5 C 13,1 C 8,0 km/h (2 Bft) 100,00 %
23.08.2016 02:18 13,1 C 90 % 1027,4 hPa 0,0 l/m 4,6 km/h (1 Bft) S-SW 213 0 min 0,000 mm 0,0 UV-I 0 W/m 11,5 C 13,1 C 6,4 km/h (2 Bft) 97,37 %
23.08.2016 02:20 13,1 C 90 % 1027,4 hPa 0,0 l/m 5,4 km/h (1 Bft) S-SW 196 0 min 0,000 mm 0,0 UV-I 0 W/m 11,5 C 13,1 C 6,4 km/h (2 Bft) 100,00 %
23.08.2016 02:22 13,1 C 90 % 1027,4 hPa 0,0 l/m 5,6 km/h (1 Bft) S-SW 198 0 min 0,000 mm 0,0 UV-I 0 W/m 11,5 C 13,1 C 8,0 km/h (2 Bft) 100,00 %
23.08.2016 02:24 13,0 C 90 % 1027,4 hPa 0,0 l/m 6,8 km/h (2 Bft) S-SW 198 0 min 0,000 mm 0,0 UV-I 0 W/m 11,4 C 12,8 C 9,7 km/h (2 Bft) 100,00 %
23.08.2016 02:26 13,0 C 90 % 1027,5 hPa 0,0 l/m 6,2 km/h (2 Bft) S 180 0 min 0,000 mm 0,0 UV-I 0 W/m 11,4 C 13,0 C 8,0 km/h (2 Bft) 100,00 %
23.08.2016 02:28 12,9 C 90 % 1027,4 hPa 0,0 l/m 5,8 km/h (2 Bft) S-SW 204 0 min 0,000 mm 0,0 UV-I 0 W/m 11,3 C 12,9 C 9,7 km/h (2 Bft) 100,00 %
23.08.2016 02:30 13,0 C 90 % 1027,5 hPa 0,0 l/m 5,6 km/h (1 Bft) S 189 0 min 0,000 mm 0,0 UV-I 0 W/m 11,4 C 13,0 C 8,0 km/h (2 Bft) 100,00 %
23.08.2016 02:32 13,0 C 90 % 1027,5 hPa 0,0 l/m 4,6 km/h (1 Bft) S-SW 213 0 min 0,000 mm 0,0 UV-I 0 W/m 11,4 C 13,0 C 8,0 km/h (2 Bft) 98,11 %
23.08.2016 02:34 12,9 C 90 % 1027,5 hPa 0,0 l/m 5,6 km/h (1 Bft) SW 227 0 min 0,000 mm 0,0 UV-I 0 W/m 11,3 C 12,9 C 8,0 km/h (2 Bft) 100,00 %
23.08.2016 02:36 12,9 C 90 % 1027,4 hPa 0,0 l/m 3,9 km/h (1 Bft) S-SW 212 0 min 0,000 mm 0,0 UV-I 0 W/m 11,3 C 12,9 C 6,4 km/h (2 Bft) 100,00 %
23.08.2016 02:38 12,9 C 90 % 1027,4 hPa 0,0 l/m 2,9 km/h (1 Bft) S-SW 212 0 min 0,000 mm 0,0 UV-I 0 W/m 11,3 C 12,9 C 4,8 km/h (1 Bft) 96,23 %
23.08.2016 02:40 12,9 C 90 % 1027,4 hPa 0,0 l/m 4,6 km/h (1 Bft) S-SW 194 0 min 0,000 mm 0,0 UV-I 0 W/m 11,3 C 12,9 C 8,0 km/h (2 Bft) 97,56 %
23.08.2016 02:42 12,9 C 90 % 1027,4 hPa 0,0 l/m 3,8 km/h (1 Bft) S-SW 205 0 min 0,000 mm 0,0 UV-I 0 W/m 11,3 C 12,9 C 6,4 km/h (2 Bft) 98,00 %
23.08.2016 02:44 12,9 C 90 % 1027,4 hPa 0,0 l/m 3,3 km/h (1 Bft) S-SW 200 0 min 0,000 mm 0,0 UV-I 0 W/m 11,3 C 12,9 C 4,8 km/h (1 Bft) 95,74 %
23.08.2016 02:46 12,9 C 90 % 1027,5 hPa 0,0 l/m 4,3 km/h (1 Bft) S 182 0 min 0,000 mm 0,0 UV-I 0 W/m 11,3 C 12,9 C 6,4 km/h (2 Bft) 98,00 %
23.08.2016 02:48 12,9 C 90 % 1027,4 hPa 0,0 l/m 3,8 km/h (1 Bft) S 188 0 min 0,000 mm 0,0 UV-I 0 W/m 11,3 C 12,9 C 6,4 km/h (2 Bft) 97,87 %
23.08.2016 02:50 12,9 C 90 % 1027,5 hPa 0,0 l/m 4,0 km/h (1 Bft) S 188 0 min 0,000 mm 0,0 UV-I 0 W/m 11,3 C 12,9 C 6,4 km/h (2 Bft) 97,22 %
23.08.2016 02:52 12,9 C 90 % 1027,5 hPa 0,0 l/m 3,9 km/h (1 Bft) S-SW 211 0 min 0,000 mm 0,0 UV-I 0 W/m 11,3 C 12,9 C 6,4 km/h (2 Bft) 96,61 %
23.08.2016 02:54 12,8 C 90 % 1027,5 hPa 0,0 l/m 3,7 km/h (1 Bft) S-SW 211 0 min 0,000 mm 0,0 UV-I 0 W/m 11,2 C 12,8 C 4,8 km/h (1 Bft) 95,92 %
23.08.2016 02:56 12,8 C 90 % 1027,5 hPa 0,0 l/m 3,6 km/h (1 Bft) S-SW 211 0 min 0,000 mm 0,0 UV-I 0 W/m 11,2 C 12,8 C 4,8 km/h (1 Bft) 97,22 %
23.08.2016 02:58 12,8 C 90 % 1027,5 hPa 0,0 l/m 3,1 km/h (1 Bft) S-SW 212 0 min 0,000 mm 0,0 UV-I 0 W/m 11,2 C 12,8 C 4,8 km/h (1 Bft) 98,00 %
23.08.2016 03:00 12,7 C 90 % 1027,5 hPa 0,0 l/m 3,7 km/h (1 Bft) S-SW 202 0 min 0,000 mm 0,0 UV-I 0 W/m 11,1 C 12,7 C 4,8 km/h (1 Bft) 98,00 %
23.08.2016 03:02 12,7 C 90 % 1027,5 hPa 0,0 l/m 3,7 km/h (1 Bft) S-SW 209 0 min 0,000 mm 0,0 UV-I 0 W/m 11,1 C 12,7 C 4,8 km/h (1 Bft) 97,44 %
23.08.2016 03:04 12,7 C 90 % 1027,4 hPa 0,0 l/m 3,5 km/h (1 Bft) S-SW 209 0 min 0,000 mm 0,0 UV-I 0 W/m 11,1 C 12,7 C 4,8 km/h (1 Bft) 98,11 %
23.08.2016 03:06 12,7 C 91 % 1027,4 hPa 0,0 l/m 2,8 km/h (1 Bft) S-SW 209 0 min 0,000 mm 0,0 UV-I 0 W/m 11,3 C 12,7 C 4,8 km/h (1 Bft) 94,34 %
23.08.2016 03:08 12,6 C 91 % 1027,4 hPa 0,0 l/m 2,1 km/h (1 Bft) S-SW 209 0 min 0,000 mm 0,0 UV-I 0 W/m 11,2 C 12,6 C 3,2 km/h (1 Bft) 97,56 %
23.08.2016 03:10 12,6 C 91 % 1027,4 hPa 0,0 l/m 1,5 km/h (1 Bft) S-SW 209 0 min 0,000 mm 0,0 UV-I 0 W/m 11,2 C 12,6 C 3,2 km/h (1 Bft) 97,87 %
23.08.2016 03:12 12,6 C 91 % 1027,4 hPa 0,0 l/m 1,2 km/h (1 Bft) S-SW 209 0 min 0,000 mm 0,0 UV-I 0 W/m 11,2 C 12,6 C 3,2 km/h (1 Bft) 100,00 %
23.08.2016 03:14 12,6 C 91 % 1027,5 hPa 0,0 l/m 2,4 km/h (1 Bft) S-SW 209 0 min 0,000 mm 0,0 UV-I 0 W/m 11,2 C 12,6 C 3,2 km/h (1 Bft) 97,87 %
23.08.2016 03:16 12,5 C 91 % 1027,4 hPa 0,0 l/m 1,9 km/h (1 Bft) S-SW 209 0 min 0,000 mm 0,0 UV-I 0 W/m 11,1 C 12,5 C 3,2 km/h (1 Bft) 100,00 %
23.08.2016 03:18 12,5 C 91 % 1027,5 hPa 0,0 l/m 2,1 km/h (1 Bft) S-SW 209 0 min 0,000 mm 0,0 UV-I 0 W/m 11,1 C 12,5 C 3,2 km/h (1 Bft) 100,00 %
23.08.2016 03:20 12,4 C 91 % 1027,4 hPa 0,0 l/m 2,4 km/h (1 Bft) S-SW 209 0 min 0,000 mm 0,0 UV-I 0 W/m 11,0 C 12,4 C 3,2 km/h (1 Bft) 100,00 %
23.08.2016 03:22 12,3 C 91 % 1027,4 hPa 0,0 l/m 1,6 km/h (1 Bft) S-SW 209 0 min 0,000 mm 0,0 UV-I 0 W/m 10,9 C 12,3 C 3,2 km/h (1 Bft) 100,00 %
23.08.2016 03:24 12,3 C 91 % 1027,4 hPa 0,0 l/m 2,0 km/h (1 Bft) S-SW 209 0 min 0,000 mm 0,0 UV-I 0 W/m 10,9 C 12,3 C 3,2 km/h (1 Bft) 100,00 %
23.08.2016 03:26 12,2 C 92 % 1027,4 hPa 0,0 l/m 2,0 km/h (1 Bft) S-SW 209 0 min 0,000 mm 0,0 UV-I 0 W/m 10,9 C 12,2 C 3,2 km/h (1 Bft) 97,87 %
23.08.2016 03:28 12,2 C 92 % 1027,4 hPa 0,0 l/m 2,1 km/h (1 Bft) S-SW 209 0 min 0,000 mm 0,0 UV-I 0 W/m 10,9 C 12,2 C 3,2 km/h (1 Bft) 100,00 %
23.08.2016 03:30 12,2 C 92 % 1027,4 hPa 0,0 l/m 2,7 km/h (1 Bft) S 186 0 min 0,000 mm 0,0 UV-I 0 W/m 10,9 C 12,2 C 4,8 km/h (1 Bft) 100,00 %
23.08.2016 03:32 12,2 C 92 % 1027,4 hPa 0,0 l/m 2,0 km/h (1 Bft) S 186 0 min 0,000 mm 0,0 UV-I 0 W/m 10,9 C 12,2 C 3,2 km/h (1 Bft) 100,00 %
23.08.2016 03:34 12,1 C 92 % 1027,4 hPa 0,0 l/m 2,3 km/h (1 Bft) S 186 0 min 0,000 mm 0,0 UV-I 0 W/m 10,8 C 12,1 C 4,8 km/h (1 Bft) 100,00 %
23.08.2016 03:36 12,1 C 92 % 1027,4 hPa 0,0 l/m 1,4 km/h (1 Bft) S 186 0 min 0,000 mm 0,0 UV-I 0 W/m 10,8 C 12,1 C 3,2 km/h (1 Bft) 100,00 %
23.08.2016 03:38 12,0 C 92 % 1027,4 hPa 0,0 l/m 2,2 km/h (1 Bft) S 186 0 min 0,000 mm 0,0 UV-I 0 W/m 10,7 C 12,0 C 3,2 km/h (1 Bft) 100,00 %
23.08.2016 03:40 12,0 C 93 % 1027,3 hPa 0,0 l/m 2,2 km/h (1 Bft) S 186 0 min 0,000 mm 0,0 UV-I 0 W/m 10,9 C 12,0 C 3,2 km/h (1 Bft) 97,37 %
23.08.2016 03:42 12,0 C 92 % 1027,3 hPa 0,0 l/m 2,0 km/h (1 Bft) S 186 0 min 0,000 mm 0,0 UV-I 0 W/m 10,7 C 12,0 C 3,2 km/h (1 Bft) 98,00 %
23.08.2016 03:44 12,0 C 92 % 1027,4 hPa 0,0 l/m 0,9 km/h (0 Bft) S 186 0 min 0,000 mm 0,0 UV-I 0 W/m 10,7 C 12,0 C 3,2 km/h (1 Bft) 97,87 %
23.08.2016 03:46 11,9 C 93 % 1027,4 hPa 0,0 l/m 0,0 km/h (0 Bft) S 186 0 min 0,000 mm 0,0 UV-I 0 W/m 10,8 C 11,9 C 0,0 km/h (0 Bft) 100,00 %
23.08.2016 03:48 11,9 C 93 % 1027,4 hPa 0,0 l/m 0,4 km/h (0 Bft) S 186 0 min 0,000 mm 0,0 UV-I 0 W/m 10,8 C 11,9 C 1,6 km/h (1 Bft) 100,00 %
23.08.2016 03:50 11,9 C 93 % 1027,4 hPa 0,0 l/m 0,9 km/h (0 Bft) S 186 0 min 0,000 mm 0,0 UV-I 0 W/m 10,8 C 11,9 C 1,6 km/h (1 Bft) 97,87 %
23.08.2016 03:52 11,9 C 93 % 1027,3 hPa 0,0 l/m 0,9 km/h (0 Bft) S 186 0 min 0,000 mm 0,0 UV-I 0 W/m 10,8 C 11,9 C 3,2 km/h (1 Bft) 98,00 %
23.08.2016 03:54 11,8 C 93 % 1027,3 hPa 0,0 l/m 2,7 km/h (1 Bft) S 186 0 min 0,000 mm 0,0 UV-I 0 W/m 10,7 C 11,8 C 4,8 km/h (1 Bft) 100,00 %
23.08.2016 03:56 11,8 C 93 % 1027,2 hPa 0,0 l/m 3,8 km/h (1 Bft) S 186 0 min 0,000 mm 0,0 UV-I 0 W/m 10,7 C 11,8 C 4,8 km/h (1 Bft) 98,00 %
23.08.2016 03:58 11,8 C 93 % 1027,2 hPa 0,0 l/m 2,8 km/h (1 Bft) S 186 0 min 0,000 mm 0,0 UV-I 0 W/m 10,7 C 11,8 C 4,8 km/h (1 Bft) 100,00 %
23.08.2016 04:00 11,8 C 93 % 1027,2 hPa 0,0 l/m 1,7 km/h (1 Bft) S 186 0 min 0,000 mm 0,0 UV-I 0 W/m 10,7 C 11,8 C 3,2 km/h (1 Bft) 100,00 %
23.08.2016 04:02 11,8 C 93 % 1027,2 hPa 0,0 l/m 1,7 km/h (1 Bft) S 186 0 min 0,000 mm 0,0 UV-I 0 W/m 10,7 C 11,8 C 4,8 km/h (1 Bft) 96,88 %
23.08.2016 04:04 11,7 C 93 % 1027,2 hPa 0,0 l/m 1,4 km/h (1 Bft) S 186 0 min 0,000 mm 0,0 UV-I 0 W/m 10,6 C 11,7 C 3,2 km/h (1 Bft) 97,87 %
23.08.2016 04:06 11,7 C 93 % 1027,2 hPa 0,0 l/m 1,6 km/h (1 Bft) S 186 0 min 0,000 mm 0,0 UV-I 0 W/m 10,6 C 11,7 C 3,2 km/h (1 Bft) 100,00 %
23.08.2016 04:08 11,7 C 93 % 1027,2 hPa 0,0 l/m 1,4 km/h (1 Bft) S 186 0 min 0,000 mm 0,0 UV-I 0 W/m 10,6 C 11,7 C 3,2 km/h (1 Bft) 100,00 %
23.08.2016 04:10 11,6 C 94 % 1027,2 hPa 0,0 l/m 1,1 km/h (1 Bft) S 186 0 min 0,000 mm 0,0 UV-I 0 W/m 10,7 C 11,6 C 3,2 km/h (1 Bft) 98,00 %
23.08.2016 04:12 11,6 C 94 % 1027,3 hPa 0,0 l/m 2,2 km/h (1 Bft) S 186 0 min 0,000 mm 0,0 UV-I 0 W/m 10,7 C 11,6 C 4,8 km/h (1 Bft) 100,00 %
23.08.2016 04:14 11,7 C 94 % 1027,2 hPa 0,0 l/m 2,8 km/h (1 Bft) S 186 0 min 0,000 mm 0,0 UV-I 0 W/m 10,8 C 11,7 C 4,8 km/h (1 Bft) 100,00 %
23.08.2016 04:16 11,8 C 94 % 1027,2 hPa 0,0 l/m 3,7 km/h (1 Bft) S 186 0 min 0,000 mm 0,0 UV-I 0 W/m 10,9 C 11,8 C 6,4 km/h (2 Bft) 97,87 %
23.08.2016 04:18 11,8 C 94 % 1027,2 hPa 0,0 l/m 3,7 km/h (1 Bft) S 186 0 min 0,000 mm 0,0 UV-I 0 W/m 10,9 C 11,8 C 4,8 km/h (1 Bft) 100,00 %
23.08.2016 04:20 11,8 C 93 % 1027,3 hPa 0,0 l/m 3,1 km/h (1 Bft) S-SW 194 0 min 0,000 mm 0,0 UV-I 0 W/m 10,7 C 11,8 C 4,8 km/h (1 Bft) 100,00 %
23.08.2016 04:22 11,8 C 93 % 1027,3 hPa 0,0 l/m 2,6 km/h (1 Bft) S-SW 197 0 min 0,000 mm 0,0 UV-I 0 W/m 10,7 C 11,8 C 4,8 km/h (1 Bft) 100,00 %
23.08.2016 04:24 11,8 C 93 % 1027,3 hPa 0,0 l/m 2,7 km/h (1 Bft) S-SW 197 0 min 0,000 mm 0,0 UV-I 0 W/m 10,7 C 11,8 C 4,8 km/h (1 Bft) 100,00 %
23.08.2016 04:26 11,8 C 93 % 1027,3 hPa 0,0 l/m 3,6 km/h (1 Bft) S-SW 197 0 min 0,000 mm 0,0 UV-I 0 W/m 10,7 C 11,8 C 4,8 km/h (1 Bft) 100,00 %
23.08.2016 04:28 11,8 C 94 % 1027,3 hPa 0,0 l/m 3,6 km/h (1 Bft) S-SW 197 0 min 0,000 mm 0,0 UV-I 0 W/m 10,9 C 11,8 C 4,8 km/h (1 Bft) 97,87 %
23.08.2016 04:30 11,8 C 93 % 1027,3 hPa 0,0 l/m 3,1 km/h (1 Bft) S-SW 197 0 min 0,000 mm 0,0 UV-I 0 W/m 10,7 C 11,8 C 4,8 km/h (1 Bft) 97,87 %
23.08.2016 04:32 11,8 C 93 % 1027,3 hPa 0,0 l/m 2,5 km/h (1 Bft) S-SW 197 0 min 0,000 mm 0,0 UV-I 0 W/m 10,7 C 11,8 C 4,8 km/h (1 Bft) 100,00 %
23.08.2016 04:34 11,8 C 93 % 1027,3 hPa 0,0 l/m 2,9 km/h (1 Bft) S-SW 197 0 min 0,000 mm 0,0 UV-I 0 W/m 10,7 C 11,8 C 3,2 km/h (1 Bft) 98,46 %
23.08.2016 04:36 11,8 C 93 % 1027,2 hPa 0,0 l/m 3,9 km/h (1 Bft) S-SW 197 0 min 0,000 mm 0,0 UV-I 0 W/m 10,7 C 11,8 C 4,8 km/h (1 Bft) 94,00 %
23.08.2016 04:38 11,8 C 94 % 1027,3 hPa 0,0 l/m 4,2 km/h (1 Bft) S-SW 200 0 min 0,000 mm 0,0 UV-I 0 W/m 10,9 C 11,8 C 6,4 km/h (2 Bft) 97,37 %
23.08.2016 04:40 11,8 C 93 % 1027,2 hPa 0,0 l/m 2,1 km/h (1 Bft) S-SW 198 0 min 0,000 mm 0,0 UV-I 0 W/m 10,7 C 11,8 C 3,2 km/h (1 Bft) 97,87 %
23.08.2016 04:42 11,7 C 93 % 1027,3 hPa 0,0 l/m 1,7 km/h (1 Bft) S-SW 198 0 min 0,000 mm 0,0 UV-I 0 W/m 10,6 C 11,7 C 4,8 km/h (1 Bft) 97,87 %
23.08.2016 04:44 11,7 C 93 % 1027,2 hPa 0,0 l/m 1,1 km/h (1 Bft) S-SW 198 0 min 0,000 mm 0,0 UV-I 0 W/m 10,6 C 11,7 C 3,2 km/h (1 Bft) 97,87 %
23.08.2016 04:46 11,7 C 94 % 1027,2 hPa 0,0 l/m 1,1 km/h (1 Bft) S 188 0 min 0,000 mm 0,0 UV-I 0 W/m 10,8 C 11,7 C 1,6 km/h (1 Bft) 98,11 %
23.08.2016 04:48 11,6 C 94 % 1027,2 hPa 0,0 l/m 1,1 km/h (1 Bft) S 188 0 min 0,000 mm 0,0 UV-I 0 W/m 10,7 C 11,6 C 3,2 km/h (1 Bft) 94,87 %
23.08.2016 04:50 11,6 C 94 % 1027,2 hPa 0,0 l/m 1,8 km/h (1 Bft) S 188 0 min 0,000 mm 0,0 UV-I 0 W/m 10,7 C 11,6 C 4,8 km/h (1 Bft) 98,00 %
23.08.2016 04:52 11,7 C 94 % 1027,2 hPa 0,0 l/m 1,0 km/h (0 Bft) S 188 0 min 0,000 mm 0,0 UV-I 0 W/m 10,8 C 11,7 C 1,6 km/h (1 Bft) 97,87 %
23.08.2016 04:54 11,7 C 94 % 1027,3 hPa 0,0 l/m 1,9 km/h (1 Bft) S 188 0 min 0,000 mm 0,0 UV-I 0 W/m 10,8 C 11,7 C 3,2 km/h (1 Bft) 95,74 %
23.08.2016 04:56 11,7 C 94 % 1027,3 hPa 0,0 l/m 1,5 km/h (1 Bft) S 188 0 min 0,000 mm 0,0 UV-I 0 W/m 10,8 C 11,7 C 3,2 km/h (1 Bft) 95,74 %
23.08.2016 04:58 11,7 C 94 % 1027,3 hPa 0,0 l/m 1,9 km/h (1 Bft) S 188 0 min 0,000 mm 0,0 UV-I 0 W/m 10,8 C 11,7 C 3,2 km/h (1 Bft) 98,11 %
23.08.2016 05:00 11,7 C 94 % 1027,3 hPa 0,0 l/m 2,0 km/h (1 Bft) S 188 0 min 0,000 mm 0,0 UV-I 0 W/m 10,8 C 11,7 C 3,2 km/h (1 Bft) 97,56 %
23.08.2016 05:02 11,7 C 94 % 1027,3 hPa 0,0 l/m 3,0 km/h (1 Bft) S-SW 192 0 min 0,000 mm 0,0 UV-I 0 W/m 10,8 C 11,7 C 4,8 km/h (1 Bft) 98,00 %
23.08.2016 05:04 11,7 C 94 % 1027,3 hPa 0,0 l/m 3,9 km/h (1 Bft) SW 214 0 min 0,000 mm 0,0 UV-I 0 W/m 10,8 C 11,7 C 6,4 km/h (2 Bft) 98,00 %
23.08.2016 05:06 11,7 C 94 % 1027,4 hPa 0,0 l/m 4,0 km/h (1 Bft) SW 217 0 min 0,000 mm 0,0 UV-I 0 W/m 10,8 C 11,7 C 4,8 km/h (1 Bft) 97,14 %
23.08.2016 05:08 11,6 C 94 % 1027,4 hPa 0,0 l/m 3,8 km/h (1 Bft) SW 217 0 min 0,000 mm 0,0 UV-I 0 W/m 10,7 C 11,6 C 4,8 km/h (1 Bft) 98,00 %
23.08.2016 05:10 11,6 C 93 % 1027,4 hPa 0,0 l/m 3,5 km/h (1 Bft) SW 217 0 min 0,000 mm 0,0 UV-I 0 W/m 10,5 C 11,6 C 4,8 km/h (1 Bft) 97,87 %
23.08.2016 05:12 11,6 C 94 % 1027,4 hPa 0,0 l/m 3,2 km/h (1 Bft) S-SW 213 0 min 0,000 mm 0,0 UV-I 0 W/m 10,7 C 11,6 C 4,8 km/h (1 Bft) 98,11 %
23.08.2016 05:14 11,5 C 94 % 1027,4 hPa 0,0 l/m 2,0 km/h (1 Bft) S-SW 213 0 min 0,000 mm 0,0 UV-I 0 W/m 10,6 C 11,5 C 3,2 km/h (1 Bft) 100,00 %
23.08.2016 05:16 11,4 C 94 % 1027,3 hPa 0,0 l/m 1,3 km/h (1 Bft) S-SW 196 0 min 0,000 mm 0,0 UV-I 0 W/m 10,5 C 11,4 C 3,2 km/h (1 Bft) 100,00 %
23.08.2016 05:18 11,4 C 94 % 1027,3 hPa 0,0 l/m 1,6 km/h (1 Bft) S-SW 196 0 min 0,000 mm 0,0 UV-I 0 W/m 10,5 C 11,4 C 3,2 km/h (1 Bft) 100,00 %
23.08.2016 05:20 11,4 C 94 % 1027,2 hPa 0,0 l/m 1,3 km/h (1 Bft) S-SW 196 0 min 0,000 mm 0,0 UV-I 0 W/m 10,5 C 11,4 C 3,2 km/h (1 Bft) 98,00 %
23.08.2016 05:22 11,4 C 94 % 1027,3 hPa 0,0 l/m 1,5 km/h (1 Bft) S-SW 196 0 min 0,000 mm 0,0 UV-I 0 W/m 10,5 C 11,4 C 3,2 km/h (1 Bft) 97,37 %
23.08.2016 05:24 11,4 C 94 % 1027,3 hPa 0,0 l/m 2,2 km/h (1 Bft) S-SW 196 0 min 0,000 mm 0,0 UV-I 0 W/m 10,5 C 11,4 C 3,2 km/h (1 Bft) 100,00 %
23.08.2016 05:26 11,4 C 94 % 1027,3 hPa 0,0 l/m 2,0 km/h (1 Bft) S-SW 196 0 min 0,000 mm 0,0 UV-I 0 W/m 10,5 C 11,4 C 4,8 km/h (1 Bft) 97,87 %
23.08.2016 05:28 11,4 C 94 % 1027,3 hPa 0,0 l/m 2,4 km/h (1 Bft) S-SW 196 0 min 0,000 mm 0,0 UV-I 0 W/m 10,5 C 11,4 C 4,8 km/h (1 Bft) 100,00 %
23.08.2016 05:30 11,4 C 94 % 1027,3 hPa 0,0 l/m 2,5 km/h (1 Bft) S-SW 196 0 min 0,000 mm 0,0 UV-I 0 W/m 10,5 C 11,4 C 3,2 km/h (1 Bft) 100,00 %
23.08.2016 05:32 11,5 C 94 % 1027,3 hPa 0,0 l/m 2,7 km/h (1 Bft) S-SW 196 0 min 0,000 mm 0,0 UV-I 0 W/m 10,6 C 11,5 C 4,8 km/h (1 Bft) 100,00 %
23.08.2016 05:34 11,6 C 94 % 1027,3 hPa 0,0 l/m 2,1 km/h (1 Bft) S-SW 196 0 min 0,000 mm 0,0 UV-I 0 W/m 10,7 C 11,6 C 3,2 km/h (1 Bft) 100,00 %
23.08.2016 05:36 11,6 C 94 % 1027,3 hPa 0,0 l/m 2,3 km/h (1 Bft) S-SW 196 0 min 0,000 mm 0,0 UV-I 0 W/m 10,7 C 11,6 C 3,2 km/h (1 Bft) 100,00 %
23.08.2016 05:38 11,6 C 94 % 1027,4 hPa 0,0 l/m 2,3 km/h (1 Bft) S-SW 196 0 min 0,000 mm 0,0 UV-I 0 W/m 10,7 C 11,6 C 3,2 km/h (1 Bft) 100,00 %
23.08.2016 05:40 11,7 C 94 % 1027,4 hPa 0,0 l/m 1,5 km/h (1 Bft) S-SW 196 0 min 0,000 mm 0,0 UV-I 0 W/m 10,8 C 11,7 C 3,2 km/h (1 Bft) 100,00 %
23.08.2016 05:42 11,7 C 94 % 1027,5 hPa 0,0 l/m 0,7 km/h (0 Bft) S-SW 196 0 min 0,000 mm 0,0 UV-I 0 W/m 10,8 C 11,7 C 1,6 km/h (1 Bft) 97,87 %
23.08.2016 05:44 11,7 C 94 % 1027,5 hPa 0,0 l/m 1,1 km/h (1 Bft) S-SW 196 0 min 0,000 mm 0,0 UV-I 0 W/m 10,8 C 11,7 C 1,6 km/h (1 Bft) 100,00 %
23.08.2016 05:46 11,6 C 94 % 1027,5 hPa 0,0 l/m 0,5 km/h (0 Bft) S-SW 196 0 min 0,000 mm 0,0 UV-I 0 W/m 10,7 C 11,6 C 1,6 km/h (1 Bft) 100,00 %
23.08.2016 05:48 11,6 C 94 % 1027,4 hPa 0,0 l/m 1,0 km/h (0 Bft) S-SW 196 0 min 0,000 mm 0,0 UV-I 0 W/m 10,7 C 11,6 C 3,2 km/h (1 Bft) 98,00 %
23.08.2016 05:50 11,6 C 94 % 1027,5 hPa 0,0 l/m 2,5 km/h (1 Bft) S-SW 196 0 min 0,000 mm 0,0 UV-I 0 W/m 10,7 C 11,6 C 4,8 km/h (1 Bft) 100,00 %
23.08.2016 05:52 11,6 C 94 % 1027,4 hPa 0,0 l/m 2,2 km/h (1 Bft) S-SW 196 0 min 0,000 mm 0,0 UV-I 0 W/m 10,7 C 11,6 C 3,2 km/h (1 Bft) 100,00 %
23.08.2016 05:54 11,7 C 94 % 1027,4 hPa 0,0 l/m 2,4 km/h (1 Bft) S-SW 196 0 min 0,000 mm 0,0 UV-I 0 W/m 10,8 C 11,7 C 3,2 km/h (1 Bft) 97,87 %
23.08.2016 05:56 11,7 C 94 % 1027,4 hPa 0,0 l/m 2,3 km/h (1 Bft) S-SW 196 0 min 0,000 mm 0,0 UV-I 0 W/m 10,8 C 11,7 C 4,8 km/h (1 Bft) 98,00 %
23.08.2016 05:58 11,7 C 94 % 1027,4 hPa 0,0 l/m 1,3 km/h (1 Bft) S-SW 196 0 min 0,000 mm 0,0 UV-I 0 W/m 10,8 C 11,7 C 3,2 km/h (1 Bft) 97,87 %
23.08.2016 06:00 11,7 C 94 % 1027,4 hPa 0,0 l/m 2,9 km/h (1 Bft) S-SW 196 0 min 0,000 mm 0,0 UV-I 0 W/m 10,8 C 11,7 C 4,8 km/h (1 Bft) 98,11 %
23.08.2016 06:02 11,7 C 94 % 1027,4 hPa 0,0 l/m 2,8 km/h (1 Bft) S-SW 196 0 min 0,000 mm 0,0 UV-I 0 W/m 10,8 C 11,7 C 4,8 km/h (1 Bft) 100,00 %
23.08.2016 06:04 11,6 C 94 % 1027,5 hPa 0,0 l/m 2,8 km/h (1 Bft) S-SW 196 0 min 0,000 mm 0,0 UV-I 0 W/m 10,7 C 11,6 C 4,8 km/h (1 Bft) 100,00 %
23.08.2016 06:06 11,6 C 94 % 1027,5 hPa 0,0 l/m 2,8 km/h (1 Bft) S-SW 196 0 min 0,000 mm 0,0 UV-I 0 W/m 10,7 C 11,6 C 4,8 km/h (1 Bft) 100,00 %
23.08.2016 06:08 11,6 C 94 % 1027,5 hPa 0,0 l/m 3,2 km/h (1 Bft) S-SW 196 0 min 0,000 mm 0,0 UV-I 1 W/m 10,7 C 11,6 C 4,8 km/h (1 Bft) 100,00 %
23.08.2016 06:10 11,6 C 94 % 1027,5 hPa 0,0 l/m 1,9 km/h (1 Bft) S-SW 196 0 min 0,000 mm 0,0 UV-I 5 W/m 10,7 C 11,6 C 3,2 km/h (1 Bft) 100,00 %
23.08.2016 06:12 11,6 C 94 % 1027,6 hPa 0,0 l/m 3,1 km/h (1 Bft) S-SW 196 0 min 0,000 mm 0,0 UV-I 5 W/m 10,7 C 11,6 C 4,8 km/h (1 Bft) 100,00 %
23.08.2016 06:14 11,6 C 94 % 1027,6 hPa 0,0 l/m 3,4 km/h (1 Bft) S-SW 196 0 min 0,000 mm 0,0 UV-I 7 W/m 10,7 C 11,6 C 4,8 km/h (1 Bft) 100,00 %
23.08.2016 06:16 11,6 C 94 % 1027,6 hPa 0,0 l/m 3,6 km/h (1 Bft) S-SW 196 0 min 0,000 mm 0,0 UV-I 7 W/m 10,7 C 11,6 C 4,8 km/h (1 Bft) 97,87 %
23.08.2016 06:18 11,7 C 94 % 1027,5 hPa 0,0 l/m 3,0 km/h (1 Bft) S-SW 196 0 min 0,000 mm 0,0 UV-I 8 W/m 10,8 C 11,7 C 4,8 km/h (1 Bft) 96,00 %
23.08.2016 06:20 11,7 C 94 % 1027,5 hPa 0,0 l/m 3,4 km/h (1 Bft) S-SW 196 2 min 0,000 mm 0,0 UV-I 9 W/m 10,8 C 11,7 C 4,8 km/h (1 Bft) 100,00 %
23.08.2016 06:22 11,7 C 94 % 1027,5 hPa 0,0 l/m 3,2 km/h (1 Bft) S-SW 196 0 min 0,000 mm 0,0 UV-I 11 W/m 10,8 C 11,7 C 4,8 km/h (1 Bft) 97,37 %
23.08.2016 06:24 11,7 C 94 % 1027,5 hPa 0,0 l/m 3,2 km/h (1 Bft) S-SW 196 0 min 0,000 mm 0,0 UV-I 11 W/m 10,8 C 11,7 C 4,8 km/h (1 Bft) 100,00 %
23.08.2016 06:26 11,6 C 94 % 1027,5 hPa 0,0 l/m 2,5 km/h (1 Bft) S-SW 196 0 min 0,000 mm 0,0 UV-I 12 W/m 10,7 C 11,6 C 4,8 km/h (1 Bft) 97,87 %
23.08.2016 06:28 11,6 C 94 % 1027,6 hPa 0,0 l/m 2,2 km/h (1 Bft) S-SW 196 0 min 0,000 mm 0,0 UV-I 12 W/m 10,7 C 11,6 C 4,8 km/h (1 Bft) 100,00 %
23.08.2016 06:30 11,6 C 94 % 1027,6 hPa 0,0 l/m 3,0 km/h (1 Bft) S-SW 196 0 min 0,000 mm 0,0 UV-I 14 W/m 10,7 C 11,6 C 6,4 km/h (2 Bft) 98,00 %
23.08.2016 06:32 11,7 C 94 % 1027,6 hPa 0,0 l/m 3,3 km/h (1 Bft) S-SW 196 0 min 0,000 mm 0,0 UV-I 15 W/m 10,8 C 11,7 C 4,8 km/h (1 Bft) 100,00 %
23.08.2016 06:34 11,7 C 94 % 1027,6 hPa 0,0 l/m 3,0 km/h (1 Bft) S-SW 196 0 min 0,000 mm 0,0 UV-I 16 W/m 10,8 C 11,7 C 4,8 km/h (1 Bft) 100,00 %
23.08.2016 06:36 11,8 C 94 % 1027,6 hPa 0,0 l/m 2,5 km/h (1 Bft) S-SW 196 0 min 0,000 mm 0,0 UV-I 16 W/m 10,9 C 11,8 C 4,8 km/h (1 Bft) 100,00 %
23.08.2016 06:38 11,8 C 94 % 1027,6 hPa 0,0 l/m 3,3 km/h (1 Bft) S-SW 196 0 min 0,000 mm 0,0 UV-I 18 W/m 10,9 C 11,8 C 4,8 km/h (1 Bft) 100,00 %
23.08.2016 06:40 11,9 C 94 % 1027,6 hPa 0,0 l/m 2,8 km/h (1 Bft) S-SW 196 0 min 0,000 mm 0,0 UV-I 18 W/m 11,0 C 11,9 C 4,8 km/h (1 Bft) 98,00 %
23.08.2016 06:42 11,9 C 94 % 1027,6 hPa 0,0 l/m 2,5 km/h (1 Bft) S-SW 196 0 min 0,000 mm 0,0 UV-I 19 W/m 11,0 C 11,9 C 4,8 km/h (1 Bft) 98,04 %
23.08.2016 06:44 11,9 C 94 % 1027,7 hPa 0,0 l/m 3,0 km/h (1 Bft) S-SW 196 0 min 0,000 mm 0,0 UV-I 19 W/m 11,0 C 11,9 C 4,8 km/h (1 Bft) 97,22 %
23.08.2016 06:46 12,0 C 94 % 1027,7 hPa 0,0 l/m 3,5 km/h (1 Bft) S-SW 196 0 min 0,000 mm 0,0 UV-I 21 W/m 11,1 C 12,0 C 4,8 km/h (1 Bft) 98,11 %
23.08.2016 06:48 12,0 C 94 % 1027,7 hPa 0,0 l/m 3,5 km/h (1 Bft) S-SW 196 0 min 0,000 mm 0,0 UV-I 22 W/m 11,1 C 12,0 C 4,8 km/h (1 Bft) 97,73 %
23.08.2016 06:50 12,1 C 94 % 1027,7 hPa 0,0 l/m 4,0 km/h (1 Bft) S 190 0 min 0,000 mm 0,0 UV-I 23 W/m 11,2 C 12,1 C 6,4 km/h (2 Bft) 98,00 %
23.08.2016 06:52 12,1 C 93 % 1027,8 hPa 0,0 l/m 3,2 km/h (1 Bft) S 190 0 min 0,000 mm 0,0 UV-I 24 W/m 11,0 C 12,1 C 4,8 km/h (1 Bft) 98,00 %
23.08.2016 06:54 12,1 C 93 % 1027,7 hPa 0,0 l/m 2,6 km/h (1 Bft) S 188 0 min 0,000 mm 0,0 UV-I 25 W/m 11,0 C 12,1 C 4,8 km/h (1 Bft) 95,74 %
23.08.2016 06:56 12,1 C 93 % 1027,8 hPa 0,0 l/m 3,7 km/h (1 Bft) S 184 0 min 0,000 mm 0,0 UV-I 25 W/m 11,0 C 12,1 C 4,8 km/h (1 Bft) 100,00 %
23.08.2016 06:58 12,2 C 93 % 1027,9 hPa 0,0 l/m 3,3 km/h (1 Bft) S 184 0 min 0,000 mm 0,0 UV-I 26 W/m 11,1 C 12,2 C 4,8 km/h (1 Bft) 97,56 %
23.08.2016 07:00 12,2 C 93 % 1027,8 hPa 0,0 l/m 2,1 km/h (1 Bft) S 184 0 min 0,000 mm 0,0 UV-I 27 W/m 11,1 C 12,2 C 3,2 km/h (1 Bft) 96,43 %
23.08.2016 07:02 12,2 C 94 % 1027,9 hPa 0,0 l/m 2,4 km/h (1 Bft) S 184 0 min 0,000 mm 0,0 UV-I 28 W/m 11,3 C 12,2 C 4,8 km/h (1 Bft) 97,78 %
23.08.2016 07:04 12,3 C 94 % 1027,9 hPa 0,0 l/m 2,2 km/h (1 Bft) S 184 0 min 0,000 mm 0,0 UV-I 28 W/m 11,4 C 12,3 C 4,8 km/h (1 Bft) 98,11 %
23.08.2016 07:06 12,3 C 93 % 1027,9 hPa 0,0 l/m 2,5 km/h (1 Bft) S 184 0 min 0,000 mm 0,0 UV-I 30 W/m 11,2 C 12,3 C 6,4 km/h (2 Bft) 94,29 %
23.08.2016 07:08 12,4 C 93 % 1027,9 hPa 0,0 l/m 2,4 km/h (1 Bft) S 184 0 min 0,000 mm 0,0 UV-I 44 W/m 11,3 C 12,4 C 4,8 km/h (1 Bft) 98,11 %
23.08.2016 07:10 12,5 C 93 % 1027,9 hPa 0,0 l/m 2,2 km/h (1 Bft) S 184 0 min 0,000 mm 0,0 UV-I 76 W/m 11,4 C 12,5 C 4,8 km/h (1 Bft) 98,00 %
23.08.2016 07:12 12,6 C 93 % 1027,9 hPa 0,0 l/m 2,2 km/h (1 Bft) S 184 0 min 0,000 mm 0,0 UV-I 86 W/m 11,5 C 12,6 C 3,2 km/h (1 Bft) 96,00 %
23.08.2016 07:14 12,6 C 93 % 1027,9 hPa 0,0 l/m 3,5 km/h (1 Bft) S 184 0 min 0,000 mm 0,0 UV-I 90 W/m 11,5 C 12,6 C 4,8 km/h (1 Bft) 95,45 %
23.08.2016 07:16 12,7 C 93 % 1027,9 hPa 0,0 l/m 4,0 km/h (1 Bft) S 186 2 min 0,000 mm 0,0 UV-I 97 W/m 11,6 C 12,7 C 6,4 km/h (2 Bft) 98,00 %
23.08.2016 07:18 12,7 C 93 % 1028,0 hPa 0,0 l/m 3,1 km/h (1 Bft) S 186 2 min 0,000 mm 0,0 UV-I 102 W/m 11,6 C 12,7 C 4,8 km/h (1 Bft) 100,00 %
23.08.2016 07:20 12,8 C 93 % 1028,0 hPa 0,0 l/m 2,7 km/h (1 Bft) S 186 2 min 0,000 mm 0,0 UV-I 108 W/m 11,7 C 12,8 C 4,8 km/h (1 Bft) 100,00 %
23.08.2016 07:22 12,8 C 92 % 1028,0 hPa 0,0 l/m 2,0 km/h (1 Bft) S 186 2 min 0,000 mm 0,0 UV-I 113 W/m 11,5 C 12,8 C 4,8 km/h (1 Bft) 100,00 %
23.08.2016 07:24 12,9 C 92 % 1028,0 hPa 0,0 l/m 1,6 km/h (1 Bft) S 186 2 min 0,000 mm 0,0 UV-I 118 W/m 11,6 C 12,9 C 3,2 km/h (1 Bft) 97,87 %
23.08.2016 07:26 13,0 C 92 % 1028,0 hPa 0,0 l/m 1,1 km/h (1 Bft) S 185 2 min 0,000 mm 0,0 UV-I 124 W/m 11,7 C 13,0 C 3,2 km/h (1 Bft) 97,87 %
23.08.2016 07:28 13,1 C 92 % 1028,1 hPa 0,0 l/m 1,4 km/h (1 Bft) S 185 2 min 0,000 mm 0,0 UV-I 129 W/m 11,8 C 13,1 C 3,2 km/h (1 Bft) 100,00 %
23.08.2016 07:30 13,2 C 91 % 1028,1 hPa 0,0 l/m 2,0 km/h (1 Bft) S 185 2 min 0,000 mm 0,0 UV-I 133 W/m 11,8 C 13,2 C 3,2 km/h (1 Bft) 100,00 %
23.08.2016 07:32 13,3 C 91 % 1028,1 hPa 0,0 l/m 1,9 km/h (1 Bft) S 186 2 min 0,000 mm 0,0 UV-I 138 W/m 11,9 C 13,3 C 4,8 km/h (1 Bft) 100,00 %
23.08.2016 07:34 13,4 C 91 % 1028,1 hPa 0,0 l/m 1,8 km/h (1 Bft) S 186 2 min 0,000 mm 0,0 UV-I 143 W/m 12,0 C 13,4 C 3,2 km/h (1 Bft) 96,00 %
23.08.2016 07:36 13,5 C 91 % 1028,1 hPa 0,0 l/m 1,9 km/h (1 Bft) S 186 2 min 0,000 mm 0,0 UV-I 152 W/m 12,1 C 13,5 C 3,2 km/h (1 Bft) 100,00 %
23.08.2016 07:38 13,6 C 90 % 1028,2 hPa 0,0 l/m 1,3 km/h (1 Bft) S 186 2 min 0,000 mm 0,0 UV-I 161 W/m 12,0 C 13,6 C 3,2 km/h (1 Bft) 95,74 %
23.08.2016 07:40 13,7 C 90 % 1028,2 hPa 0,0 l/m 1,9 km/h (1 Bft) S 184 2 min 0,000 mm 0,0 UV-I 170 W/m 12,1 C 13,7 C 4,8 km/h (1 Bft) 98,21 %
23.08.2016 07:42 13,8 C 90 % 1028,2 hPa 0,0 l/m 1,2 km/h (1 Bft) S 184 2 min 0,000 mm 0,0 UV-I 171 W/m 12,2 C 13,8 C 3,2 km/h (1 Bft) 100,00 %
23.08.2016 07:44 13,9 C 90 % 1028,2 hPa 0,0 l/m 2,2 km/h (1 Bft) S 184 2 min 0,000 mm 0,0 UV-I 165 W/m 12,3 C 13,9 C 3,2 km/h (1 Bft) 100,00 %
23.08.2016 07:46 14,1 C 90 % 1028,1 hPa 0,0 l/m 2,7 km/h (1 Bft) S-SW 205 0 min 0,000 mm 0,0 UV-I 115 W/m 12,5 C 14,1 C 3,2 km/h (1 Bft) 100,00 %
23.08.2016 07:48 14,1 C 89 % 1028,2 hPa 0,0 l/m 2,6 km/h (1 Bft) S-SW 207 2 min 0,000 mm 0,0 UV-I 155 W/m 12,3 C 14,1 C 4,8 km/h (1 Bft) 97,87 %
23.08.2016 07:50 14,1 C 89 % 1028,2 hPa 0,0 l/m 3,1 km/h (1 Bft) S-SW 211 0 min 0,000 mm 0,0 UV-I 142 W/m 12,3 C 14,1 C 4,8 km/h (1 Bft) 100,00 %
23.08.2016 07:52 14,2 C 89 % 1028,2 hPa 0,0 l/m 4,4 km/h (1 Bft) SW 236 0 min 0,000 mm 0,0 UV-I 96 W/m 12,4 C 14,2 C 6,4 km/h (2 Bft) 100,00 %
23.08.2016 07:54 14,2 C 88 % 1028,2 hPa 0,0 l/m 3,6 km/h (1 Bft) S-SW 202 2 min 0,000 mm 0,0 UV-I 193 W/m 12,2 C 14,2 C 6,4 km/h (2 Bft) 97,37 %
23.08.2016 07:56 14,3 C 88 % 1028,2 hPa 0,0 l/m 4,8 km/h (1 Bft) S-SW 200 2 min 0,000 mm 0,0 UV-I 175 W/m 12,3 C 14,3 C 8,0 km/h (2 Bft) 100,00 %
23.08.2016 07:58 14,3 C 88 % 1028,2 hPa 0,0 l/m 5,3 km/h (1 Bft) SW 235 0 min 0,000 mm 0,0 UV-I 116 W/m 12,3 C 14,3 C 8,0 km/h (2 Bft) 100,00 %
23.08.2016 08:00 14,3 C 88 % 1028,3 hPa 0,0 l/m 5,0 km/h (1 Bft) SW 214 0 min 0,000 mm 0,5 UV-I 107 W/m 12,3 C 14,3 C 6,4 km/h (2 Bft) 98,11 %
23.08.2016 08:02 14,2 C 88 % 1028,3 hPa 0,0 l/m 3,4 km/h (1 Bft) S 187 0 min 0,051 mm 0,5 UV-I 101 W/m 12,2 C 14,2 C 6,4 km/h (2 Bft) 100,00 %
23.08.2016 08:04 14,2 C 88 % 1028,3 hPa 0,0 l/m 5,0 km/h (1 Bft) SW 233 0 min 0,000 mm 0,5 UV-I 104 W/m 12,2 C 14,2 C 8,0 km/h (2 Bft) 100,00 %
23.08.2016 08:06 14,2 C 89 % 1028,4 hPa 0,0 l/m 4,5 km/h (1 Bft) S 183 0 min 0,000 mm 0,5 UV-I 100 W/m 12,4 C 14,2 C 6,4 km/h (2 Bft) 100,00 %
23.08.2016 08:08 14,2 C 89 % 1028,4 hPa 0,0 l/m 5,0 km/h (1 Bft) S 186 0 min 0,000 mm 0,5 UV-I 91 W/m 12,4 C 14,2 C 8,0 km/h (2 Bft) 100,00 %
23.08.2016 08:10 14,1 C 89 % 1028,3 hPa 0,0 l/m 4,7 km/h (1 Bft) S 191 0 min 0,000 mm 0,5 UV-I 83 W/m 12,3 C 14,1 C 8,0 km/h (2 Bft) 100,00 %
23.08.2016 08:12 14,1 C 89 % 1028,3 hPa 0,0 l/m 5,0 km/h (1 Bft) S-SW 206 0 min 0,000 mm 0,5 UV-I 79 W/m 12,3 C 14,1 C 8,0 km/h (2 Bft) 100,00 %
23.08.2016 08:14 14,1 C 89 % 1028,3 hPa 0,0 l/m 5,1 km/h (1 Bft) S-SW 192 0 min 0,000 mm 0,6 UV-I 82 W/m 12,3 C 14,1 C 8,0 km/h (2 Bft) 100,00 %
23.08.2016 08:16 14,1 C 89 % 1028,3 hPa 0,0 l/m 4,7 km/h (1 Bft) SW 215 0 min 0,000 mm 0,6 UV-I 89 W/m 12,3 C 14,1 C 6,4 km/h (2 Bft) 98,11 %
23.08.2016 08:18 14,1 C 89 % 1028,3 hPa 0,0 l/m 4,9 km/h (1 Bft) S-SW 197 0 min 0,000 mm 0,6 UV-I 122 W/m 12,3 C 14,1 C 8,0 km/h (2 Bft) 100,00 %
23.08.2016 08:20 14,1 C 89 % 1028,3 hPa 0,0 l/m 3,6 km/h (1 Bft) S-SW 199 0 min 0,000 mm 0,7 UV-I 129 W/m 12,3 C 14,1 C 6,4 km/h (2 Bft) 100,00 %
23.08.2016 08:22 14,1 C 89 % 1028,3 hPa 0,0 l/m 4,3 km/h (1 Bft) SW 217 0 min 0,000 mm 0,7 UV-I 106 W/m 12,3 C 14,1 C 6,4 km/h (2 Bft) 100,00 %
23.08.2016 08:24 14,2 C 89 % 1028,3 hPa 0,0 l/m 3,4 km/h (1 Bft) SW 216 0 min 0,000 mm 0,7 UV-I 118 W/m 12,4 C 14,2 C 6,4 km/h (2 Bft) 100,00 %
23.08.2016 08:26 14,2 C 89 % 1028,3 hPa 0,0 l/m 4,6 km/h (1 Bft) S 188 0 min 0,000 mm 0,7 UV-I 102 W/m 12,4 C 14,2 C 6,4 km/h (2 Bft) 100,00 %
23.08.2016 08:28 14,2 C 88 % 1028,3 hPa 0,0 l/m 3,0 km/h (1 Bft) S 190 0 min 0,000 mm 0,7 UV-I 106 W/m 12,2 C 14,2 C 4,8 km/h (1 Bft) 98,00 %
23.08.2016 08:30 14,2 C 89 % 1028,4 hPa 0,0 l/m 2,8 km/h (1 Bft) S 190 0 min 0,000 mm 0,7 UV-I 127 W/m 12,4 C 14,2 C 4,8 km/h (1 Bft) 95,74 %
23.08.2016 08:32 14,2 C 90 % 1028,4 hPa 0,0 l/m 3,1 km/h (1 Bft) S-SW 209 0 min 0,000 mm 0,7 UV-I 137 W/m 12,6 C 14,2 C 4,8 km/h (1 Bft) 97,87 %
23.08.2016 08:34 14,3 C 89 % 1028,4 hPa 0,0 l/m 2,5 km/h (1 Bft) S-SW 209 0 min 0,000 mm 0,8 UV-I 142 W/m 12,5 C 14,3 C 4,8 km/h (1 Bft) 98,00 %
23.08.2016 08:36 14,3 C 89 % 1028,4 hPa 0,0 l/m 1,4 km/h (1 Bft) S-SW 209 0 min 0,000 mm 0,8 UV-I 146 W/m 12,5 C 14,3 C 3,2 km/h (1 Bft) 97,87 %
23.08.2016 08:38 14,4 C 88 % 1028,4 hPa 0,0 l/m 2,1 km/h (1 Bft) S-SW 209 0 min 0,000 mm 0,8 UV-I 147 W/m 12,4 C 14,4 C 3,2 km/h (1 Bft) 100,00 %
23.08.2016 08:40 14,5 C 89 % 1028,4 hPa 0,0 l/m 1,6 km/h (1 Bft) S-SW 209 0 min 0,000 mm 0,8 UV-I 153 W/m 12,7 C 14,5 C 3,2 km/h (1 Bft) 97,22 %
23.08.2016 08:42 14,6 C 88 % 1028,3 hPa 0,0 l/m 1,0 km/h (0 Bft) S-SW 209 0 min 0,000 mm 0,8 UV-I 158 W/m 12,6 C 14,6 C 3,2 km/h (1 Bft) 100,00 %
23.08.2016 08:44 14,6 C 89 % 1028,3 hPa 0,0 l/m 2,3 km/h (1 Bft) S-SW 209 0 min 0,000 mm 0,8 UV-I 158 W/m 12,8 C 14,6 C 3,2 km/h (1 Bft) 97,87 %
23.08.2016 08:46 14,7 C 88 % 1028,3 hPa 0,0 l/m 3,2 km/h (1 Bft) S-SW 207 0 min 0,000 mm 0,9 UV-I 164 W/m 12,7 C 14,7 C 4,8 km/h (1 Bft) 100,00 %
23.08.2016 08:48 14,7 C 88 % 1028,3 hPa 0,0 l/m 2,0 km/h (1 Bft) S-SW 207 0 min 0,000 mm 0,9 UV-I 169 W/m 12,7 C 14,7 C 3,2 km/h (1 Bft) 100,00 %
23.08.2016 08:50 14,8 C 88 % 1028,3 hPa 0,0 l/m 1,5 km/h (1 Bft) S-SW 207 0 min 0,000 mm 0,9 UV-I 165 W/m 12,8 C 14,8 C 3,2 km/h (1 Bft) 98,11 %
23.08.2016 08:52 14,9 C 88 % 1028,3 hPa 0,0 l/m 1,4 km/h (1 Bft) S-SW 207 0 min 0,000 mm 0,9 UV-I 162 W/m 12,9 C 14,9 C 3,2 km/h (1 Bft) 97,87 %
23.08.2016 08:54 14,9 C 89 % 1028,3 hPa 0,0 l/m 0,8 km/h (0 Bft) S-SW 207 0 min 0,000 mm 0,9 UV-I 168 W/m 13,1 C 14,9 C 1,6 km/h (1 Bft) 97,56 %
23.08.2016 08:56 14,9 C 88 % 1028,3 hPa 0,0 l/m 2,5 km/h (1 Bft) SW 219 0 min 0,000 mm 0,9 UV-I 186 W/m 12,9 C 14,9 C 4,8 km/h (1 Bft) 96,00 %
23.08.2016 08:58 15,1 C 88 % 1028,4 hPa 0,0 l/m 3,5 km/h (1 Bft) SW 228 0 min 0,000 mm 1,0 UV-I 209 W/m 13,1 C 15,1 C 4,8 km/h (1 Bft) 98,00 %
23.08.2016 09:00 15,2 C 88 % 1028,4 hPa 0,0 l/m 3,5 km/h (1 Bft) SW 229 0 min 0,076 mm 1,0 UV-I 210 W/m 13,2 C 15,2 C 4,8 km/h (1 Bft) 97,14 %
23.08.2016 09:02 15,3 C 87 % 1028,4 hPa 0,0 l/m 4,9 km/h (1 Bft) S-SW 212 0 min 0,000 mm 0,9 UV-I 198 W/m 13,1 C 15,3 C 8,0 km/h (2 Bft) 98,11 %
23.08.2016 09:04 15,3 C 86 % 1028,4 hPa 0,0 l/m 6,8 km/h (2 Bft) S 185 0 min 0,000 mm 1,0 UV-I 192 W/m 13,0 C 15,1 C 9,7 km/h (2 Bft) 97,87 %
23.08.2016 09:06 15,3 C 86 % 1028,4 hPa 0,0 l/m 6,8 km/h (2 Bft) SW 219 0 min 0,000 mm 1,0 UV-I 190 W/m 13,0 C 15,1 C 11,3 km/h (2 Bft) 98,11 %
23.08.2016 09:08 15,3 C 86 % 1028,4 hPa 0,0 l/m 5,5 km/h (1 Bft) S-SW 203 0 min 0,000 mm 1,0 UV-I 196 W/m 13,0 C 15,3 C 8,0 km/h (2 Bft) 97,73 %
23.08.2016 09:10 15,3 C 86 % 1028,4 hPa 0,0 l/m 4,8 km/h (1 Bft) SW 229 0 min 0,000 mm 1,1 UV-I 208 W/m 13,0 C 15,3 C 8,0 km/h (2 Bft) 96,00 %
23.08.2016 09:12 15,4 C 86 % 1028,4 hPa 0,0 l/m 4,4 km/h (1 Bft) SW 231 0 min 0,000 mm 1,1 UV-I 218 W/m 13,1 C 15,4 C 9,7 km/h (2 Bft) 97,37 %
23.08.2016 09:14 15,4 C 86 % 1028,4 hPa 0,0 l/m 3,6 km/h (1 Bft) S-SW 213 0 min 0,000 mm 1,2 UV-I 226 W/m 13,1 C 15,4 C 6,4 km/h (2 Bft) 96,23 %
23.08.2016 09:16 15,6 C 86 % 1028,4 hPa 0,0 l/m 4,4 km/h (1 Bft) SW 224 0 min 0,000 mm 1,2 UV-I 229 W/m 13,3 C 15,6 C 8,0 km/h (2 Bft) 97,56 %
23.08.2016 09:18 15,6 C 85 % 1028,4 hPa 0,0 l/m 6,1 km/h (2 Bft) SW 226 0 min 0,000 mm 1,3 UV-I 229 W/m 13,1 C 15,6 C 11,3 km/h (2 Bft) 100,00 %
23.08.2016 09:20 15,7 C 85 % 1028,4 hPa 0,0 l/m 4,5 km/h (1 Bft) S-SW 207 0 min 0,000 mm 1,3 UV-I 225 W/m 13,2 C 15,7 C 8,0 km/h (2 Bft) 96,72 %
23.08.2016 09:22 15,7 C 85 % 1028,4 hPa 0,0 l/m 4,3 km/h (1 Bft) S-SW 212 0 min 0,000 mm 1,3 UV-I 206 W/m 13,2 C 15,7 C 8,0 km/h (2 Bft) 97,87 %
23.08.2016 09:24 15,8 C 85 % 1028,4 hPa 0,0 l/m 3,9 km/h (1 Bft) S-SW 200 0 min 0,000 mm 1,4 UV-I 206 W/m 13,3 C 15,8 C 6,4 km/h (2 Bft) 100,00 %
23.08.2016 09:26 15,8 C 83 % 1028,4 hPa 0,0 l/m 5,7 km/h (1 Bft) W-SW 240 0 min 0,000 mm 1,5 UV-I 217 W/m 12,9 C 15,8 C 8,0 km/h (2 Bft) 100,00 %
23.08.2016 09:28 15,9 C 83 % 1028,4 hPa 0,0 l/m 3,7 km/h (1 Bft) SW 232 2 min 0,000 mm 1,6 UV-I 288 W/m 13,0 C 15,9 C 8,0 km/h (2 Bft) 100,00 %
23.08.2016 09:30 16,1 C 84 % 1028,4 hPa 0,0 l/m 3,6 km/h (1 Bft) SW 234 2 min 0,000 mm 1,7 UV-I 348 W/m 13,4 C 16,1 C 6,4 km/h (2 Bft) 100,00 %
23.08.2016 09:32 16,2 C 83 % 1028,4 hPa 0,0 l/m 5,1 km/h (1 Bft) W 267 2 min 0,000 mm 1,9 UV-I 338 W/m 13,3 C 16,2 C 9,7 km/h (2 Bft) 97,87 %
23.08.2016 09:34 16,4 C 81 % 1028,4 hPa 0,0 l/m 8,9 km/h (2 Bft) W-SW 250 2 min 0,000 mm 2,1 UV-I 541 W/m 13,1 C 15,1 C 12,9 km/h (3 Bft) 100,00 %
23.08.2016 09:36 16,6 C 82 % 1028,4 hPa 0,0 l/m 6,1 km/h (2 Bft) W-SW 246 2 min 0,000 mm 2,1 UV-I 522 W/m 13,5 C 16,6 C 9,7 km/h (2 Bft) 100,00 %
23.08.2016 09:38 16,7 C 81 % 1028,4 hPa 0,0 l/m 6,9 km/h (2 Bft) SW 224 2 min 0,000 mm 2,1 UV-I 480 W/m 13,4 C 16,4 C 12,9 km/h (3 Bft) 100,00 %
23.08.2016 09:40 16,7 C 81 % 1028,4 hPa 0,0 l/m 5,5 km/h (1 Bft) W 259 2 min 0,000 mm 2,4 UV-I 548 W/m 13,4 C 16,7 C 8,0 km/h (2 Bft) 100,00 %
23.08.2016 09:42 16,9 C 80 % 1028,4 hPa 0,0 l/m 5,3 km/h (1 Bft) S-SW 202 2 min 0,000 mm 2,3 UV-I 529 W/m 13,4 C 16,9 C 9,7 km/h (2 Bft) 97,87 %
23.08.2016 09:44 17,1 C 80 % 1028,4 hPa 0,0 l/m 3,9 km/h (1 Bft) S 181 2 min 0,000 mm 2,4 UV-I 515 W/m 13,6 C 17,1 C 6,4 km/h (2 Bft) 100,00 %
23.08.2016 09:46 17,2 C 80 % 1028,4 hPa 0,0 l/m 3,3 km/h (1 Bft) S 176 2 min 0,000 mm 2,4 UV-I 524 W/m 13,7 C 17,2 C 6,4 km/h (2 Bft) 100,00 %
23.08.2016 09:48 17,3 C 79 % 1028,4 hPa 0,0 l/m 3,7 km/h (1 Bft) W-SW 244 2 min 0,000 mm 2,5 UV-I 521 W/m 13,6 C 17,3 C 9,7 km/h (2 Bft) 97,87 %
23.08.2016 09:50 17,3 C 78 % 1028,4 hPa 0,0 l/m 7,0 km/h (2 Bft) S-SW 208 2 min 0,000 mm 2,5 UV-I 523 W/m 13,4 C 17,0 C 9,7 km/h (2 Bft) 100,00 %
23.08.2016 09:52 17,4 C 76 % 1028,5 hPa 0,0 l/m 7,2 km/h (2 Bft) S-SW 203 2 min 0,000 mm 2,6 UV-I 526 W/m 13,1 C 17,0 C 9,7 km/h (2 Bft) 100,00 %
23.08.2016 09:54 17,4 C 77 % 1028,5 hPa 0,0 l/m 7,3 km/h (2 Bft) S-SO 168 2 min 0,000 mm 2,6 UV-I 530 W/m 13,3 C 17,0 C 11,3 km/h (2 Bft) 100,00 %
23.08.2016 09:56 17,5 C 76 % 1028,4 hPa 0,0 l/m 6,5 km/h (2 Bft) S-SW 201 2 min 0,000 mm 2,7 UV-I 530 W/m 13,2 C 17,5 C 11,3 km/h (2 Bft) 100,00 %
23.08.2016 09:58 17,6 C 76 % 1028,4 hPa 0,0 l/m 7,0 km/h (2 Bft) S-SW 195 2 min 0,000 mm 2,7 UV-I 533 W/m 13,3 C 17,3 C 11,3 km/h (2 Bft) 100,00 %
23.08.2016 10:00 17,7 C 76 % 1028,4 hPa 0,0 l/m 6,4 km/h (2 Bft) SW 220 2 min 0,203 mm 2,8 UV-I 544 W/m 13,4 C 17,7 C 11,3 km/h (2 Bft) 100,00 %
23.08.2016 10:02 17,8 C 73 % 1028,4 hPa 0,0 l/m 7,5 km/h (2 Bft) S 188 2 min 0,000 mm 2,8 UV-I 552 W/m 12,9 C 17,3 C 12,9 km/h (3 Bft) 100,00 %
23.08.2016 10:04 17,8 C 74 % 1028,3 hPa 0,0 l/m 10,0 km/h (2 Bft) S-SW 196 2 min 0,000 mm 2,8 UV-I 554 W/m 13,1 C 16,2 C 12,9 km/h (3 Bft) 97,92 %
23.08.2016 10:06 17,8 C 75 % 1028,3 hPa 0,0 l/m 7,3 km/h (2 Bft) S-SW 201 2 min 0,000 mm 2,9 UV-I 558 W/m 13,3 C 17,4 C 11,3 km/h (2 Bft) 100,00 %
23.08.2016 10:08 17,9 C 74 % 1028,3 hPa 0,0 l/m 7,3 km/h (2 Bft) S 173 2 min 0,000 mm 3,0 UV-I 561 W/m 13,2 C 17,5 C 11,3 km/h (2 Bft) 100,00 %
23.08.2016 10:10 18,0 C 74 % 1028,3 hPa 0,0 l/m 6,8 km/h (2 Bft) SW 224 2 min 0,000 mm 3,0 UV-I 563 W/m 13,3 C 17,8 C 11,3 km/h (2 Bft) 100,00 %
23.08.2016 10:12 18,1 C 74 % 1028,2 hPa 0,0 l/m 7,0 km/h (2 Bft) S 187 2 min 0,000 mm 3,1 UV-I 568 W/m 13,4 C 17,8 C 11,3 km/h (2 Bft) 100,00 %
23.08.2016 10:14 18,2 C 76 % 1028,2 hPa 0,0 l/m 6,8 km/h (2 Bft) SW 236 2 min 0,000 mm 3,1 UV-I 571 W/m 13,9 C 18,0 C 14,5 km/h (3 Bft) 100,00 %
23.08.2016 10:16 18,3 C 71 % 1028,3 hPa 0,0 l/m 4,2 km/h (1 Bft) W-SW 239 2 min 0,000 mm 3,1 UV-I 575 W/m 12,9 C 18,3 C 6,4 km/h (2 Bft) 97,37 %
23.08.2016 10:18 18,3 C 72 % 1028,2 hPa 0,0 l/m 2,0 km/h (1 Bft) W 273 2 min 0,000 mm 3,2 UV-I 577 W/m 13,2 C 18,3 C 4,8 km/h (1 Bft) 97,87 %
23.08.2016 10:20 18,4 C 71 % 1028,3 hPa 0,0 l/m 4,2 km/h (1 Bft) SW 234 2 min 0,000 mm 3,3 UV-I 579 W/m 13,0 C 18,4 C 9,7 km/h (2 Bft) 100,00 %
23.08.2016 10:22 18,5 C 67 % 1028,3 hPa 0,0 l/m 6,0 km/h (2 Bft) W 259 2 min 0,000 mm 3,3 UV-I 579 W/m 12,3 C 18,5 C 9,7 km/h (2 Bft) 97,87 %
23.08.2016 10:24 18,6 C 69 % 1028,2 hPa 0,0 l/m 3,9 km/h (1 Bft) W 269 2 min 0,000 mm 3,4 UV-I 585 W/m 12,8 C 18,6 C 6,4 km/h (2 Bft) 100,00 %
23.08.2016 10:26 18,7 C 71 % 1028,2 hPa 0,0 l/m 4,0 km/h (1 Bft) W-NW 282 2 min 0,000 mm 3,4 UV-I 590 W/m 13,3 C 18,7 C 9,7 km/h (2 Bft) 100,00 %
23.08.2016 10:28 18,8 C 72 % 1028,2 hPa 0,0 l/m 6,4 km/h (2 Bft) W-SW 245 2 min 0,000 mm 3,5 UV-I 596 W/m 13,6 C 18,8 C 11,3 km/h (2 Bft) 95,74 %
23.08.2016 10:30 18,8 C 69 % 1028,1 hPa 0,0 l/m 3,1 km/h (1 Bft) W-SW 240 2 min 0,000 mm 3,5 UV-I 601 W/m 13,0 C 18,8 C 6,4 km/h (2 Bft) 100,00 %
23.08.2016 10:32 18,9 C 70 % 1028,1 hPa 0,0 l/m 4,7 km/h (1 Bft) S-SW 211 2 min 0,000 mm 3,6 UV-I 607 W/m 13,3 C 18,9 C 8,0 km/h (2 Bft) 100,00 %
23.08.2016 10:34 19,0 C 69 % 1028,1 hPa 0,0 l/m 3,8 km/h (1 Bft) S 183 2 min 0,000 mm 3,6 UV-I 611 W/m 13,2 C 19,0 C 6,4 km/h (2 Bft) 96,00 %
23.08.2016 10:36 19,1 C 71 % 1028,1 hPa 0,0 l/m 6,5 km/h (2 Bft) SW 226 2 min 0,000 mm 3,7 UV-I 615 W/m 13,7 C 19,1 C 9,7 km/h (2 Bft) 100,00 %
23.08.2016 10:38 19,2 C 72 % 1028,1 hPa 0,0 l/m 6,5 km/h (2 Bft) W-SW 244 2 min 0,000 mm 3,7 UV-I 619 W/m 14,0 C 19,2 C 9,7 km/h (2 Bft) 100,00 %
23.08.2016 10:40 19,3 C 69 % 1028,1 hPa 0,0 l/m 4,1 km/h (1 Bft) S-SO 168 2 min 0,000 mm 3,8 UV-I 623 W/m 13,5 C 19,3 C 8,0 km/h (2 Bft) 100,00 %
23.08.2016 10:42 19,3 C 71 % 1028,1 hPa 0,0 l/m 4,3 km/h (1 Bft) S-SO 162 2 min 0,000 mm 3,8 UV-I 627 W/m 13,9 C 19,3 C 8,0 km/h (2 Bft) 100,00 %
23.08.2016 10:44 19,4 C 67 % 1028,1 hPa 0,0 l/m 5,0 km/h (1 Bft) W 270 2 min 0,000 mm 3,9 UV-I 631 W/m 13,1 C 19,4 C 14,5 km/h (3 Bft) 100,00 %
23.08.2016 10:46 19,5 C 67 % 1028,1 hPa 0,0 l/m 5,0 km/h (1 Bft) W-SW 240 2 min 0,000 mm 3,9 UV-I 636 W/m 13,2 C 19,5 C 9,7 km/h (2 Bft) 100,00 %
23.08.2016 10:48 19,4 C 67 % 1028,1 hPa 0,0 l/m 4,7 km/h (1 Bft) S-SW 202 2 min 0,000 mm 4,0 UV-I 639 W/m 13,1 C 19,4 C 8,0 km/h (2 Bft) 97,87 %
23.08.2016 10:50 19,4 C 69 % 1028,1 hPa 0,0 l/m 3,5 km/h (1 Bft) W 263 2 min 0,000 mm 4,0 UV-I 642 W/m 13,6 C 19,4 C 9,7 km/h (2 Bft) 95,83 %
23.08.2016 10:52 19,6 C 69 % 1028,1 hPa 0,0 l/m 4,0 km/h (1 Bft) S 183 2 min 0,000 mm 3,3 UV-I 645 W/m 13,8 C 19,6 C 9,7 km/h (2 Bft) 97,87 %
23.08.2016 10:54 19,7 C 66 % 1028,2 hPa 0,0 l/m 6,4 km/h (2 Bft) S-SW 208 2 min 0,000 mm 4,1 UV-I 649 W/m 13,2 C 19,7 C 11,3 km/h (2 Bft) 97,87 %
23.08.2016 10:56 19,7 C 68 % 1028,1 hPa 0,0 l/m 6,1 km/h (2 Bft) W-SW 242 2 min 0,000 mm 4,1 UV-I 653 W/m 13,6 C 19,7 C 11,3 km/h (2 Bft) 95,74 %
23.08.2016 10:58 19,7 C 66 % 1028,1 hPa 0,0 l/m 4,3 km/h (1 Bft) S 185 2 min 0,000 mm 4,2 UV-I 658 W/m 13,2 C 19,7 C 8,0 km/h (2 Bft) 95,74 %
23.08.2016 11:00 19,7 C 68 % 1028,1 hPa 0,0 l/m 4,3 km/h (1 Bft) S-SW 202 2 min 0,356 mm 4,2 UV-I 660 W/m 13,6 C 19,7 C 8,0 km/h (2 Bft) 97,44 %
23.08.2016 11:02 19,7 C 66 % 1028,0 hPa 0,0 l/m 2,6 km/h (1 Bft) S 190 2 min 0,000 mm 4,3 UV-I 664 W/m 13,2 C 19,7 C 8,0 km/h (2 Bft) 97,87 %
23.08.2016 11:04 19,8 C 67 % 1028,0 hPa 0,0 l/m 5,9 km/h (2 Bft) S-SW 212 2 min 0,000 mm 4,3 UV-I 667 W/m 13,5 C 19,8 C 11,3 km/h (2 Bft) 97,87 %
23.08.2016 11:06 19,8 C 65 % 1028,0 hPa 0,0 l/m 8,6 km/h (2 Bft) S-SW 192 2 min 0,000 mm 4,4 UV-I 671 W/m 13,0 C 18,9 C 12,9 km/h (3 Bft) 97,87 %
23.08.2016 11:08 19,9 C 66 % 1028,0 hPa 0,0 l/m 9,7 km/h (2 Bft) SW 219 2 min 0,000 mm 4,4 UV-I 673 W/m 13,4 C 18,6 C 12,9 km/h (3 Bft) 95,74 %
23.08.2016 11:10 20,1 C 65 % 1028,0 hPa 0,0 l/m 7,6 km/h (2 Bft) S-SW 213 2 min 0,000 mm 4,4 UV-I 677 W/m 13,3 C 19,6 C 14,5 km/h (3 Bft) 97,92 %
23.08.2016 11:12 20,2 C 65 % 1028,0 hPa 0,0 l/m 5,7 km/h (1 Bft) SW 236 2 min 0,000 mm 4,5 UV-I 679 W/m 13,4 C 20,2 C 8,0 km/h (2 Bft) 97,87 %
23.08.2016 11:14 20,2 C 65 % 1028,0 hPa 0,0 l/m 6,2 km/h (2 Bft) SW 225 2 min 0,000 mm 4,5 UV-I 683 W/m 13,4 C 20,2 C 9,7 km/h (2 Bft) 96,00 %
23.08.2016 11:16 20,3 C 64 % 1028,0 hPa 0,0 l/m 5,9 km/h (2 Bft) S 183 2 min 0,000 mm 4,6 UV-I 687 W/m 13,3 C 20,3 C 9,7 km/h (2 Bft) 95,74 %
23.08.2016 11:18 20,2 C 63 % 1028,0 hPa 0,0 l/m 7,7 km/h (2 Bft) SW 223 2 min 0,000 mm 4,6 UV-I 689 W/m 12,9 C 19,7 C 12,9 km/h (3 Bft) 97,87 %
23.08.2016 11:20 20,2 C 63 % 1027,9 hPa 0,0 l/m 7,2 km/h (2 Bft) W 281 2 min 0,000 mm 4,6 UV-I 692 W/m 12,9 C 19,9 C 12,9 km/h (3 Bft) 97,92 %
23.08.2016 11:22 20,4 C 65 % 1027,9 hPa 0,0 l/m 4,5 km/h (1 Bft) W-SW 240 2 min 0,000 mm 4,7 UV-I 694 W/m 13,6 C 20,4 C 12,9 km/h (3 Bft) 100,00 %
23.08.2016 11:24 20,2 C 64 % 1027,9 hPa 0,0 l/m 3,8 km/h (1 Bft) W 272 2 min 0,000 mm 4,8 UV-I 698 W/m 13,2 C 20,2 C 12,9 km/h (3 Bft) 97,92 %
23.08.2016 11:26 20,3 C 64 % 1027,8 hPa 0,0 l/m 4,1 km/h (1 Bft) W 262 2 min 0,000 mm 4,8 UV-I 701 W/m 13,3 C 20,3 C 6,4 km/h (2 Bft) 100,00 %
23.08.2016 11:28 20,5 C 65 % 1027,8 hPa 0,0 l/m 7,5 km/h (2 Bft) W-NW 288 2 min 0,000 mm 4,9 UV-I 703 W/m 13,7 C 20,1 C 12,9 km/h (3 Bft) 98,00 %
23.08.2016 11:30 20,4 C 65 % 1027,8 hPa 0,0 l/m 4,2 km/h (1 Bft) SW 223 2 min 0,000 mm 4,9 UV-I 706 W/m 13,6 C 20,4 C 11,3 km/h (2 Bft) 100,00 %
23.08.2016 11:32 20,4 C 62 % 1027,8 hPa 0,0 l/m 7,2 km/h (2 Bft) S-SW 192 2 min 0,000 mm 4,1 UV-I 710 W/m 12,9 C 20,1 C 11,3 km/h (2 Bft) 100,00 %
23.08.2016 11:34 20,5 C 66 % 1027,8 hPa 0,0 l/m 3,2 km/h (1 Bft) W-SW 257 2 min 0,000 mm 2,8 UV-I 712 W/m 13,9 C 20,5 C 4,8 km/h (1 Bft) 100,00 %
23.08.2016 11:36 20,6 C 63 % 1027,7 hPa 0,0 l/m 2,0 km/h (1 Bft) W 278 2 min 0,000 mm 3,4 UV-I 714 W/m 13,3 C 20,6 C 4,8 km/h (1 Bft) 97,87 %
23.08.2016 11:38 20,8 C 65 % 1027,8 hPa 0,0 l/m 4,2 km/h (1 Bft) SW 228 2 min 0,000 mm 4,8 UV-I 717 W/m 14,0 C 20,8 C 8,0 km/h (2 Bft) 100,00 %
23.08.2016 11:40 20,9 C 63 % 1027,7 hPa 0,0 l/m 6,9 km/h (2 Bft) W 281 2 min 0,000 mm 5,1 UV-I 719 W/m 13,6 C 20,7 C 9,7 km/h (2 Bft) 100,00 %
23.08.2016 11:42 20,9 C 61 % 1027,7 hPa 0,0 l/m 8,1 km/h (2 Bft) W-SW 257 2 min 0,000 mm 5,1 UV-I 722 W/m 13,1 C 20,3 C 14,5 km/h (3 Bft) 95,74 %
23.08.2016 11:44 20,9 C 62 % 1027,7 hPa 0,0 l/m 3,4 km/h (1 Bft) NW 315 2 min 0,000 mm 5,1 UV-I 722 W/m 13,3 C 20,9 C 6,4 km/h (2 Bft) 100,00 %
23.08.2016 11:46 21,0 C 61 % 1027,7 hPa 0,0 l/m 4,5 km/h (1 Bft) W 259 2 min 0,000 mm 5,2 UV-I 726 W/m 13,2 C 21,0 C 11,3 km/h (2 Bft) 97,87 %
23.08.2016 11:48 21,1 C 64 % 1027,7 hPa 0,0 l/m 3,7 km/h (1 Bft) W-SW 258 2 min 0,000 mm 5,2 UV-I 728 W/m 14,0 C 21,1 C 9,7 km/h (2 Bft) 100,00 %
23.08.2016 11:50 21,2 C 64 % 1027,7 hPa 0,0 l/m 5,3 km/h (1 Bft) W-SW 254 2 min 0,000 mm 5,3 UV-I 730 W/m 14,1 C 21,2 C 12,9 km/h (3 Bft) 100,00 %
23.08.2016 11:52 21,2 C 61 % 1027,7 hPa 0,0 l/m 5,3 km/h (1 Bft) W-SW 242 2 min 0,000 mm 5,3 UV-I 733 W/m 13,4 C 21,2 C 9,7 km/h (2 Bft) 100,00 %
23.08.2016 11:54 21,0 C 61 % 1027,6 hPa 0,0 l/m 7,2 km/h (2 Bft) S 174 2 min 0,000 mm 5,4 UV-I 737 W/m 13,2 C 20,7 C 16,1 km/h (3 Bft) 100,00 %
23.08.2016 11:56 20,9 C 62 % 1027,7 hPa 0,0 l/m 9,1 km/h (2 Bft) S-SW 192 2 min 0,000 mm 5,4 UV-I 739 W/m 13,3 C 19,9 C 11,3 km/h (2 Bft) 100,00 %
23.08.2016 11:58 20,9 C 62 % 1027,7 hPa 0,0 l/m 8,0 km/h (2 Bft) S 181 2 min 0,000 mm 5,4 UV-I 740 W/m 13,3 C 20,3 C 12,9 km/h (3 Bft) 100,00 %
23.08.2016 12:00 20,8 C 63 % 1027,6 hPa 0,0 l/m 5,4 km/h (1 Bft) W-SW 256 2 min 0,432 mm 5,4 UV-I 740 W/m 13,5 C 20,8 C 9,7 km/h (2 Bft) 100,00 %
23.08.2016 12:02 21,0 C 65 % 1027,6 hPa 0,0 l/m 5,0 km/h (1 Bft) W 259 2 min 0,000 mm 5,4 UV-I 740 W/m 14,2 C 21,0 C 9,7 km/h (2 Bft) 97,87 %
23.08.2016 12:04 21,1 C 63 % 1027,6 hPa 0,0 l/m 10,2 km/h (2 Bft) W 273 2 min 0,000 mm 5,5 UV-I 745 W/m 13,8 C 19,8 C 14,5 km/h (3 Bft) 100,00 %
23.08.2016 12:06 21,2 C 65 % 1027,5 hPa 0,0 l/m 4,8 km/h (1 Bft) SW 233 2 min 0,000 mm 5,5 UV-I 746 W/m 14,4 C 21,2 C 9,7 km/h (2 Bft) 97,87 %
23.08.2016 12:08 21,3 C 63 % 1027,5 hPa 0,0 l/m 3,8 km/h (1 Bft) W 270 2 min 0,000 mm 5,5 UV-I 738 W/m 14,0 C 21,3 C 6,4 km/h (2 Bft) 100,00 %
23.08.2016 12:10 21,5 C 60 % 1027,5 hPa 0,0 l/m 7,1 km/h (2 Bft) W-SW 251 2 min 0,000 mm 5,6 UV-I 751 W/m 13,4 C 21,2 C 14,5 km/h (3 Bft) 100,00 %
23.08.2016 12:12 21,6 C 63 % 1027,5 hPa 0,0 l/m 4,5 km/h (1 Bft) NW 313 2 min 0,000 mm 5,6 UV-I 752 W/m 14,2 C 21,6 C 8,0 km/h (2 Bft) 98,00 %
23.08.2016 12:14 21,6 C 60 % 1027,5 hPa 0,0 l/m 4,5 km/h (1 Bft) W-SW 254 2 min 0,000 mm 5,6 UV-I 752 W/m 13,5 C 21,6 C 9,7 km/h (2 Bft) 97,87 %
23.08.2016 12:16 21,6 C 61 % 1027,5 hPa 0,0 l/m 8,3 km/h (2 Bft) W-SW 240 2 min 0,000 mm 5,6 UV-I 753 W/m 13,7 C 20,9 C 12,9 km/h (3 Bft) 100,00 %
23.08.2016 12:18 21,7 C 60 % 1027,4 hPa 0,0 l/m 6,2 km/h (2 Bft) NW 324 2 min 0,000 mm 5,7 UV-I 756 W/m 13,6 C 21,7 C 12,9 km/h (3 Bft) 97,87 %
23.08.2016 12:20 21,7 C 61 % 1027,4 hPa 0,0 l/m 3,2 km/h (1 Bft) W 271 2 min 0,000 mm 5,7 UV-I 755 W/m 13,8 C 21,7 C 12,9 km/h (3 Bft) 97,87 %
23.08.2016 12:22 21,6 C 63 % 1027,4 hPa 0,0 l/m 5,2 km/h (1 Bft) W 264 2 min 0,000 mm 5,8 UV-I 760 W/m 14,2 C 21,6 C 11,3 km/h (2 Bft) 100,00 %
23.08.2016 12:24 21,7 C 64 % 1027,4 hPa 0,0 l/m 4,3 km/h (1 Bft) W 266 2 min 0,000 mm 5,8 UV-I 761 W/m 14,6 C 21,7 C 6,4 km/h (2 Bft) 100,00 %
23.08.2016 12:26 21,8 C 61 % 1027,3 hPa 0,0 l/m 5,2 km/h (1 Bft) W-NW 295 2 min 0,000 mm 5,8 UV-I 763 W/m 13,9 C 21,8 C 9,7 km/h (2 Bft) 100,00 %
23.08.2016 12:28 21,9 C 63 % 1027,3 hPa 0,0 l/m 4,5 km/h (1 Bft) W 273 2 min 0,000 mm 5,8 UV-I 764 W/m 14,5 C 21,9 C 9,7 km/h (2 Bft) 100,00 %
23.08.2016 12:30 22,1 C 58 % 1027,3 hPa 0,0 l/m 6,0 km/h (2 Bft) W-NW 284 2 min 0,000 mm 5,8 UV-I 765 W/m 13,4 C 22,1 C 12,9 km/h (3 Bft) 100,00 %
23.08.2016 12:32 21,9 C 58 % 1027,2 hPa 0,0 l/m 3,8 km/h (1 Bft) W-SW 257 2 min 0,000 mm 5,9 UV-I 768 W/m 13,3 C 21,9 C 8,0 km/h (2 Bft) 100,00 %
23.08.2016 12:34 21,7 C 58 % 1027,3 hPa 0,0 l/m 7,2 km/h (2 Bft) SW 233 2 min 0,000 mm 5,9 UV-I 769 W/m 13,1 C 21,4 C 12,9 km/h (3 Bft) 100,00 %
23.08.2016 12:36 21,5 C 59 % 1027,2 hPa 0,0 l/m 1,1 km/h (1 Bft) SW 225 2 min 0,000 mm 5,9 UV-I 772 W/m 13,1 C 21,5 C 3,2 km/h (1 Bft) 97,87 %
23.08.2016 12:38 21,6 C 63 % 1027,1 hPa 0,0 l/m 5,4 km/h (1 Bft) W 262 2 min 0,000 mm 6,0 UV-I 773 W/m 14,2 C 21,6 C 11,3 km/h (2 Bft) 100,00 %
23.08.2016 12:40 21,7 C 61 % 1027,1 hPa 0,0 l/m 8,1 km/h (2 Bft) S-SW 194 2 min 0,000 mm 6,0 UV-I 775 W/m 13,8 C 21,1 C 14,5 km/h (3 Bft) 96,00 %
23.08.2016 12:42 21,8 C 59 % 1027,1 hPa 0,0 l/m 10,0 km/h (2 Bft) S-SW 196 2 min 0,000 mm 6,0 UV-I 778 W/m 13,4 C 20,6 C 14,5 km/h (3 Bft) 95,74 %
23.08.2016 12:44 21,8 C 60 % 1027,1 hPa 0,0 l/m 8,0 km/h (2 Bft) SW 232 2 min 0,000 mm 6,0 UV-I 777 W/m 13,7 C 21,2 C 12,9 km/h (3 Bft) 95,74 %
23.08.2016 12:46 21,7 C 59 % 1027,0 hPa 0,0 l/m 3,7 km/h (1 Bft) S 172 2 min 0,000 mm 5,9 UV-I 773 W/m 13,3 C 21,7 C 8,0 km/h (2 Bft) 97,87 %
23.08.2016 12:48 21,8 C 63 % 1027,0 hPa 0,0 l/m 7,0 km/h (2 Bft) W-NW 294 2 min 0,000 mm 6,0 UV-I 775 W/m 14,4 C 21,6 C 12,9 km/h (3 Bft) 95,74 %
23.08.2016 12:50 21,9 C 62 % 1027,0 hPa 0,0 l/m 4,1 km/h (1 Bft) W-NW 288 2 min 0,000 mm 5,9 UV-I 775 W/m 14,3 C 21,9 C 11,3 km/h (2 Bft) 93,62 %
23.08.2016 12:52 21,9 C 60 % 1027,0 hPa 0,0 l/m 5,7 km/h (1 Bft) SW 227 2 min 0,000 mm 6,0 UV-I 776 W/m 13,8 C 21,9 C 11,3 km/h (2 Bft) 97,87 %
23.08.2016 12:54 22,1 C 62 % 1027,0 hPa 0,0 l/m 4,5 km/h (1 Bft) W-SW 244 2 min 0,000 mm 6,0 UV-I 781 W/m 14,5 C 22,1 C 9,7 km/h (2 Bft) 97,87 %
23.08.2016 12:56 22,2 C 59 % 1026,9 hPa 0,0 l/m 5,7 km/h (1 Bft) W 274 2 min 0,000 mm 6,1 UV-I 784 W/m 13,8 C 22,2 C 11,3 km/h (2 Bft) 93,62 %
23.08.2016 12:58 22,2 C 60 % 1026,9 hPa 0,0 l/m 8,0 km/h (2 Bft) W-SW 238 2 min 0,000 mm 6,0 UV-I 783 W/m 14,1 C 21,7 C 14,5 km/h (3 Bft) 95,74 %
23.08.2016 13:00 22,3 C 58 % 1026,9 hPa 0,0 l/m 11,7 km/h (2 Bft) W-NW 301 2 min 0,482 mm 6,1 UV-I 788 W/m 13,6 C 20,7 C 19,3 km/h (3 Bft) 91,49 %
23.08.2016 13:02 22,3 C 59 % 1026,9 hPa 0,0 l/m 8,6 km/h (2 Bft) NW 307 2 min 0,000 mm 6,1 UV-I 789 W/m 13,9 C 21,6 C 14,5 km/h (3 Bft) 97,87 %
23.08.2016 13:04 22,4 C 58 % 1026,9 hPa 0,0 l/m 3,6 km/h (1 Bft) W-SW 242 2 min 0,000 mm 6,1 UV-I 790 W/m 13,7 C 22,4 C 8,0 km/h (2 Bft) 97,87 %
23.08.2016 13:06 22,4 C 58 % 1026,8 hPa 0,0 l/m 4,8 km/h (1 Bft) S-SW 212 2 min 0,000 mm 6,1 UV-I 792 W/m 13,7 C 22,4 C 9,7 km/h (2 Bft) 97,87 %
23.08.2016 13:08 22,7 C 61 % 1026,8 hPa 0,0 l/m 3,2 km/h (1 Bft) SW 231 2 min 0,000 mm 6,1 UV-I 797 W/m 14,8 C 22,7 C 6,4 km/h (2 Bft) 97,87 %
23.08.2016 13:10 22,7 C 59 % 1026,8 hPa 0,0 l/m 5,9 km/h (2 Bft) W-SW 248 2 min 0,000 mm 6,2 UV-I 807 W/m 14,3 C 22,7 C 11,3 km/h (2 Bft) 97,87 %
23.08.2016 13:12 22,7 C 57 % 1026,8 hPa 0,0 l/m 8,9 km/h (2 Bft) W 264 2 min 0,000 mm 6,2 UV-I 828 W/m 13,7 C 21,9 C 17,7 km/h (3 Bft) 97,92 %
23.08.2016 13:14 22,7 C 57 % 1026,8 hPa 0,0 l/m 8,2 km/h (2 Bft) S-SW 213 2 min 0,000 mm 6,2 UV-I 863 W/m 13,7 C 22,1 C 12,9 km/h (3 Bft) 98,00 %
23.08.2016 13:16 22,6 C 59 % 1026,8 hPa 0,0 l/m 5,7 km/h (1 Bft) S-SO 165 2 min 0,000 mm 6,2 UV-I 868 W/m 14,2 C 22,6 C 14,5 km/h (3 Bft) 97,87 %
23.08.2016 13:18 22,6 C 59 % 1026,8 hPa 0,0 l/m 7,1 km/h (2 Bft) SW 227 2 min 0,000 mm 6,0 UV-I 864 W/m 14,2 C 22,4 C 14,5 km/h (3 Bft) 100,00 %
23.08.2016 13:20 22,8 C 60 % 1026,8 hPa 0,0 l/m 5,4 km/h (1 Bft) W-SW 252 2 min 0,000 mm 6,3 UV-I 846 W/m 14,6 C 22,8 C 9,7 km/h (2 Bft) 97,44 %
23.08.2016 13:22 23,1 C 60 % 1026,9 hPa 0,0 l/m 2,2 km/h (1 Bft) S 188 2 min 0,000 mm 6,2 UV-I 829 W/m 14,9 C 23,1 C 4,8 km/h (1 Bft) 100,00 %
23.08.2016 13:24 23,5 C 57 % 1026,8 hPa 0,0 l/m 3,6 km/h (1 Bft) W 281 2 min 0,000 mm 6,0 UV-I 826 W/m 14,5 C 23,5 C 11,3 km/h (2 Bft) 98,00 %
23.08.2016 13:26 23,3 C 54 % 1026,9 hPa 0,0 l/m 5,1 km/h (1 Bft) W-SW 246 2 min 0,000 mm 5,8 UV-I 841 W/m 13,5 C 23,3 C 9,7 km/h (2 Bft) 100,00 %
23.08.2016 13:28 22,9 C 55 % 1026,8 hPa 0,0 l/m 2,5 km/h (1 Bft) W-NW 302 2 min 0,000 mm 5,4 UV-I 843 W/m 13,4 C 22,9 C 4,8 km/h (1 Bft) 95,74 %
23.08.2016 13:30 22,8 C 57 % 1026,8 hPa 0,0 l/m 2,4 km/h (1 Bft) N-NO 15 2 min 0,000 mm 5,6 UV-I 831 W/m 13,8 C 22,8 C 3,2 km/h (1 Bft) 100,00 %
23.08.2016 13:32 22,8 C 59 % 1026,8 hPa 0,0 l/m 1,8 km/h (1 Bft) S-SW 213 2 min 0,000 mm 5,9 UV-I 816 W/m 14,4 C 22,8 C 4,8 km/h (1 Bft) 100,00 %
23.08.2016 13:34 23,0 C 58 % 1026,8 hPa 0,0 l/m 8,4 km/h (2 Bft) W-SW 248 2 min 0,000 mm 6,0 UV-I 822 W/m 14,3 C 22,4 C 16,1 km/h (3 Bft) 97,87 %
23.08.2016 13:36 23,1 C 57 % 1026,8 hPa 0,0 l/m 10,0 km/h (2 Bft) S-SW 192 2 min 0,000 mm 6,1 UV-I 831 W/m 14,1 C 22,1 C 16,1 km/h (3 Bft) 100,00 %
23.08.2016 13:38 23,1 C 58 % 1026,7 hPa 0,0 l/m 8,9 km/h (2 Bft) SW 222 2 min 0,000 mm 6,1 UV-I 856 W/m 14,4 C 22,4 C 12,9 km/h (3 Bft) 100,00 %
23.08.2016 13:40 23,2 C 59 % 1026,7 hPa 0,0 l/m 8,7 km/h (2 Bft) W 276 2 min 0,000 mm 6,0 UV-I 874 W/m 14,7 C 22,5 C 14,5 km/h (3 Bft) 100,00 %
23.08.2016 13:42 23,2 C 56 % 1026,7 hPa 0,0 l/m 9,7 km/h (2 Bft) SW 236 2 min 0,000 mm 6,0 UV-I 888 W/m 13,9 C 22,3 C 14,5 km/h (3 Bft) 100,00 %
23.08.2016 13:44 23,2 C 56 % 1026,6 hPa 0,0 l/m 6,8 km/h (2 Bft) S 184 2 min 0,000 mm 6,0 UV-I 899 W/m 13,9 C 23,1 C 12,9 km/h (3 Bft) 100,00 %
23.08.2016 13:46 23,2 C 59 % 1026,6 hPa 0,0 l/m 10,5 km/h (2 Bft) S-SW 208 2 min 0,000 mm 6,1 UV-I 908 W/m 14,7 C 22,1 C 16,1 km/h (3 Bft) 100,00 %
23.08.2016 13:48 23,3 C 57 % 1026,6 hPa 0,0 l/m 10,9 km/h (2 Bft) SW 219 2 min 0,000 mm 6,0 UV-I 917 W/m 14,3 C 22,1 C 16,1 km/h (3 Bft) 100,00 %
23.08.2016 13:50 23,3 C 59 % 1026,5 hPa 0,0 l/m 5,6 km/h (1 Bft) S 170 2 min 0,000 mm 5,9 UV-I 912 W/m 14,8 C 23,3 C 12,9 km/h (3 Bft) 100,00 %
23.08.2016 13:52 23,2 C 57 % 1026,6 hPa 0,0 l/m 1,7 km/h (1 Bft) W 271 2 min 0,000 mm 6,0 UV-I 904 W/m 14,2 C 23,2 C 6,4 km/h (2 Bft) 97,22 %
23.08.2016 13:54 23,2 C 60 % 1026,6 hPa 0,0 l/m 1,7 km/h (1 Bft) W 264 2 min 0,000 mm 5,9 UV-I 872 W/m 15,0 C 23,2 C 9,7 km/h (2 Bft) 100,00 %
23.08.2016 13:56 23,3 C 57 % 1026,6 hPa 0,0 l/m 4,8 km/h (1 Bft) SW 233 2 min 0,000 mm 5,8 UV-I 834 W/m 14,3 C 23,3 C 12,9 km/h (3 Bft) 100,00 %
23.08.2016 13:58 23,4 C 57 % 1026,5 hPa 0,0 l/m 4,2 km/h (1 Bft) NW 310 2 min 0,000 mm 5,6 UV-I 812 W/m 14,4 C 23,4 C 8,0 km/h (2 Bft) 100,00 %
23.08.2016 14:00 23,3 C 56 % 1026,5 hPa 0,0 l/m 2,3 km/h (1 Bft) N-NW 329 2 min 0,534 mm 5,5 UV-I 828 W/m 14,0 C 23,3 C 4,8 km/h (1 Bft) 100,00 %
23.08.2016 14:02 23,2 C 56 % 1026,5 hPa 0,0 l/m 3,4 km/h (1 Bft) W-SW 242 2 min 0,000 mm 4,2 UV-I 831 W/m 13,9 C 23,2 C 11,3 km/h (2 Bft) 100,00 %
23.08.2016 14:04 23,1 C 58 % 1026,4 hPa 0,0 l/m 4,2 km/h (1 Bft) W-SW 238 2 min 0,000 mm 5,0 UV-I 820 W/m 14,4 C 23,1 C 8,0 km/h (2 Bft) 100,00 %
23.08.2016 14:06 23,1 C 57 % 1026,4 hPa 0,0 l/m 6,2 km/h (2 Bft) S-SO 167 2 min 0,000 mm 5,5 UV-I 799 W/m 14,1 C 23,1 C 12,9 km/h (3 Bft) 100,00 %
23.08.2016 14:08 23,1 C 56 % 1026,4 hPa 0,0 l/m 3,9 km/h (1 Bft) W-SW 250 2 min 0,000 mm 5,6 UV-I 811 W/m 13,8 C 23,1 C 9,7 km/h (2 Bft) 97,87 %
23.08.2016 14:10 23,1 C 56 % 1026,4 hPa 0,0 l/m 6,6 km/h (2 Bft) S 191 2 min 0,000 mm 5,6 UV-I 812 W/m 13,8 C 23,0 C 11,3 km/h (2 Bft) 97,87 %
23.08.2016 14:12 23,1 C 54 % 1026,3 hPa 0,0 l/m 7,7 km/h (2 Bft) S-SW 208 2 min 0,000 mm 5,6 UV-I 802 W/m 13,3 C 22,7 C 11,3 km/h (2 Bft) 100,00 %
23.08.2016 14:14 23,3 C 58 % 1026,4 hPa 0,0 l/m 3,8 km/h (1 Bft) W 278 2 min 0,000 mm 5,6 UV-I 860 W/m 14,6 C 23,3 C 8,0 km/h (2 Bft) 97,87 %
23.08.2016 14:16 23,4 C 55 % 1026,4 hPa 0,0 l/m 6,5 km/h (2 Bft) NW 308 2 min 0,000 mm 4,8 UV-I 882 W/m 13,8 C 23,4 C 11,3 km/h (2 Bft) 100,00 %
23.08.2016 14:18 23,4 C 58 % 1026,4 hPa 0,0 l/m 5,0 km/h (1 Bft) W-SW 252 2 min 0,000 mm 5,5 UV-I 867 W/m 14,7 C 23,4 C 8,0 km/h (2 Bft) 100,00 %
23.08.2016 14:20 23,3 C 54 % 1026,4 hPa 0,0 l/m 5,8 km/h (2 Bft) S-SW 192 2 min 0,000 mm 5,5 UV-I 832 W/m 13,5 C 23,3 C 11,3 km/h (2 Bft) 98,00 %
23.08.2016 14:22 23,4 C 57 % 1026,3 hPa 0,0 l/m 6,4 km/h (2 Bft) S-SW 202 2 min 0,000 mm 5,5 UV-I 834 W/m 14,4 C 23,4 C 9,7 km/h (2 Bft) 100,00 %
23.08.2016 14:24 23,5 C 55 % 1026,3 hPa 0,0 l/m 6,2 km/h (2 Bft) S 191 2 min 0,000 mm 5,5 UV-I 851 W/m 13,9 C 23,5 C 11,3 km/h (2 Bft) 100,00 %
23.08.2016 14:26 23,6 C 59 % 1026,4 hPa 0,0 l/m 3,7 km/h (1 Bft) W-SW 257 2 min 0,000 mm 5,5 UV-I 858 W/m 15,1 C 23,6 C 6,4 km/h (2 Bft) 100,00 %
23.08.2016 14:28 23,8 C 55 % 1026,4 hPa 0,0 l/m 8,7 km/h (2 Bft) S-SW 213 2 min 0,000 mm 5,3 UV-I 840 W/m 14,2 C 23,2 C 12,9 km/h (3 Bft) 100,00 %
23.08.2016 14:30 23,7 C 55 % 1026,3 hPa 0,0 l/m 7,2 km/h (2 Bft) SW 221 2 min 0,000 mm 5,2 UV-I 840 W/m 14,1 C 23,5 C 14,5 km/h (3 Bft) 100,00 %
23.08.2016 14:32 23,7 C 55 % 1026,3 hPa 0,0 l/m 4,2 km/h (1 Bft) W 271 2 min 0,000 mm 5,2 UV-I 843 W/m 14,1 C 23,7 C 8,0 km/h (2 Bft) 100,00 %
23.08.2016 14:34 23,8 C 59 % 1026,3 hPa 0,0 l/m 3,8 km/h (1 Bft) S-SW 209 2 min 0,000 mm 5,1 UV-I 821 W/m 15,3 C 23,8 C 11,3 km/h (2 Bft) 100,00 %
23.08.2016 14:36 23,9 C 58 % 1026,3 hPa 0,0 l/m 3,9 km/h (1 Bft) N-NW 342 2 min 0,000 mm 4,2 UV-I 581 W/m 15,1 C 23,9 C 6,4 km/h (2 Bft) 100,00 %
23.08.2016 14:38 23,7 C 57 % 1026,3 hPa 0,0 l/m 3,3 km/h (1 Bft) W-SW 246 0 min 0,000 mm 3,8 UV-I 278 W/m 14,7 C 23,7 C 6,4 km/h (2 Bft) 100,00 %
23.08.2016 14:40 23,4 C 57 % 1026,3 hPa 0,0 l/m 3,5 km/h (1 Bft) W-NW 294 2 min 0,000 mm 4,7 UV-I 536 W/m 14,4 C 23,4 C 6,4 km/h (2 Bft) 97,87 %
23.08.2016 14:42 23,4 C 55 % 1026,3 hPa 0,0 l/m 3,7 km/h (1 Bft) W 265 2 min 0,000 mm 3,5 UV-I 816 W/m 13,8 C 23,4 C 9,7 km/h (2 Bft) 95,74 %
23.08.2016 14:44 23,2 C 57 % 1026,3 hPa 0,0 l/m 4,9 km/h (1 Bft) W 278 0 min 0,000 mm 3,9 UV-I 287 W/m 14,2 C 23,2 C 11,3 km/h (2 Bft) 93,88 %
23.08.2016 14:46 23,2 C 57 % 1026,3 hPa 0,0 l/m 3,1 km/h (1 Bft) W-SW 257 2 min 0,000 mm 4,7 UV-I 509 W/m 14,2 C 23,2 C 6,4 km/h (2 Bft) 97,87 %
23.08.2016 14:48 23,3 C 54 % 1026,3 hPa 0,0 l/m 1,5 km/h (1 Bft) W-SW 257 2 min 0,000 mm 4,9 UV-I 774 W/m 13,5 C 23,3 C 3,2 km/h (1 Bft) 97,87 %
23.08.2016 14:50 23,6 C 56 % 1026,2 hPa 0,0 l/m 4,4 km/h (1 Bft) W 260 2 min 0,000 mm 4,9 UV-I 774 W/m 14,3 C 23,6 C 9,7 km/h (2 Bft) 97,87 %
23.08.2016 14:52 23,7 C 56 % 1026,2 hPa 0,0 l/m 4,6 km/h (1 Bft) W 275 2 min 0,000 mm 4,8 UV-I 777 W/m 14,4 C 23,7 C 11,3 km/h (2 Bft) 97,14 %
23.08.2016 14:54 23,7 C 52 % 1026,2 hPa 0,0 l/m 2,4 km/h (1 Bft) N-NO 26 2 min 0,000 mm 4,8 UV-I 784 W/m 13,2 C 23,7 C 6,4 km/h (2 Bft) 98,08 %
23.08.2016 14:56 23,7 C 54 % 1026,2 hPa 0,0 l/m 3,9 km/h (1 Bft) S-SW 201 2 min 0,000 mm 4,8 UV-I 798 W/m 13,8 C 23,7 C 6,4 km/h (2 Bft) 97,87 %
23.08.2016 14:58 23,7 C 52 % 1026,2 hPa 0,0 l/m 8,0 km/h (2 Bft) S-SW 204 2 min 0,000 mm 4,7 UV-I 806 W/m 13,2 C 23,2 C 12,9 km/h (3 Bft) 97,87 %
23.08.2016 15:00 23,8 C 54 % 1026,1 hPa 0,0 l/m 4,3 km/h (1 Bft) S-SO 148 2 min 0,000 mm 4,6 UV-I 800 W/m 13,9 C 23,8 C 8,0 km/h (2 Bft) 97,87 %
23.08.2016 15:02 23,7 C 54 % 1026,1 hPa 0,0 l/m 2,9 km/h (1 Bft) S-SO 161 2 min 0,482 mm 3,7 UV-I 819 W/m 13,8 C 23,7 C 6,4 km/h (2 Bft) 95,74 %
23.08.2016 15:04 23,8 C 56 % 1026,1 hPa 0,0 l/m 3,0 km/h (1 Bft) W-SW 253 2 min 0,000 mm 4,0 UV-I 815 W/m 14,5 C 23,8 C 6,4 km/h (2 Bft) 96,00 %
23.08.2016 15:06 23,8 C 57 % 1026,1 hPa 0,0 l/m 5,2 km/h (1 Bft) W-SW 254 2 min 0,000 mm 4,5 UV-I 790 W/m 14,8 C 23,8 C 8,0 km/h (2 Bft) 97,87 %
23.08.2016 15:08 23,9 C 54 % 1026,1 hPa 0,0 l/m 3,2 km/h (1 Bft) W-SW 237 2 min 0,000 mm 4,4 UV-I 790 W/m 14,0 C 23,9 C 4,8 km/h (1 Bft) 95,74 %
23.08.2016 15:10 23,8 C 56 % 1026,1 hPa 0,0 l/m 2,0 km/h (1 Bft) N-NW 336 2 min 0,000 mm 2,5 UV-I 452 W/m 14,5 C 23,8 C 4,8 km/h (1 Bft) 95,74 %
23.08.2016 15:12 23,6 C 56 % 1026,1 hPa 0,0 l/m 1,7 km/h (1 Bft) NW 308 0 min 0,000 mm 3,9 UV-I 253 W/m 14,3 C 23,6 C 4,8 km/h (1 Bft) 95,74 %
23.08.2016 15:14 23,7 C 56 % 1026,0 hPa 0,0 l/m 1,5 km/h (1 Bft) W 271 2 min 0,000 mm 4,4 UV-I 666 W/m 14,4 C 23,7 C 4,8 km/h (1 Bft) 100,00 %
23.08.2016 15:16 23,8 C 55 % 1026,0 hPa 0,0 l/m 2,0 km/h (1 Bft) N-NO 23 2 min 0,000 mm 4,2 UV-I 707 W/m 14,2 C 23,8 C 6,4 km/h (2 Bft) 97,87 %
23.08.2016 15:18 24,1 C 55 % 1026,0 hPa 0,0 l/m 2,2 km/h (1 Bft) N-NO 25 2 min 0,000 mm 4,2 UV-I 702 W/m 14,5 C 24,1 C 4,8 km/h (1 Bft) 97,92 %
23.08.2016 15:20 24,2 C 58 % 1025,9 hPa 0,0 l/m 1,8 km/h (1 Bft) NW 305 2 min 0,000 mm 4,2 UV-I 709 W/m 15,4 C 24,2 C 3,2 km/h (1 Bft) 97,87 %
23.08.2016 15:22 24,2 C 53 % 1026,0 hPa 0,0 l/m 0,8 km/h (0 Bft) NW 305 2 min 0,000 mm 4,1 UV-I 699 W/m 14,0 C 24,2 C 3,2 km/h (1 Bft) 100,00 %
23.08.2016 15:24 24,1 C 54 % 1026,0 hPa 0,0 l/m 1,2 km/h (1 Bft) N-NW 346 2 min 0,000 mm 4,1 UV-I 690 W/m 14,2 C 24,1 C 3,2 km/h (1 Bft) 100,00 %
23.08.2016 15:26 24,0 C 54 % 1025,9 hPa 0,0 l/m 2,2 km/h (1 Bft) SW 234 2 min 0,000 mm 4,0 UV-I 677 W/m 14,1 C 24,0 C 3,2 km/h (1 Bft) 100,00 %
23.08.2016 15:28 24,1 C 56 % 1025,9 hPa 0,0 l/m 3,7 km/h (1 Bft) W-SW 240 2 min 0,000 mm 3,9 UV-I 662 W/m 14,8 C 24,1 C 8,0 km/h (2 Bft) 100,00 %
23.08.2016 15:30 24,3 C 54 % 1025,9 hPa 0,0 l/m 5,2 km/h (1 Bft) SW 234 2 min 0,000 mm 3,9 UV-I 655 W/m 14,4 C 24,3 C 8,0 km/h (2 Bft) 100,00 %
23.08.2016 15:32 24,4 C 54 % 1025,9 hPa 0,0 l/m 3,6 km/h (1 Bft) W-SW 245 2 min 0,000 mm 3,9 UV-I 657 W/m 14,5 C 24,4 C 11,3 km/h (2 Bft) 100,00 %
23.08.2016 15:34 24,3 C 52 % 1025,8 hPa 0,0 l/m 8,0 km/h (2 Bft) SW 227 2 min 0,000 mm 3,8 UV-I 657 W/m 13,8 C 23,9 C 12,9 km/h (3 Bft) 97,87 %
23.08.2016 15:36 24,2 C 51 % 1025,8 hPa 0,0 l/m 8,7 km/h (2 Bft) S-SW 202 2 min 0,000 mm 3,8 UV-I 654 W/m 13,4 C 23,6 C 12,9 km/h (3 Bft) 100,00 %
23.08.2016 15:38 24,0 C 53 % 1025,8 hPa 0,0 l/m 7,3 km/h (2 Bft) SW 217 2 min 0,000 mm 3,7 UV-I 651 W/m 13,8 C 23,7 C 11,3 km/h (2 Bft) 100,00 %
23.08.2016 15:40 23,9 C 53 % 1025,8 hPa 0,0 l/m 5,3 km/h (1 Bft) SW 225 2 min 0,000 mm 3,6 UV-I 637 W/m 13,7 C 23,9 C 8,0 km/h (2 Bft) 97,87 %
23.08.2016 15:42 23,9 C 55 % 1025,8 hPa 0,0 l/m 2,6 km/h (1 Bft) W 261 2 min 0,000 mm 3,6 UV-I 632 W/m 14,3 C 23,9 C 6,4 km/h (2 Bft) 100,00 %
23.08.2016 15:44 23,9 C 54 % 1025,8 hPa 0,0 l/m 3,0 km/h (1 Bft) S 181 2 min 0,000 mm 3,6 UV-I 630 W/m 14,0 C 23,9 C 6,4 km/h (2 Bft) 97,87 %
23.08.2016 15:46 24,1 C 54 % 1025,7 hPa 0,0 l/m 1,3 km/h (1 Bft) S 182 2 min 0,000 mm 3,1 UV-I 650 W/m 14,2 C 24,1 C 3,2 km/h (1 Bft) 97,87 %
23.08.2016 15:48 24,1 C 56 % 1025,7 hPa 0,0 l/m 3,6 km/h (1 Bft) W 265 2 min 0,000 mm 3,5 UV-I 643 W/m 14,8 C 24,1 C 6,4 km/h (2 Bft) 100,00 %
23.08.2016 15:50 24,1 C 53 % 1025,7 hPa 0,0 l/m 5,2 km/h (1 Bft) W-SW 257 2 min 0,000 mm 3,5 UV-I 628 W/m 13,9 C 24,1 C 11,3 km/h (2 Bft) 100,00 %
23.08.2016 15:52 24,1 C 53 % 1025,7 hPa 0,0 l/m 6,0 km/h (2 Bft) W-SW 238 2 min 0,000 mm 3,3 UV-I 602 W/m 13,9 C 24,1 C 16,1 km/h (3 Bft) 95,83 %
23.08.2016 15:54 24,2 C 53 % 1025,7 hPa 0,0 l/m 7,3 km/h (2 Bft) W-NW 284 2 min 0,000 mm 3,3 UV-I 603 W/m 14,0 C 23,9 C 14,5 km/h (3 Bft) 100,00 %
23.08.2016 15:56 24,2 C 54 % 1025,7 hPa 0,0 l/m 1,6 km/h (1 Bft) N-NW 335 2 min 0,000 mm 3,3 UV-I 599 W/m 14,3 C 24,2 C 4,8 km/h (1 Bft) 100,00 %
23.08.2016 15:58 24,2 C 55 % 1025,6 hPa 0,0 l/m 5,5 km/h (1 Bft) S-SW 211 2 min 0,000 mm 3,2 UV-I 593 W/m 14,6 C 24,2 C 12,9 km/h (3 Bft) 93,62 %
23.08.2016 16:00 24,2 C 55 % 1025,6 hPa 0,0 l/m 4,1 km/h (1 Bft) W-NW 302 2 min 0,432 mm 3,2 UV-I 593 W/m 14,6 C 24,2 C 9,7 km/h (2 Bft) 100,00 %
23.08.2016 16:02 24,2 C 52 % 1025,7 hPa 0,0 l/m 3,5 km/h (1 Bft) N 5 2 min 0,000 mm 3,2 UV-I 595 W/m 13,7 C 24,2 C 6,4 km/h (2 Bft) 97,87 %
23.08.2016 16:04 24,2 C 53 % 1025,6 hPa 0,0 l/m 3,1 km/h (1 Bft) N 11 2 min 0,000 mm 3,1 UV-I 587 W/m 14,0 C 24,2 C 6,4 km/h (2 Bft) 100,00 %
23.08.2016 16:06 23,9 C 52 % 1025,6 hPa 0,0 l/m 1,4 km/h (1 Bft) N 5 2 min 0,000 mm 3,0 UV-I 575 W/m 13,4 C 23,9 C 3,2 km/h (1 Bft) 100,00 %
23.08.2016 16:08 23,9 C 53 % 1025,6 hPa 0,0 l/m 3,4 km/h (1 Bft) S-SW 207 2 min 0,000 mm 2,9 UV-I 566 W/m 13,7 C 23,9 C 9,7 km/h (2 Bft) 97,87 %
23.08.2016 16:10 23,8 C 54 % 1025,6 hPa 0,0 l/m 6,2 km/h (2 Bft) W-NW 298 2 min 0,000 mm 2,8 UV-I 543 W/m 13,9 C 23,8 C 11,3 km/h (2 Bft) 100,00 %
23.08.2016 16:12 23,8 C 54 % 1025,6 hPa 0,0 l/m 2,3 km/h (1 Bft) S-SO 153 2 min 0,000 mm 2,8 UV-I 544 W/m 13,9 C 23,8 C 6,4 km/h (2 Bft) 97,37 %
23.08.2016 16:14 23,9 C 58 % 1025,5 hPa 0,0 l/m 3,9 km/h (1 Bft) W-SW 246 2 min 0,000 mm 2,8 UV-I 565 W/m 15,1 C 23,9 C 6,4 km/h (2 Bft) 100,00 %
23.08.2016 16:16 23,9 C 54 % 1025,6 hPa 0,0 l/m 1,7 km/h (1 Bft) W-SW 246 2 min 0,000 mm 2,8 UV-I 561 W/m 14,0 C 23,9 C 4,8 km/h (1 Bft) 100,00 %
23.08.2016 16:18 24,1 C 56 % 1025,4 hPa 0,0 l/m 0,3 km/h (0 Bft) W-SW 246 2 min 0,000 mm 2,7 UV-I 554 W/m 14,8 C 24,1 C 1,6 km/h (1 Bft) 100,00 %
23.08.2016 16:20 24,3 C 54 % 1025,5 hPa 0,0 l/m 2,3 km/h (1 Bft) NW 307 2 min 0,000 mm 2,7 UV-I 550 W/m 14,4 C 24,3 C 4,8 km/h (1 Bft) 100,00 %
23.08.2016 16:22 24,4 C 53 % 1025,5 hPa 0,0 l/m 2,4 km/h (1 Bft) W-NW 282 2 min 0,000 mm 2,7 UV-I 546 W/m 14,2 C 24,4 C 6,4 km/h (2 Bft) 97,87 %
23.08.2016 16:24 24,4 C 53 % 1025,5 hPa 0,0 l/m 4,0 km/h (1 Bft) NW 322 2 min 0,000 mm 2,6 UV-I 539 W/m 14,2 C 24,4 C 8,0 km/h (2 Bft) 100,00 %
23.08.2016 16:26 24,3 C 52 % 1025,4 hPa 0,0 l/m 3,1 km/h (1 Bft) NO 40 2 min 0,000 mm 2,6 UV-I 530 W/m 13,8 C 24,3 C 8,0 km/h (2 Bft) 100,00 %
23.08.2016 16:28 24,3 C 54 % 1025,4 hPa 0,0 l/m 3,7 km/h (1 Bft) W-NW 298 2 min 0,000 mm 2,5 UV-I 525 W/m 14,4 C 24,3 C 8,0 km/h (2 Bft) 100,00 %
23.08.2016 16:30 24,4 C 54 % 1025,4 hPa 0,0 l/m 2,9 km/h (1 Bft) W 267 2 min 0,000 mm 2,5 UV-I 522 W/m 14,5 C 24,4 C 6,4 km/h (2 Bft) 100,00 %
23.08.2016 16:32 24,5 C 52 % 1025,4 hPa 0,0 l/m 2,1 km/h (1 Bft) W-NW 292 2 min 0,000 mm 2,4 UV-I 519 W/m 14,0 C 24,5 C 6,4 km/h (2 Bft) 97,87 %
23.08.2016 16:34 24,4 C 56 % 1025,4 hPa 0,0 l/m 1,7 km/h (1 Bft) N-NW 345 2 min 0,000 mm 2,4 UV-I 515 W/m 15,0 C 24,4 C 3,2 km/h (1 Bft) 97,44 %
23.08.2016 16:36 24,5 C 52 % 1025,4 hPa 0,0 l/m 2,0 km/h (1 Bft) N 355 2 min 0,000 mm 2,3 UV-I 509 W/m 14,0 C 24,5 C 3,2 km/h (1 Bft) 95,74 %
23.08.2016 16:38 24,4 C 52 % 1025,4 hPa 0,0 l/m 3,4 km/h (1 Bft) W-SW 241 2 min 0,000 mm 2,3 UV-I 499 W/m 13,9 C 24,4 C 11,3 km/h (2 Bft) 93,62 %
23.08.2016 16:40 24,4 C 52 % 1025,3 hPa 0,0 l/m 6,0 km/h (2 Bft) W-SW 244 2 min 0,000 mm 2,2 UV-I 495 W/m 13,9 C 24,4 C 9,7 km/h (2 Bft) 97,87 %
23.08.2016 16:42 24,3 C 52 % 1025,3 hPa 0,0 l/m 6,0 km/h (2 Bft) W 274 2 min 0,000 mm 2,2 UV-I 490 W/m 13,8 C 24,3 C 11,3 km/h (2 Bft) 97,87 %
23.08.2016 16:44 24,2 C 51 % 1025,3 hPa 0,0 l/m 4,1 km/h (1 Bft) W 264 2 min 0,000 mm 2,1 UV-I 485 W/m 13,4 C 24,2 C 9,7 km/h (2 Bft) 95,74 %
23.08.2016 16:46 24,0 C 51 % 1025,2 hPa 0,0 l/m 1,4 km/h (1 Bft) SW 218 2 min 0,000 mm 2,1 UV-I 479 W/m 13,2 C 24,0 C 3,2 km/h (1 Bft) 96,00 %
23.08.2016 16:48 23,9 C 52 % 1025,2 hPa 0,0 l/m 2,5 km/h (1 Bft) W-SW 255 2 min 0,000 mm 2,1 UV-I 475 W/m 13,4 C 23,9 C 4,8 km/h (1 Bft) 95,74 %
23.08.2016 16:50 24,0 C 53 % 1025,2 hPa 0,0 l/m 1,4 km/h (1 Bft) W-SW 248 2 min 0,000 mm 2,0 UV-I 469 W/m 13,8 C 24,0 C 6,4 km/h (2 Bft) 97,87 %
23.08.2016 16:52 24,1 C 54 % 1025,2 hPa 0,0 l/m 7,4 km/h (2 Bft) SW 215 2 min 0,000 mm 2,0 UV-I 464 W/m 14,2 C 23,8 C 12,9 km/h (3 Bft) 93,62 %
23.08.2016 16:54 24,2 C 56 % 1025,2 hPa 0,0 l/m 4,4 km/h (1 Bft) W 260 2 min 0,000 mm 1,9 UV-I 460 W/m 14,9 C 24,2 C 8,0 km/h (2 Bft) 97,87 %
23.08.2016 16:56 24,1 C 53 % 1025,2 hPa 0,0 l/m 2,6 km/h (1 Bft) W 260 2 min 0,000 mm 1,9 UV-I 455 W/m 13,9 C 24,1 C 3,2 km/h (1 Bft) 97,87 %
23.08.2016 16:58 24,2 C 54 % 1025,2 hPa 0,0 l/m 1,6 km/h (1 Bft) W-SW 237 2 min 0,000 mm 1,8 UV-I 450 W/m 14,3 C 24,2 C 3,2 km/h (1 Bft) 96,00 %
23.08.2016 17:00 24,3 C 53 % 1025,1 hPa 0,0 l/m 3,0 km/h (1 Bft) W-NW 286 2 min 0,000 mm 1,8 UV-I 442 W/m 14,1 C 24,3 C 6,4 km/h (2 Bft) 94,29 %
23.08.2016 17:02 24,3 C 52 % 1025,2 hPa 0,0 l/m 2,5 km/h (1 Bft) W-NW 297 2 min 0,356 mm 1,7 UV-I 419 W/m 13,8 C 24,3 C 4,8 km/h (1 Bft) 98,00 %
23.08.2016 17:04 24,1 C 51 % 1025,1 hPa 0,0 l/m 0,5 km/h (0 Bft) W-NW 297 2 min 0,000 mm 1,7 UV-I 427 W/m 13,3 C 24,1 C 3,2 km/h (1 Bft) 95,74 %
23.08.2016 17:06 24,2 C 52 % 1025,1 hPa 0,0 l/m 2,8 km/h (1 Bft) W-NW 291 2 min 0,000 mm 1,7 UV-I 427 W/m 13,7 C 24,2 C 4,8 km/h (1 Bft) 95,74 %
23.08.2016 17:08 24,3 C 52 % 1025,1 hPa 0,0 l/m 1,2 km/h (1 Bft) NW 313 2 min 0,000 mm 1,6 UV-I 423 W/m 13,8 C 24,3 C 3,2 km/h (1 Bft) 96,00 %
23.08.2016 17:10 24,4 C 53 % 1025,1 hPa 0,0 l/m 1,5 km/h (1 Bft) N-NO 13 2 min 0,000 mm 1,6 UV-I 418 W/m 14,2 C 24,4 C 4,8 km/h (1 Bft) 100,00 %
23.08.2016 17:12 24,4 C 52 % 1025,1 hPa 0,0 l/m 0,5 km/h (0 Bft) N-NW 346 2 min 0,000 mm 1,5 UV-I 411 W/m 13,9 C 24,4 C 1,6 km/h (1 Bft) 95,74 %
23.08.2016 17:14 24,5 C 53 % 1025,0 hPa 0,0 l/m 3,2 km/h (1 Bft) W-SW 240 2 min 0,000 mm 1,5 UV-I 407 W/m 14,3 C 24,5 C 6,4 km/h (2 Bft) 97,87 %
23.08.2016 17:16 24,4 C 52 % 1025,1 hPa 0,0 l/m 5,6 km/h (1 Bft) S-SW 196 2 min 0,000 mm 1,5 UV-I 402 W/m 13,9 C 24,4 C 8,0 km/h (2 Bft) 95,74 %
23.08.2016 17:18 24,3 C 53 % 1025,1 hPa 0,0 l/m 3,7 km/h (1 Bft) SW 223 2 min 0,000 mm 1,4 UV-I 395 W/m 14,1 C 24,3 C 4,8 km/h (1 Bft) 100,00 %
23.08.2016 17:20 24,2 C 52 % 1025,1 hPa 0,0 l/m 5,4 km/h (1 Bft) S-SW 195 2 min 0,000 mm 1,4 UV-I 390 W/m 13,7 C 24,2 C 8,0 km/h (2 Bft) 97,87 %
23.08.2016 17:22 24,1 C 51 % 1025,1 hPa 0,0 l/m 1,1 km/h (1 Bft) S-SW 195 2 min 0,000 mm 1,3 UV-I 384 W/m 13,3 C 24,1 C 3,2 km/h (1 Bft) 100,00 %
23.08.2016 17:24 24,1 C 53 % 1025,0 hPa 0,0 l/m 3,2 km/h (1 Bft) W 263 2 min 0,000 mm 1,3 UV-I 378 W/m 13,9 C 24,1 C 6,4 km/h (2 Bft) 100,00 %
23.08.2016 17:26 24,2 C 53 % 1025,0 hPa 0,0 l/m 3,6 km/h (1 Bft) S 180 2 min 0,000 mm 1,3 UV-I 372 W/m 14,0 C 24,2 C 6,4 km/h (2 Bft) 100,00 %
23.08.2016 17:28 24,2 C 52 % 1025,0 hPa 0,0 l/m 7,0 km/h (2 Bft) W 263 2 min 0,000 mm 1,3 UV-I 368 W/m 13,7 C 24,0 C 11,3 km/h (2 Bft) 100,00 %
23.08.2016 17:30 24,2 C 53 % 1025,0 hPa 0,0 l/m 5,3 km/h (1 Bft) W 263 2 min 0,000 mm 1,2 UV-I 362 W/m 14,0 C 24,2 C 9,7 km/h (2 Bft) 100,00 %
23.08.2016 17:32 24,3 C 54 % 1025,0 hPa 0,0 l/m 4,8 km/h (1 Bft) W 267 2 min 0,000 mm 1,2 UV-I 356 W/m 14,4 C 24,3 C 8,0 km/h (2 Bft) 100,00 %
23.08.2016 17:34 24,3 C 53 % 1025,0 hPa 0,0 l/m 5,2 km/h (1 Bft) W-SW 243 2 min 0,000 mm 1,1 UV-I 351 W/m 14,1 C 24,3 C 8,0 km/h (2 Bft) 100,00 %
23.08.2016 17:36 24,2 C 51 % 1025,0 hPa 0,0 l/m 1,1 km/h (1 Bft) W-SW 243 2 min 0,000 mm 1,1 UV-I 346 W/m 13,4 C 24,2 C 3,2 km/h (1 Bft) 100,00 %
23.08.2016 17:38 24,2 C 51 % 1025,0 hPa 0,0 l/m 0,3 km/h (0 Bft) W-SW 243 2 min 0,000 mm 1,1 UV-I 341 W/m 13,4 C 24,2 C 1,6 km/h (1 Bft) 100,00 %
23.08.2016 17:40 24,2 C 53 % 1025,1 hPa 0,0 l/m 1,5 km/h (1 Bft) W 261 2 min 0,000 mm 1,0 UV-I 336 W/m 14,0 C 24,2 C 3,2 km/h (1 Bft) 97,87 %
23.08.2016 17:42 24,2 C 53 % 1025,1 hPa 0,0 l/m 0,1 km/h (0 Bft) W 261 2 min 0,000 mm 1,0 UV-I 314 W/m 14,0 C 24,2 C 1,6 km/h (1 Bft) 98,00 %
23.08.2016 17:44 24,3 C 54 % 1025,0 hPa 0,0 l/m 1,8 km/h (1 Bft) NW 314 2 min 0,000 mm 1,0 UV-I 320 W/m 14,4 C 24,3 C 3,2 km/h (1 Bft) 100,00 %
23.08.2016 17:46 24,2 C 52 % 1025,0 hPa 0,0 l/m 2,8 km/h (1 Bft) NW 318 2 min 0,000 mm 0,9 UV-I 319 W/m 13,7 C 24,2 C 3,2 km/h (1 Bft) 95,74 %
23.08.2016 17:48 24,1 C 51 % 1025,0 hPa 0,0 l/m 3,4 km/h (1 Bft) N 355 2 min 0,000 mm 0,9 UV-I 310 W/m 13,3 C 24,1 C 4,8 km/h (1 Bft) 100,00 %
23.08.2016 17:50 24,1 C 52 % 1025,0 hPa 0,0 l/m 2,5 km/h (1 Bft) N-NW 333 2 min 0,000 mm 0,9 UV-I 277 W/m 13,6 C 24,1 C 4,8 km/h (1 Bft) 98,00 %
23.08.2016 17:52 24,1 C 53 % 1025,1 hPa 0,0 l/m 0,7 km/h (0 Bft) NW 325 2 min 0,000 mm 0,8 UV-I 293 W/m 13,9 C 24,1 C 3,2 km/h (1 Bft) 100,00 %
23.08.2016 17:54 24,2 C 55 % 1025,0 hPa 0,0 l/m 3,1 km/h (1 Bft) W-NW 300 2 min 0,000 mm 0,8 UV-I 289 W/m 14,6 C 24,2 C 4,8 km/h (1 Bft) 100,00 %
23.08.2016 17:56 24,2 C 52 % 1025,0 hPa 0,0 l/m 1,3 km/h (1 Bft) W-NW 300 2 min 0,000 mm 0,8 UV-I 286 W/m 13,7 C 24,2 C 1,6 km/h (1 Bft) 97,87 %
23.08.2016 17:58 24,2 C 53 % 1025,0 hPa 0,0 l/m 0,5 km/h (0 Bft) W-NW 300 2 min 0,000 mm 0,8 UV-I 282 W/m 14,0 C 24,2 C 1,6 km/h (1 Bft) 100,00 %
23.08.2016 18:00 24,2 C 53 % 1025,0 hPa 0,0 l/m 0,9 km/h (0 Bft) NW 308 2 min 0,254 mm 0,7 UV-I 278 W/m 14,0 C 24,2 C 3,2 km/h (1 Bft) 97,87 %
23.08.2016 18:02 24,2 C 53 % 1025,0 hPa 0,0 l/m 2,6 km/h (1 Bft) N 9 2 min 0,000 mm 0,7 UV-I 272 W/m 14,0 C 24,2 C 4,8 km/h (1 Bft) 97,87 %
23.08.2016 18:04 24,2 C 56 % 1025,0 hPa 0,0 l/m 2,2 km/h (1 Bft) N-NO 15 2 min 0,000 mm 0,7 UV-I 257 W/m 14,9 C 24,2 C 4,8 km/h (1 Bft) 100,00 %
23.08.2016 18:06 24,3 C 55 % 1025,0 hPa 0,0 l/m 5,3 km/h (1 Bft) NO 36 2 min 0,000 mm 0,7 UV-I 251 W/m 14,7 C 24,3 C 8,0 km/h (2 Bft) 97,87 %
23.08.2016 18:08 24,3 C 56 % 1024,9 hPa 0,0 l/m 2,8 km/h (1 Bft) N-NO 22 2 min 0,000 mm 0,6 UV-I 234 W/m 14,9 C 24,3 C 6,4 km/h (2 Bft) 100,00 %
23.08.2016 18:10 24,2 C 56 % 1024,9 hPa 0,0 l/m 1,6 km/h (1 Bft) N-NW 342 2 min 0,000 mm 0,6 UV-I 233 W/m 14,9 C 24,2 C 3,2 km/h (1 Bft) 97,87 %
23.08.2016 18:12 24,2 C 56 % 1025,0 hPa 0,0 l/m 1,9 km/h (1 Bft) N 360 2 min 0,000 mm 0,6 UV-I 238 W/m 14,9 C 24,2 C 4,8 km/h (1 Bft) 100,00 %
23.08.2016 18:14 24,1 C 55 % 1025,0 hPa 0,0 l/m 2,0 km/h (1 Bft) N-NO 26 2 min 0,000 mm 0,5 UV-I 234 W/m 14,5 C 24,1 C 4,8 km/h (1 Bft) 100,00 %
23.08.2016 18:16 24,1 C 55 % 1024,9 hPa 0,0 l/m 2,2 km/h (1 Bft) N 11 2 min 0,000 mm 0,5 UV-I 221 W/m 14,5 C 24,1 C 4,8 km/h (1 Bft) 97,87 %
23.08.2016 18:18 24,0 C 54 % 1024,9 hPa 0,0 l/m 1,6 km/h (1 Bft) N-NW 343 2 min 0,000 mm 0,5 UV-I 181 W/m 14,1 C 24,0 C 4,8 km/h (1 Bft) 100,00 %
23.08.2016 18:20 23,9 C 55 % 1024,9 hPa 0,0 l/m 2,7 km/h (1 Bft) N-NO 22 2 min 0,000 mm 0,5 UV-I 200 W/m 14,3 C 23,9 C 6,4 km/h (2 Bft) 100,00 %
23.08.2016 18:22 23,9 C 56 % 1024,9 hPa 0,0 l/m 1,8 km/h (1 Bft) N-NO 20 2 min 0,000 mm 0,3 UV-I 202 W/m 14,6 C 23,9 C 3,2 km/h (1 Bft) 96,00 %
23.08.2016 18:24 23,9 C 54 % 1024,9 hPa 0,0 l/m 0,6 km/h (0 Bft) N-NO 13 2 min 0,000 mm 0,0 UV-I 188 W/m 14,0 C 23,9 C 1,6 km/h (1 Bft) 100,00 %
23.08.2016 18:26 23,8 C 56 % 1024,9 hPa 0,0 l/m 3,1 km/h (1 Bft) N-NO 21 2 min 0,000 mm 0,0 UV-I 189 W/m 14,5 C 23,8 C 4,8 km/h (1 Bft) 100,00 %
23.08.2016 18:28 23,8 C 56 % 1025,0 hPa 0,0 l/m 2,0 km/h (1 Bft) N-NO 21 2 min 0,000 mm 0,0 UV-I 187 W/m 14,5 C 23,8 C 4,8 km/h (1 Bft) 95,74 %
23.08.2016 18:30 23,8 C 55 % 1024,9 hPa 0,0 l/m 1,6 km/h (1 Bft) N-NO 25 2 min 0,000 mm 0,0 UV-I 187 W/m 14,2 C 23,8 C 4,8 km/h (1 Bft) 97,92 %
23.08.2016 18:32 23,8 C 55 % 1024,9 hPa 0,0 l/m 1,6 km/h (1 Bft) N-NO 25 2 min 0,000 mm 0,0 UV-I 183 W/m 14,2 C 23,8 C 3,2 km/h (1 Bft) 97,87 %
23.08.2016 18:34 23,9 C 55 % 1024,9 hPa 0,0 l/m 0,5 km/h (0 Bft) N-NO 25 2 min 0,000 mm 0,0 UV-I 175 W/m 14,3 C 23,9 C 1,6 km/h (1 Bft) 98,00 %
23.08.2016 18:36 23,9 C 56 % 1024,9 hPa 0,0 l/m 2,4 km/h (1 Bft) N 5 2 min 0,000 mm 0,0 UV-I 153 W/m 14,6 C 23,9 C 4,8 km/h (1 Bft) 97,87 %
23.08.2016 18:38 23,9 C 54 % 1024,8 hPa 0,0 l/m 0,5 km/h (0 Bft) N 360 2 min 0,000 mm 0,0 UV-I 139 W/m 14,0 C 23,9 C 1,6 km/h (1 Bft) 97,37 %
23.08.2016 18:40 23,8 C 54 % 1024,9 hPa 0,0 l/m 1,2 km/h (1 Bft) N-NW 348 2 min 0,000 mm 0,0 UV-I 153 W/m 13,9 C 23,8 C 3,2 km/h (1 Bft) 97,87 %
23.08.2016 18:42 23,8 C 54 % 1024,9 hPa 0,0 l/m 1,3 km/h (1 Bft) N-NW 348 2 min 0,000 mm 0,0 UV-I 141 W/m 13,9 C 23,8 C 3,2 km/h (1 Bft) 95,74 %
23.08.2016 18:44 23,8 C 55 % 1024,8 hPa 0,0 l/m 0,5 km/h (0 Bft) N-NW 348 2 min 0,000 mm 0,0 UV-I 136 W/m 14,2 C 23,8 C 1,6 km/h (1 Bft) 97,87 %
23.08.2016 18:46 23,8 C 55 % 1024,8 hPa 0,0 l/m 0,8 km/h (0 Bft) N-NW 348 2 min 0,000 mm 0,0 UV-I 134 W/m 14,2 C 23,8 C 1,6 km/h (1 Bft) 97,87 %
23.08.2016 18:48 23,7 C 55 % 1024,7 hPa 0,0 l/m 1,0 km/h (0 Bft) N-NW 348 2 min 0,000 mm 0,0 UV-I 126 W/m 14,1 C 23,7 C 3,2 km/h (1 Bft) 93,62 %
23.08.2016 18:50 23,7 C 55 % 1024,8 hPa 0,0 l/m 1,0 km/h (0 Bft) N-NW 348 2 min 0,000 mm 0,0 UV-I 116 W/m 14,1 C 23,7 C 3,2 km/h (1 Bft) 97,87 %
23.08.2016 18:52 23,7 C 55 % 1024,8 hPa 0,0 l/m 0,2 km/h (0 Bft) N-NW 348 2 min 0,000 mm 0,0 UV-I 113 W/m 14,1 C 23,7 C 1,6 km/h (1 Bft) 97,87 %
23.08.2016 18:54 23,7 C 55 % 1024,7 hPa 0,0 l/m 1,4 km/h (1 Bft) N 349 2 min 0,000 mm 0,0 UV-I 106 W/m 14,1 C 23,7 C 3,2 km/h (1 Bft) 97,87 %
23.08.2016 18:56 23,7 C 56 % 1024,8 hPa 0,0 l/m 0,2 km/h (0 Bft) N 349 2 min 0,000 mm 0,0 UV-I 104 W/m 14,4 C 23,7 C 1,6 km/h (1 Bft) 95,74 %
23.08.2016 18:58 23,6 C 56 % 1024,8 hPa 0,0 l/m 0,4 km/h (0 Bft) N 349 2 min 0,000 mm 0,0 UV-I 97 W/m 14,3 C 23,6 C 1,6 km/h (1 Bft) 100,00 %
23.08.2016 19:00 23,6 C 57 % 1024,7 hPa 0,0 l/m 0,1 km/h (0 Bft) N 349 2 min 0,127 mm 0,0 UV-I 94 W/m 14,6 C 23,6 C 1,6 km/h (1 Bft) 100,00 %
23.08.2016 19:02 23,6 C 57 % 1024,8 hPa 0,0 l/m 0,7 km/h (0 Bft) N 349 2 min 0,000 mm 0,0 UV-I 89 W/m 14,6 C 23,6 C 3,2 km/h (1 Bft) 100,00 %
23.08.2016 19:04 23,4 C 57 % 1024,8 hPa 0,0 l/m 0,9 km/h (0 Bft) N 349 0 min 0,000 mm 0,0 UV-I 81 W/m 14,4 C 23,4 C 3,2 km/h (1 Bft) 100,00 %
23.08.2016 19:06 23,3 C 58 % 1024,8 hPa 0,0 l/m 0,7 km/h (0 Bft) N-NW 348 0 min 0,000 mm 0,0 UV-I 64 W/m 14,6 C 23,3 C 3,2 km/h (1 Bft) 100,00 %
23.08.2016 19:08 23,2 C 59 % 1024,8 hPa 0,0 l/m 0,1 km/h (0 Bft) N-NW 348 0 min 0,000 mm 0,0 UV-I 57 W/m 14,7 C 23,2 C 1,6 km/h (1 Bft) 100,00 %
23.08.2016 19:10 23,2 C 59 % 1024,8 hPa 0,0 l/m 0,5 km/h (0 Bft) N-NW 348 0 min 0,000 mm 0,0 UV-I 54 W/m 14,7 C 23,2 C 1,6 km/h (1 Bft) 95,74 %
23.08.2016 19:12 23,1 C 59 % 1024,9 hPa 0,0 l/m 1,1 km/h (1 Bft) N-NW 348 0 min 0,000 mm 0,0 UV-I 63 W/m 14,6 C 23,1 C 3,2 km/h (1 Bft) 100,00 %
23.08.2016 19:14 23,0 C 59 % 1024,8 hPa 0,0 l/m 1,3 km/h (1 Bft) N-NW 348 0 min 0,000 mm 0,0 UV-I 59 W/m 14,5 C 23,0 C 3,2 km/h (1 Bft) 100,00 %
23.08.2016 19:16 23,0 C 60 % 1024,8 hPa 0,0 l/m 1,4 km/h (1 Bft) N-NW 348 0 min 0,000 mm 0,0 UV-I 57 W/m 14,8 C 23,0 C 3,2 km/h (1 Bft) 100,00 %
23.08.2016 19:18 22,9 C 60 % 1024,9 hPa 0,0 l/m 1,5 km/h (1 Bft) N-NW 348 0 min 0,000 mm 0,0 UV-I 53 W/m 14,7 C 22,9 C 3,2 km/h (1 Bft) 97,87 %
23.08.2016 19:20 22,9 C 59 % 1024,9 hPa 0,0 l/m 2,6 km/h (1 Bft) N 9 0 min 0,000 mm 0,0 UV-I 48 W/m 14,5 C 22,9 C 4,8 km/h (1 Bft) 97,87 %
23.08.2016 19:22 22,9 C 60 % 1024,9 hPa 0,0 l/m 2,1 km/h (1 Bft) N 9 0 min 0,000 mm 0,0 UV-I 45 W/m 14,7 C 22,9 C 3,2 km/h (1 Bft) 100,00 %
23.08.2016 19:24 22,8 C 66 % 1024,9 hPa 0,0 l/m 3,1 km/h (1 Bft) N 9 0 min 0,000 mm 0,0 UV-I 41 W/m 16,1 C 22,8 C 4,8 km/h (1 Bft) 97,87 %
23.08.2016 19:26 22,6 C 66 % 1024,9 hPa 0,0 l/m 2,7 km/h (1 Bft) N 9 0 min 0,000 mm 0,0 UV-I 38 W/m 15,9 C 22,6 C 4,8 km/h (1 Bft) 100,00 %
23.08.2016 19:28 22,4 C 68 % 1024,9 hPa 0,0 l/m 2,1 km/h (1 Bft) N 9 0 min 0,000 mm 0,0 UV-I 34 W/m 16,2 C 22,4 C 4,8 km/h (1 Bft) 98,00 %
23.08.2016 19:30 22,2 C 70 % 1024,9 hPa 0,0 l/m 1,6 km/h (1 Bft) N 9 0 min 0,000 mm 0,0 UV-I 30 W/m 16,5 C 22,2 C 3,2 km/h (1 Bft) 100,00 %
23.08.2016 19:32 22,1 C 70 % 1024,9 hPa 0,0 l/m 1,8 km/h (1 Bft) N 9 0 min 0,000 mm 0,0 UV-I 26 W/m 16,4 C 22,1 C 3,2 km/h (1 Bft) 100,00 %
23.08.2016 19:34 21,8 C 70 % 1024,8 hPa 0,0 l/m 1,3 km/h (1 Bft) N 9 0 min 0,000 mm 0,0 UV-I 23 W/m 16,1 C 21,8 C 3,2 km/h (1 Bft) 100,00 %
23.08.2016 19:36 21,6 C 72 % 1024,8 hPa 0,0 l/m 1,2 km/h (1 Bft) N 9 0 min 0,000 mm 0,0 UV-I 20 W/m 16,3 C 21,6 C 3,2 km/h (1 Bft) 100,00 %
23.08.2016 19:38 21,4 C 72 % 1024,9 hPa 0,0 l/m 1,6 km/h (1 Bft) N 9 0 min 0,000 mm 0,0 UV-I 19 W/m 16,1 C 21,4 C 3,2 km/h (1 Bft) 100,00 %
23.08.2016 19:40 21,3 C 71 % 1024,9 hPa 0,0 l/m 0,5 km/h (0 Bft) N 9 0 min 0,000 mm 0,0 UV-I 17 W/m 15,8 C 21,3 C 1,6 km/h (1 Bft) 100,00 %
23.08.2016 19:42 21,2 C 71 % 1024,8 hPa 0,0 l/m 0,3 km/h (0 Bft) N 9 0 min 0,000 mm 0,0 UV-I 15 W/m 15,7 C 21,2 C 1,6 km/h (1 Bft) 98,00 %
23.08.2016 19:44 21,0 C 73 % 1024,9 hPa 0,0 l/m 0,1 km/h (0 Bft) N 9 0 min 0,000 mm 0,0 UV-I 14 W/m 16,0 C 21,0 C 1,6 km/h (1 Bft) 97,44 %
23.08.2016 19:46 20,9 C 73 % 1024,9 hPa 0,0 l/m 0,1 km/h (0 Bft) N 9 0 min 0,000 mm 0,0 UV-I 14 W/m 15,9 C 20,9 C 1,6 km/h (1 Bft) 97,87 %
23.08.2016 19:48 20,8 C 72 % 1024,9 hPa 0,0 l/m 0,0 km/h (0 Bft) N 9 2 min 0,000 mm 0,0 UV-I 14 W/m 15,6 C 20,8 C 0,0 km/h (0 Bft) 97,87 %
23.08.2016 19:50 20,8 C 71 % 1024,9 hPa 0,0 l/m 0,0 km/h (0 Bft) N 9 2 min 0,000 mm 0,0 UV-I 12 W/m 15,3 C 20,8 C 0,0 km/h (0 Bft) 100,00 %
23.08.2016 19:52 20,8 C 73 % 1024,9 hPa 0,0 l/m 0,0 km/h (0 Bft) N 9 0 min 0,000 mm 0,0 UV-I 12 W/m 15,8 C 20,8 C 0,0 km/h (0 Bft) 97,87 %
23.08.2016 19:54 20,8 C 73 % 1024,9 hPa 0,0 l/m 0,0 km/h (0 Bft) N 9 0 min 0,000 mm 0,0 UV-I 11 W/m 15,8 C 20,8 C 0,0 km/h (0 Bft) 97,87 %
23.08.2016 19:56 20,7 C 72 % 1024,9 hPa 0,0 l/m 0,0 km/h (0 Bft) N 9 0 min 0,000 mm 0,0 UV-I 10 W/m 15,5 C 20,7 C 0,0 km/h (0 Bft) 100,00 %
23.08.2016 19:58 20,6 C 72 % 1025,0 hPa 0,0 l/m 0,0 km/h (0 Bft) N 9 0 min 0,000 mm 0,0 UV-I 9 W/m 15,4 C 20,6 C 0,0 km/h (0 Bft) 97,87 %
23.08.2016 20:00 20,5 C 75 % 1025,0 hPa 0,0 l/m 0,0 km/h (0 Bft) N 9 0 min 0,000 mm 0,0 UV-I 8 W/m 15,9 C 20,5 C 0,0 km/h (0 Bft) 100,00 %
23.08.2016 20:02 20,4 C 75 % 1025,0 hPa 0,0 l/m 0,0 km/h (0 Bft) N 9 0 min 0,025 mm 0,0 UV-I 7 W/m 15,8 C 20,4 C 0,0 km/h (0 Bft) 100,00 %
23.08.2016 20:04 20,2 C 75 % 1025,0 hPa 0,0 l/m 0,0 km/h (0 Bft) N 9 0 min 0,000 mm 0,0 UV-I 6 W/m 15,6 C 20,2 C 0,0 km/h (0 Bft) 100,00 %
23.08.2016 20:06 20,1 C 75 % 1025,0 hPa 0,0 l/m 0,0 km/h (0 Bft) N 9 0 min 0,000 mm 0,0 UV-I 5 W/m 15,5 C 20,1 C 0,0 km/h (0 Bft) 97,87 %
23.08.2016 20:08 20,1 C 76 % 1025,0 hPa 0,0 l/m 0,0 km/h (0 Bft) N 9 0 min 0,000 mm 0,0 UV-I 5 W/m 15,7 C 20,1 C 0,0 km/h (0 Bft) 100,00 %
23.08.2016 20:10 20,1 C 75 % 1024,9 hPa 0,0 l/m 0,0 km/h (0 Bft) N 9 0 min 0,000 mm 0,0 UV-I 5 W/m 15,5 C 20,1 C 0,0 km/h (0 Bft) 100,00 %
23.08.2016 20:12 19,9 C 76 % 1025,0 hPa 0,0 l/m 0,0 km/h (0 Bft) N 9 0 min 0,000 mm 0,0 UV-I 1 W/m 15,5 C 19,9 C 0,0 km/h (0 Bft) 100,00 %
23.08.2016 20:14 19,7 C 77 % 1025,0 hPa 0,0 l/m 0,0 km/h (0 Bft) N 9 0 min 0,000 mm 0,0 UV-I 0 W/m 15,5 C 19,7 C 0,0 km/h (0 Bft) 97,87 %
23.08.2016 20:16 19,5 C 77 % 1025,0 hPa 0,0 l/m 0,0 km/h (0 Bft) N 9 0 min 0,000 mm 0,0 UV-I 0 W/m 15,4 C 19,5 C 0,0 km/h (0 Bft) 100,00 %
23.08.2016 20:18 19,4 C 77 % 1025,0 hPa 0,0 l/m 0,0 km/h (0 Bft) N 9 0 min 0,000 mm 0,0 UV-I 0 W/m 15,3 C 19,4 C 0,0 km/h (0 Bft) 100,00 %
23.08.2016 20:20 19,3 C 78 % 1025,0 hPa 0,0 l/m 0,0 km/h (0 Bft) N 9 0 min 0,000 mm 0,0 UV-I 0 W/m 15,4 C 19,3 C 0,0 km/h (0 Bft) 97,87 %
23.08.2016 20:22 19,2 C 79 % 1025,1 hPa 0,0 l/m 0,0 km/h (0 Bft) N 9 0 min 0,000 mm 0,0 UV-I 0 W/m 15,5 C 19,2 C 0,0 km/h (0 Bft) 98,00 %
23.08.2016 20:24 19,2 C 77 % 1025,1 hPa 0,0 l/m 0,0 km/h (0 Bft) N 9 0 min 0,000 mm 0,0 UV-I 0 W/m 15,1 C 19,2 C 0,0 km/h (0 Bft) 97,87 %
23.08.2016 20:26 19,3 C 78 % 1025,1 hPa 0,0 l/m 0,0 km/h (0 Bft) N 9 0 min 0,000 mm 0,0 UV-I 0 W/m 15,4 C 19,3 C 0,0 km/h (0 Bft) 95,74 %
23.08.2016 20:28 19,3 C 78 % 1025,1 hPa 0,0 l/m 0,0 km/h (0 Bft) N 9 0 min 0,000 mm 0,0 UV-I 0 W/m 15,4 C 19,3 C 0,0 km/h (0 Bft) 97,22 %
23.08.2016 20:30 19,2 C 78 % 1025,1 hPa 0,0 l/m 0,0 km/h (0 Bft) N 9 0 min 0,000 mm 0,0 UV-I 0 W/m 15,3 C 19,2 C 0,0 km/h (0 Bft) 98,00 %
23.08.2016 20:32 19,1 C 79 % 1025,1 hPa 0,0 l/m 0,0 km/h (0 Bft) N 9 0 min 0,000 mm 0,0 UV-I 0 W/m 15,4 C 19,1 C 0,0 km/h (0 Bft) 95,74 %
23.08.2016 20:34 18,8 C 79 % 1025,1 hPa 0,0 l/m 0,0 km/h (0 Bft) N 9 0 min 0,000 mm 0,0 UV-I 0 W/m 15,1 C 18,8 C 0,0 km/h (0 Bft) 97,87 %
23.08.2016 20:36 18,7 C 80 % 1025,1 hPa 0,0 l/m 0,0 km/h (0 Bft) N 9 0 min 0,000 mm 0,0 UV-I 0 W/m 15,2 C 18,7 C 0,0 km/h (0 Bft) 97,87 %
23.08.2016 20:38 18,6 C 80 % 1025,1 hPa 0,0 l/m 0,0 km/h (0 Bft) N 9 0 min 0,000 mm 0,0 UV-I 0 W/m 15,1 C 18,6 C 0,0 km/h (0 Bft) 95,74 %
23.08.2016 20:40 18,5 C 80 % 1025,1 hPa 0,0 l/m 0,0 km/h (0 Bft) N 9 0 min 0,000 mm 0,0 UV-I 0 W/m 15,0 C 18,5 C 0,0 km/h (0 Bft) 97,87 %
23.08.2016 20:42 18,5 C 81 % 1025,2 hPa 0,0 l/m 0,0 km/h (0 Bft) N 9 0 min 0,000 mm 0,0 UV-I 0 W/m 15,2 C 18,5 C 0,0 km/h (0 Bft) 97,87 %
23.08.2016 20:44 18,4 C 81 % 1025,2 hPa 0,0 l/m 0,0 km/h (0 Bft) N-NO 13 0 min 0,000 mm 0,0 UV-I 0 W/m 15,1 C 18,4 C 0,0 km/h (0 Bft) 94,00 %
23.08.2016 20:46 18,4 C 81 % 1025,1 hPa 0,0 l/m 0,0 km/h (0 Bft) N-NO 13 0 min 0,000 mm 0,0 UV-I 0 W/m 15,1 C 18,4 C 0,0 km/h (0 Bft) 95,74 %
23.08.2016 20:48 18,3 C 82 % 1025,2 hPa 0,0 l/m 0,0 km/h (0 Bft) N-NO 13 0 min 0,000 mm 0,0 UV-I 0 W/m 15,2 C 18,3 C 0,0 km/h (0 Bft) 96,00 %
23.08.2016 20:50 18,3 C 82 % 1025,2 hPa 0,0 l/m 0,0 km/h (0 Bft) N-NO 13 0 min 0,000 mm 0,0 UV-I 0 W/m 15,2 C 18,3 C 0,0 km/h (0 Bft) 97,87 %
23.08.2016 20:52 18,2 C 82 % 1025,1 hPa 0,0 l/m 0,0 km/h (0 Bft) N-NO 13 0 min 0,000 mm 0,0 UV-I 0 W/m 15,1 C 18,2 C 0,0 km/h (0 Bft) 97,87 %
23.08.2016 20:54 18,2 C 82 % 1025,1 hPa 0,0 l/m 0,0 km/h (0 Bft) N-NO 13 0 min 0,000 mm 0,0 UV-I 0 W/m 15,1 C 18,2 C 0,0 km/h (0 Bft) 95,74 %
23.08.2016 20:56 18,1 C 82 % 1025,2 hPa 0,0 l/m 0,0 km/h (0 Bft) N-NO 13 0 min 0,000 mm 0,0 UV-I 0 W/m 15,0 C 18,1 C 0,0 km/h (0 Bft) 100,00 %
23.08.2016 20:58 18,1 C 82 % 1025,2 hPa 0,0 l/m 0,0 km/h (0 Bft) N-NO 13 0 min 0,000 mm 0,0 UV-I 0 W/m 15,0 C 18,1 C 0,0 km/h (0 Bft) 97,87 %
23.08.2016 21:00 18,1 C 83 % 1025,2 hPa 0,0 l/m 0,0 km/h (0 Bft) N-NO 13 0 min 0,000 mm 0,0 UV-I 0 W/m 15,2 C 18,1 C 0,0 km/h (0 Bft) 100,00 %
23.08.2016 21:02 18,1 C 82 % 1025,2 hPa 0,0 l/m 0,0 km/h (0 Bft) N-NO 13 0 min 0,000 mm 0,0 UV-I 0 W/m 15,0 C 18,1 C 0,0 km/h (0 Bft) 97,22 %
23.08.2016 21:04 18,1 C 83 % 1025,2 hPa 0,0 l/m 0,0 km/h (0 Bft) N-NO 13 0 min 0,000 mm 0,0 UV-I 0 W/m 15,2 C 18,1 C 0,0 km/h (0 Bft) 97,87 %
23.08.2016 21:06 18,2 C 83 % 1025,3 hPa 0,0 l/m 0,0 km/h (0 Bft) N-NO 13 0 min 0,000 mm 0,0 UV-I 0 W/m 15,3 C 18,2 C 0,0 km/h (0 Bft) 97,87 %
23.08.2016 21:08 18,2 C 82 % 1025,3 hPa 0,0 l/m 0,0 km/h (0 Bft) N-NO 13 0 min 0,000 mm 0,0 UV-I 0 W/m 15,1 C 18,2 C 0,0 km/h (0 Bft) 97,87 %
23.08.2016 21:10 18,2 C 82 % 1025,3 hPa 0,0 l/m 0,0 km/h (0 Bft) N-NO 13 0 min 0,000 mm 0,0 UV-I 0 W/m 15,1 C 18,2 C 0,0 km/h (0 Bft) 97,96 %
23.08.2016 21:12 18,1 C 83 % 1025,3 hPa 0,0 l/m 0,0 km/h (0 Bft) N-NO 13 0 min 0,000 mm 0,0 UV-I 0 W/m 15,2 C 18,1 C 0,0 km/h (0 Bft) 100,00 %
23.08.2016 21:14 18,0 C 84 % 1025,3 hPa 0,0 l/m 0,0 km/h (0 Bft) N-NO 13 0 min 0,000 mm 0,0 UV-I 0 W/m 15,3 C 18,0 C 0,0 km/h (0 Bft) 97,87 %
23.08.2016 21:16 17,9 C 84 % 1025,3 hPa 0,0 l/m 0,0 km/h (0 Bft) N-NO 13 0 min 0,000 mm 0,0 UV-I 0 W/m 15,2 C 17,9 C 0,0 km/h (0 Bft) 100,00 %
23.08.2016 21:18 17,8 C 84 % 1025,3 hPa 0,0 l/m 0,0 km/h (0 Bft) N-NO 13 0 min 0,000 mm 0,0 UV-I 0 W/m 15,1 C 17,8 C 0,0 km/h (0 Bft) 97,87 %
23.08.2016 21:20 17,8 C 84 % 1025,3 hPa 0,0 l/m 0,0 km/h (0 Bft) N-NO 15 0 min 0,000 mm 0,0 UV-I 0 W/m 15,1 C 17,8 C 0,0 km/h (0 Bft) 97,87 %
23.08.2016 21:22 17,8 C 83 % 1025,4 hPa 0,0 l/m 0,0 km/h (0 Bft) N-NO 17 0 min 0,000 mm 0,0 UV-I 0 W/m 14,9 C 17,8 C 0,0 km/h (0 Bft) 100,00 %
23.08.2016 21:24 17,9 C 83 % 1025,3 hPa 0,0 l/m 0,0 km/h (0 Bft) N-NO 17 0 min 0,000 mm 0,0 UV-I 0 W/m 15,0 C 17,9 C 0,0 km/h (0 Bft) 97,87 %
23.08.2016 21:26 17,9 C 83 % 1025,3 hPa 0,0 l/m 0,0 km/h (0 Bft) N-NO 32 0 min 0,000 mm 0,0 UV-I 0 W/m 15,0 C 17,9 C 0,0 km/h (0 Bft) 97,87 %
23.08.2016 21:28 17,8 C 83 % 1025,4 hPa 0,0 l/m 0,0 km/h (0 Bft) N-NO 32 0 min 0,000 mm 0,0 UV-I 0 W/m 14,9 C 17,8 C 0,0 km/h (0 Bft) 100,00 %
23.08.2016 21:30 17,8 C 83 % 1025,4 hPa 0,0 l/m 0,0 km/h (0 Bft) N-NO 32 0 min 0,000 mm 0,0 UV-I 0 W/m 14,9 C 17,8 C 0,0 km/h (0 Bft) 97,87 %
23.08.2016 21:32 17,8 C 83 % 1025,4 hPa 0,0 l/m 0,0 km/h (0 Bft) N-NO 32 0 min 0,000 mm 0,0 UV-I 0 W/m 14,9 C 17,8 C 0,0 km/h (0 Bft) 95,74 %
23.08.2016 21:34 17,8 C 83 % 1025,4 hPa 0,0 l/m 0,0 km/h (0 Bft) N-NO 32 0 min 0,000 mm 0,0 UV-I 0 W/m 14,9 C 17,8 C 0,0 km/h (0 Bft) 100,00 %
23.08.2016 21:36 17,8 C 83 % 1025,4 hPa 0,0 l/m 0,0 km/h (0 Bft) N-NO 32 0 min 0,000 mm 0,0 UV-I 0 W/m 14,9 C 17,8 C 0,0 km/h (0 Bft) 95,74 %
23.08.2016 21:38 17,8 C 83 % 1025,4 hPa 0,0 l/m 0,0 km/h (0 Bft) N-NO 32 0 min 0,000 mm 0,0 UV-I 0 W/m 14,9 C 17,8 C 0,0 km/h (0 Bft) 100,00 %
23.08.2016 21:40 17,8 C 84 % 1025,3 hPa 0,0 l/m 0,0 km/h (0 Bft) N-NO 32 0 min 0,000 mm 0,0 UV-I 0 W/m 15,1 C 17,8 C 0,0 km/h (0 Bft) 100,00 %
23.08.2016 21:42 17,7 C 84 % 1025,4 hPa 0,0 l/m 0,0 km/h (0 Bft) N-NO 32 0 min 0,000 mm 0,0 UV-I 0 W/m 15,0 C 17,7 C 0,0 km/h (0 Bft) 100,00 %
23.08.2016 21:44 17,7 C 84 % 1025,4 hPa 0,0 l/m 0,0 km/h (0 Bft) N-NO 32 0 min 0,000 mm 0,0 UV-I 0 W/m 15,0 C 17,7 C 0,0 km/h (0 Bft) 98,08 %
23.08.2016 21:46 17,5 C 85 % 1025,4 hPa 0,0 l/m 0,0 km/h (0 Bft) N-NO 32 0 min 0,000 mm 0,0 UV-I 0 W/m 14,9 C 17,5 C 0,0 km/h (0 Bft) 100,00 %
23.08.2016 21:48 17,4 C 85 % 1025,4 hPa 0,0 l/m 0,0 km/h (0 Bft) N-NO 32 0 min 0,000 mm 0,0 UV-I 0 W/m 14,8 C 17,4 C 0,0 km/h (0 Bft) 100,00 %
23.08.2016 21:50 17,3 C 86 % 1025,4 hPa 0,0 l/m 0,0 km/h (0 Bft) N-NO 32 0 min 0,000 mm 0,0 UV-I 0 W/m 14,9 C 17,3 C 0,0 km/h (0 Bft) 100,00 %
23.08.2016 21:52 17,3 C 86 % 1025,4 hPa 0,0 l/m 0,0 km/h (0 Bft) N-NO 32 0 min 0,000 mm 0,0 UV-I 0 W/m 14,9 C 17,3 C 0,0 km/h (0 Bft) 100,00 %
23.08.2016 21:54 17,4 C 86 % 1025,3 hPa 0,0 l/m 0,0 km/h (0 Bft) N-NO 32 0 min 0,000 mm 0,0 UV-I 0 W/m 15,0 C 17,4 C 0,0 km/h (0 Bft) 97,87 %
23.08.2016 21:56 17,4 C 86 % 1025,4 hPa 0,0 l/m 0,0 km/h (0 Bft) N-NO 32 0 min 0,000 mm 0,0 UV-I 0 W/m 15,0 C 17,4 C 0,0 km/h (0 Bft) 97,96 %
23.08.2016 21:58 17,4 C 86 % 1025,4 hPa 0,0 l/m 0,0 km/h (0 Bft) N-NO 32 0 min 0,000 mm 0,0 UV-I 0 W/m 15,0 C 17,4 C 0,0 km/h (0 Bft) 100,00 %
23.08.2016 22:00 17,4 C 85 % 1025,4 hPa 0,0 l/m 0,0 km/h (0 Bft) N-NO 32 0 min 0,000 mm 0,0 UV-I 0 W/m 14,8 C 17,4 C 0,0 km/h (0 Bft) 100,00 %
23.08.2016 22:02 17,3 C 86 % 1025,4 hPa 0,0 l/m 0,0 km/h (0 Bft) N-NO 32 0 min 0,000 mm 0,0 UV-I 0 W/m 14,9 C 17,3 C 0,0 km/h (0 Bft) 100,00 %
23.08.2016 22:04 17,2 C 86 % 1025,3 hPa 0,0 l/m 0,0 km/h (0 Bft) N-NO 32 0 min 0,000 mm 0,0 UV-I 0 W/m 14,8 C 17,2 C 0,0 km/h (0 Bft) 95,74 %
23.08.2016 22:06 17,1 C 86 % 1025,4 hPa 0,0 l/m 0,0 km/h (0 Bft) N-NO 32 0 min 0,000 mm 0,0 UV-I 0 W/m 14,7 C 17,1 C 0,0 km/h (0 Bft) 100,00 %
23.08.2016 22:08 17,1 C 86 % 1025,4 hPa 0,0 l/m 0,0 km/h (0 Bft) N-NO 32 0 min 0,000 mm 0,0 UV-I 0 W/m 14,7 C 17,1 C 0,0 km/h (0 Bft) 100,00 %
23.08.2016 22:10 17,0 C 86 % 1025,4 hPa 0,0 l/m 0,0 km/h (0 Bft) N-NO 32 0 min 0,000 mm 0,0 UV-I 0 W/m 14,6 C 17,0 C 0,0 km/h (0 Bft) 100,00 %
23.08.2016 22:12 17,0 C 86 % 1025,4 hPa 0,0 l/m 0,0 km/h (0 Bft) N-NO 32 0 min 0,000 mm 0,0 UV-I 0 W/m 14,6 C 17,0 C 0,0 km/h (0 Bft) 100,00 %
23.08.2016 22:14 17,1 C 86 % 1025,4 hPa 0,0 l/m 0,0 km/h (0 Bft) N-NO 32 0 min 0,000 mm 0,0 UV-I 0 W/m 14,7 C 17,1 C 0,0 km/h (0 Bft) 100,00 %
23.08.2016 22:16 17,1 C 86 % 1025,4 hPa 0,0 l/m 0,0 km/h (0 Bft) N-NO 32 0 min 0,000 mm 0,0 UV-I 0 W/m 14,7 C 17,1 C 0,0 km/h (0 Bft) 97,87 %
23.08.2016 22:18 17,0 C 86 % 1025,4 hPa 0,0 l/m 0,0 km/h (0 Bft) N-NO 32 0 min 0,000 mm 0,0 UV-I 0 W/m 14,6 C 17,0 C 0,0 km/h (0 Bft) 100,00 %
23.08.2016 22:20 17,0 C 86 % 1025,4 hPa 0,0 l/m 0,0 km/h (0 Bft) N-NO 32 0 min 0,000 mm 0,0 UV-I 0 W/m 14,6 C 17,0 C 0,0 km/h (0 Bft) 100,00 %
23.08.2016 22:22 16,9 C 86 % 1025,4 hPa 0,0 l/m 0,0 km/h (0 Bft) N-NO 32 0 min 0,000 mm 0,0 UV-I 0 W/m 14,5 C 16,9 C 0,0 km/h (0 Bft) 100,00 %
23.08.2016 22:24 16,9 C 86 % 1025,4 hPa 0,0 l/m 0,0 km/h (0 Bft) N 9 0 min 0,000 mm 0,0 UV-I 0 W/m 14,5 C 16,9 C 0,0 km/h (0 Bft) 100,00 %
23.08.2016 22:26 16,9 C 87 % 1025,3 hPa 0,0 l/m 0,0 km/h (0 Bft) N-NW 338 0 min 0,000 mm 0,0 UV-I 0 W/m 14,7 C 16,9 C 0,0 km/h (0 Bft) 95,74 %
23.08.2016 22:28 16,8 C 87 % 1025,3 hPa 0,0 l/m 0,0 km/h (0 Bft) N-NW 337 0 min 0,000 mm 0,0 UV-I 0 W/m 14,6 C 16,8 C 0,0 km/h (0 Bft) 97,87 %
23.08.2016 22:30 16,8 C 87 % 1025,3 hPa 0,0 l/m 0,0 km/h (0 Bft) N-NW 337 0 min 0,000 mm 0,0 UV-I 0 W/m 14,6 C 16,8 C 0,0 km/h (0 Bft) 95,74 %
23.08.2016 22:32 16,7 C 87 % 1025,3 hPa 0,0 l/m 0,0 km/h (0 Bft) N-NW 337 0 min 0,000 mm 0,0 UV-I 0 W/m 14,5 C 16,7 C 0,0 km/h (0 Bft) 100,00 %
23.08.2016 22:34 16,7 C 88 % 1025,3 hPa 0,0 l/m 0,0 km/h (0 Bft) N-NW 337 0 min 0,000 mm 0,0 UV-I 0 W/m 14,7 C 16,7 C 0,0 km/h (0 Bft) 95,92 %
23.08.2016 22:36 16,7 C 88 % 1025,3 hPa 0,0 l/m 0,0 km/h (0 Bft) N-NW 337 0 min 0,000 mm 0,0 UV-I 0 W/m 14,7 C 16,7 C 0,0 km/h (0 Bft) 97,87 %
23.08.2016 22:38 16,8 C 88 % 1025,3 hPa 0,0 l/m 0,0 km/h (0 Bft) N-NW 337 0 min 0,000 mm 0,0 UV-I 0 W/m 14,8 C 16,8 C 0,0 km/h (0 Bft) 97,87 %
23.08.2016 22:40 16,7 C 88 % 1025,3 hPa 0,0 l/m 0,0 km/h (0 Bft) W-NW 296 0 min 0,000 mm 0,0 UV-I 0 W/m 14,7 C 16,7 C 0,0 km/h (0 Bft) 97,87 %
23.08.2016 22:42 16,7 C 88 % 1025,3 hPa 0,0 l/m 0,0 km/h (0 Bft) S 189 0 min 0,000 mm 0,0 UV-I 0 W/m 14,7 C 16,7 C 0,0 km/h (0 Bft) 98,00 %
23.08.2016 22:44 16,7 C 88 % 1025,3 hPa 0,0 l/m 2,9 km/h (1 Bft) S-SW 194 0 min 0,000 mm 0,0 UV-I 0 W/m 14,7 C 16,7 C 4,8 km/h (1 Bft) 97,96 %
23.08.2016 22:46 16,7 C 88 % 1025,3 hPa 0,0 l/m 3,6 km/h (1 Bft) S-SW 193 0 min 0,000 mm 0,0 UV-I 0 W/m 14,7 C 16,7 C 6,4 km/h (2 Bft) 97,87 %
23.08.2016 22:48 16,7 C 88 % 1025,3 hPa 0,0 l/m 4,0 km/h (1 Bft) S-SW 193 0 min 0,000 mm 0,0 UV-I 0 W/m 14,7 C 16,7 C 6,4 km/h (2 Bft) 95,74 %
23.08.2016 22:50 16,8 C 88 % 1025,3 hPa 0,0 l/m 3,3 km/h (1 Bft) S 191 0 min 0,000 mm 0,0 UV-I 0 W/m 14,8 C 16,8 C 4,8 km/h (1 Bft) 100,00 %
23.08.2016 22:52 16,8 C 87 % 1025,3 hPa 0,0 l/m 2,7 km/h (1 Bft) S 191 0 min 0,000 mm 0,0 UV-I 0 W/m 14,6 C 16,8 C 4,8 km/h (1 Bft) 94,12 %
23.08.2016 22:54 16,8 C 87 % 1025,3 hPa 0,0 l/m 2,4 km/h (1 Bft) S 191 0 min 0,000 mm 0,0 UV-I 0 W/m 14,6 C 16,8 C 3,2 km/h (1 Bft) 97,87 %
23.08.2016 22:56 16,9 C 87 % 1025,3 hPa 0,0 l/m 1,8 km/h (1 Bft) S 191 0 min 0,000 mm 0,0 UV-I 0 W/m 14,7 C 16,9 C 3,2 km/h (1 Bft) 97,87 %
23.08.2016 22:58 16,9 C 87 % 1025,3 hPa 0,0 l/m 1,5 km/h (1 Bft) S 191 0 min 0,000 mm 0,0 UV-I 0 W/m 14,7 C 16,9 C 3,2 km/h (1 Bft) 95,74 %
23.08.2016 23:00 16,9 C 87 % 1025,3 hPa 0,0 l/m 2,9 km/h (1 Bft) S 191 0 min 0,000 mm 0,0 UV-I 0 W/m 14,7 C 16,9 C 3,2 km/h (1 Bft) 93,75 %
23.08.2016 23:02 16,9 C 86 % 1025,3 hPa 0,0 l/m 2,4 km/h (1 Bft) S 191 0 min 0,000 mm 0,0 UV-I 0 W/m 14,5 C 16,9 C 3,2 km/h (1 Bft) 100,00 %
23.08.2016 23:04 16,9 C 86 % 1025,3 hPa 0,0 l/m 2,6 km/h (1 Bft) S 191 0 min 0,000 mm 0,0 UV-I 0 W/m 14,5 C 16,9 C 4,8 km/h (1 Bft) 100,00 %
23.08.2016 23:06 17,1 C 86 % 1025,3 hPa 0,0 l/m 2,1 km/h (1 Bft) S 191 0 min 0,000 mm 0,0 UV-I 0 W/m 14,7 C 17,1 C 3,2 km/h (1 Bft) 97,87 %
23.08.2016 23:08 17,1 C 86 % 1025,3 hPa 0,0 l/m 1,4 km/h (1 Bft) S 191 0 min 0,000 mm 0,0 UV-I 0 W/m 14,7 C 17,1 C 3,2 km/h (1 Bft) 100,00 %
23.08.2016 23:10 17,1 C 86 % 1025,3 hPa 0,0 l/m 1,2 km/h (1 Bft) S 191 0 min 0,000 mm 0,0 UV-I 0 W/m 14,7 C 17,1 C 3,2 km/h (1 Bft) 100,00 %
23.08.2016 23:12 17,2 C 85 % 1025,3 hPa 0,0 l/m 0,0 km/h (0 Bft) S 191 0 min 0,000 mm 0,0 UV-I 0 W/m 14,7 C 17,2 C 1,6 km/h (1 Bft) 100,00 %
23.08.2016 23:14 17,1 C 85 % 1025,3 hPa 0,0 l/m 0,0 km/h (0 Bft) S 191 0 min 0,000 mm 0,0 UV-I 0 W/m 14,6 C 17,1 C 0,0 km/h (0 Bft) 95,74 %
23.08.2016 23:16 17,1 C 85 % 1025,3 hPa 0,0 l/m 0,2 km/h (0 Bft) S 191 0 min 0,000 mm 0,0 UV-I 0 W/m 14,6 C 17,1 C 1,6 km/h (1 Bft) 100,00 %
23.08.2016 23:18 16,9 C 86 % 1025,3 hPa 0,0 l/m 0,9 km/h (0 Bft) S 191 0 min 0,000 mm 0,0 UV-I 0 W/m 14,5 C 16,9 C 1,6 km/h (1 Bft) 100,00 %
23.08.2016 23:20 16,8 C 86 % 1025,3 hPa 0,0 l/m 0,6 km/h (0 Bft) S 191 0 min 0,000 mm 0,0 UV-I 0 W/m 14,4 C 16,8 C 1,6 km/h (1 Bft) 97,87 %
23.08.2016 23:22 16,7 C 87 % 1025,3 hPa 0,0 l/m 0,7 km/h (0 Bft) S 191 0 min 0,000 mm 0,0 UV-I 0 W/m 14,5 C 16,7 C 1,6 km/h (1 Bft) 97,87 %
23.08.2016 23:24 16,7 C 87 % 1025,2 hPa 0,0 l/m 1,8 km/h (1 Bft) S 191 0 min 0,000 mm 0,0 UV-I 0 W/m 14,5 C 16,7 C 3,2 km/h (1 Bft) 100,00 %
23.08.2016 23:26 16,6 C 87 % 1025,3 hPa 0,0 l/m 1,4 km/h (1 Bft) S 191 0 min 0,000 mm 0,0 UV-I 0 W/m 14,4 C 16,6 C 3,2 km/h (1 Bft) 93,62 %
23.08.2016 23:28 16,6 C 87 % 1025,3 hPa 0,0 l/m 0,8 km/h (0 Bft) S 191 0 min 0,000 mm 0,0 UV-I 0 W/m 14,4 C 16,6 C 1,6 km/h (1 Bft) 100,00 %
23.08.2016 23:30 16,4 C 88 % 1025,3 hPa 0,0 l/m 0,3 km/h (0 Bft) S 191 0 min 0,000 mm 0,0 UV-I 0 W/m 14,4 C 16,4 C 3,2 km/h (1 Bft) 97,87 %
23.08.2016 23:32 16,4 C 88 % 1025,3 hPa 0,0 l/m 0,8 km/h (0 Bft) S 191 0 min 0,000 mm 0,0 UV-I 0 W/m 14,4 C 16,4 C 1,6 km/h (1 Bft) 98,00 %
23.08.2016 23:34 16,4 C 88 % 1025,3 hPa 0,0 l/m 1,6 km/h (1 Bft) S 191 0 min 0,000 mm 0,0 UV-I 0 W/m 14,4 C 16,4 C 3,2 km/h (1 Bft) 100,00 %
23.08.2016 23:36 16,4 C 88 % 1025,3 hPa 0,0 l/m 1,5 km/h (1 Bft) S 191 0 min 0,000 mm 0,0 UV-I 0 W/m 14,4 C 16,4 C 3,2 km/h (1 Bft) 93,75 %
23.08.2016 23:38 16,3 C 88 % 1025,3 hPa 0,0 l/m 0,7 km/h (0 Bft) S 191 0 min 0,000 mm 0,0 UV-I 0 W/m 14,3 C 16,3 C 1,6 km/h (1 Bft) 100,00 %
23.08.2016 23:40 16,3 C 88 % 1025,3 hPa 0,0 l/m 0,0 km/h (0 Bft) S 191 0 min 0,000 mm 0,0 UV-I 0 W/m 14,3 C 16,3 C 0,0 km/h (0 Bft) 100,00 %
23.08.2016 23:42 16,4 C 88 % 1025,3 hPa 0,0 l/m 0,0 km/h (0 Bft) S 191 0 min 0,000 mm 0,0 UV-I 0 W/m 14,4 C 16,4 C 0,0 km/h (0 Bft) 98,11 %
23.08.2016 23:44 16,4 C 88 % 1025,3 hPa 0,0 l/m 0,0 km/h (0 Bft) S 191 0 min 0,000 mm 0,0 UV-I 0 W/m 14,4 C 16,4 C 0,0 km/h (0 Bft) 98,00 %
23.08.2016 23:46 16,4 C 88 % 1025,3 hPa 0,0 l/m 0,0 km/h (0 Bft) S 191 0 min 0,000 mm 0,0 UV-I 0 W/m 14,4 C 16,4 C 0,0 km/h (0 Bft) 100,00 %
23.08.2016 23:48 16,3 C 87 % 1025,3 hPa 0,0 l/m 0,0 km/h (0 Bft) S 191 0 min 0,000 mm 0,0 UV-I 0 W/m 14,1 C 16,3 C 0,0 km/h (0 Bft) 97,87 %
23.08.2016 23:50 16,1 C 88 % 1025,3 hPa 0,0 l/m 0,3 km/h (0 Bft) S 191 0 min 0,000 mm 0,0 UV-I 0 W/m 14,1 C 16,1 C 1,6 km/h (1 Bft) 100,00 %
23.08.2016 23:52 16,1 C 88 % 1025,3 hPa 0,0 l/m 0,5 km/h (0 Bft) S 191 0 min 0,000 mm 0,0 UV-I 0 W/m 14,1 C 16,1 C 1,6 km/h (1 Bft) 100,00 %
23.08.2016 23:54 16,0 C 88 % 1025,3 hPa 0,0 l/m 0,0 km/h (0 Bft) S 191 0 min 0,000 mm 0,0 UV-I 0 W/m 14,0 C 16,0 C 0,0 km/h (0 Bft) 100,00 %
23.08.2016 23:56 15,9 C 88 % 1025,3 hPa 0,0 l/m 0,2 km/h (0 Bft) S 191 0 min 0,000 mm 0,0 UV-I 0 W/m 13,9 C 15,9 C 1,6 km/h (1 Bft) 100,00 %
23.08.2016 23:58 15,9 C 89 % 1025,3 hPa 0,0 l/m 0,0 km/h (0 Bft) S 191 0 min 0,000 mm 0,0 UV-I 0 W/m 14,1 C 15,9 C 1,6 km/h (1 Bft) 97,87 %
_ Min-Zeit 05:16 15:36 18:48 - 03:46 - - - - - - 05:16 05:16 03:46 13:00
Minimum _ 11,4 C 51 % 1024,7 hPa - 0,0 km/h (0 Bft) - - - - - - 10,5 C 11,4 C 0,0 km/h (0 Bft) 91,49 %
_ Max-Zeit 16:24 04:10 09:52 00:00 13:00 - - 06:20 14:00 13:20 13:48 19:30 16:32 13:00 00:00
Maximum _ 24,5 C 94 % 1028,5 hPa 0,0 l/m 11,7 km/h
W-NW (2 Bft)
- - 2 min 0,534 mm 6,3 UV-I 917 W/m 16,5 C 24,5 C 19,3 km/h
W-SW (3 Bft)
100,00 %
Durchschnitt _ 17,8 C 76 % 1026,7 hPa #0,0 l/m 3,2 km/h (1 Bft) S-SW - #10:12 h #3,810 mm 3,4 UV-I 429 W/m 13,1 C 17,8 C 5,8 km/h (1 Bft) 98,55 %